[[{"header":{"parameterUnit":"m.s-1","parameterCategory":1,"la1":31.0,"la2":29.5877,"lo1":-88.7671,"lo2":-86.6584,"dy":0.0162,"dx":0.0185,"nx":115,"ny":88,"refTime":"2026-04-18T00:00:00:Z","depth":0,"parameterNumber":2,"parameterNumberName":"U-component_of_WINDS"},"data":[0.0,0.0,0.0,0.0,0.0,0.0,0.0,0.0,0.0,0.0,0.0,0.0,0.0,0.0,0.0,0.0,0.0,0.0,0.0,0.0,0.0,0.0,0.0,0.0,0.0,0.0,0.0,0.0,0.0,0.0,0.0,0.0,0.0,0.0,0.0,0.0,0.0,0.0,0.0,0.0,0.0,0.0,0.0,0.0,0.0,0.0,0.0,0.0,0.0,0.0,0.0,0.0,0.0,0.0,0.0,0.0,0.0,0.0,0.0,0.0,0.0,0.0,0.0,0.0,0.0,0.0,0.0,0.0,0.0,0.0,0.0,0.0,0.0,0.0,0.0,0.0,0.0,0.0,0.0,0.0,0.0,0.0,0.0,0.0,0.0,0.0,0.0,0.0,0.0,0.0,0.0,0.0,0.0,0.0,0.0,0.0,0.0,0.0,0.0,0.0,0.0,0.0,0.0,0.0,0.0,0.0,0.0,0.0,0.0,0.0,0.0,0.0,0.0,0.0,0.0,0.0,0.0,0.0,0.0,0.0,0.0,0.0,0.0,0.0,0.0,0.0,0.0,0.0,0.0,0.0,0.0,0.0,0.0,0.0,0.0,0.0,0.0,0.0,0.0,0.0,0.0,0.0,0.0,0.0,0.0,0.0,0.0,0.0,0.0,0.0,0.0,0.0,0.0,0.0,0.0,0.0,0.0,0.0,0.0,0.0,0.0,0.0,0.0,0.0,0.0,0.0,0.0,0.0,0.0,0.0,0.0,0.0,0.0,0.0,0.0,0.0,0.0,0.0,0.0,0.0,0.0,0.0,0.0,0.0,0.0,0.0,0.0,0.0,0.0,0.0,0.0,0.0,0.0,0.0,0.0,0.0,0.0,0.0,0.0,0.0,0.0,0.0,0.0,0.0,0.0,0.0,0.0,0.0,0.0,0.0,0.0,0.0,0.0,0.0,0.0,0.0,0.0,0.0,0.0,0.0,0.0,0.0,0.0,0.0,0.0,0.0,0.0,0.0,0.0,0.0,0.0,0.0,0.0,0.0,0.0,0.0,0.0,0.0,0.0,0.0,0.0,0.0,0.0,0.0,0.0,0.0,0.0,0.0,0.0,0.0,0.0,0.0,0.0,0.0,0.0,0.0,0.0,0.0,0.0,0.0,0.0,0.0,0.0,0.0,0.0,0.0,0.0,0.0,0.0,0.0,0.0,0.0,0.0,0.0,0.0,0.0,0.0,0.0,0.0,0.0,0.0,0.0,0.0,0.0,0.0,0.0,0.0,0.0,0.0,0.0,0.0,0.0,0.0,0.0,0.0,0.0,0.0,0.0,0.0,0.0,0.0,0.0,0.0,0.0,0.0,0.0,0.0,0.0,0.0,0.0,0.0,0.0,0.0,0.0,0.0,0.0,0.0,0.0,0.0,0.0,0.0,0.0,0.0,0.0,0.0,0.0,0.0,0.0,0.0,0.0,0.0,0.0,0.0,0.0,0.0,0.0,0.0,0.0,0.0,0.0,0.0,0.0,0.0,0.0,0.0,0.0,0.0,0.0,0.0,0.0,0.0,0.0,0.0,0.0,0.0,0.0,0.0,0.0,0.0,0.0,0.0,0.0,0.0,0.0,0.0,0.0,0.0,0.0,0.0,0.0,0.0,0.0,0.0,0.0,0.0,0.0,0.0,0.0,0.0,0.0,0.0,0.0,0.0,0.0,0.0,0.0,0.0,0.0,0.0,0.0,0.0,0.0,0.0,0.0,0.0,0.0,0.0,0.0,0.0,0.0,0.0,0.0,0.0,0.0,0.0,0.0,0.0,0.0,0.0,0.0,0.0,0.0,0.0,0.0,0.0,0.0,0.0,0.0,0.0,0.0,0.0,0.0,0.0,0.0,0.0,0.0,0.0,0.0,0.0,0.0,0.0,0.0,0.0,0.0,0.0,0.0,0.0,0.0,0.0,0.0,0.0,0.0,0.0,0.0,0.0,0.0,0.0,0.0,0.0,0.0,0.0,0.0,0.0,0.0,0.0,0.0,0.0,0.0,0.0,0.0,0.0,0.0,0.0,0.0,0.0,0.0,0.0,0.0,0.0,0.0,0.0,0.0,0.0,0.0,0.0,0.0,0.0,0.0,0.0,0.0,0.0,0.0,0.0,0.0,0.0,0.0,0.0,0.0,0.0,0.0,0.0,0.0,0.0,0.0,0.0,0.0,0.0,0.0,0.0,0.0,0.0,0.0,0.0,0.0,0.0,0.0,0.0,0.0,0.0,0.0,0.0,0.0,0.0,0.0,0.0,0.0,0.0,0.0,0.0,0.0,0.0,0.0,0.0,0.0,0.0,0.0,0.0,0.0,0.0,0.0,0.0,0.0,0.0,0.0,0.0,0.0,0.0,0.0,0.0,0.0,0.0,0.0,0.0,0.0,0.0,0.0,0.0,0.0,0.0,0.0,0.0,0.0,0.0,0.0,0.0,0.0,0.0,0.0,0.0,0.0,0.0,0.0,0.0,0.0,0.0,0.0,0.0,0.0,0.0,0.0,0.0,0.0,0.0,0.0,0.0,0.0,0.0,0.0,0.0,0.0,0.0,0.0,0.0,0.0,0.0,0.0,0.0,0.0,0.0,0.0,0.0,0.0,0.0,0.0,0.0,0.0,0.0,0.0,0.0,0.0,0.0,0.0,0.0,0.0,0.0,0.0,0.0,0.0,0.0,0.0,0.0,0.0,0.0,0.0,0.0,0.0,0.0,0.0,0.0,0.0,0.0,0.0,0.0,0.0,0.0,0.0,0.0,0.0,0.0,0.0,0.0,0.0,0.0,0.0,0.0,0.0,0.0,0.0,0.0,0.0,0.0,0.0,0.0,0.0,0.0,0.0,0.0,0.0,0.0,0.0,0.0,0.0,0.0,0.0,0.0,0.0,0.0,0.0,0.0,0.0,0.0,0.0,0.0,0.0,0.0,0.0,0.0,0.0,0.0,0.0,0.0,0.0,0.0,0.0,0.0,0.0,0.0,0.0,0.0,0.0,0.0,0.0,0.0,0.0,0.0,0.0,0.0,0.0,0.0,0.0,0.0,0.0,0.0,0.0,0.0,0.0,0.0,0.0,0.0,0.0,0.0,0.0,0.0,0.0,0.0,0.0,0.0,0.0,0.0,0.0,0.0,0.0,0.0,0.0,0.0,0.0,0.0,0.0,0.0,0.0,0.0,0.0,0.0,0.0,0.0,0.0,0.0,0.0,0.0,0.0,0.0,0.0,0.0,0.0,0.0,0.0,0.0,0.0,0.0,0.0,0.0,0.0,0.0,0.0,0.0,0.0,0.0,0.0,0.0,0.0,0.0,0.0,0.0,0.0,0.0,0.0,0.0,0.0,0.0,0.0,0.0,0.0,0.0,0.0,0.0,0.0,0.0,0.0,0.0,0.0,0.0,0.0,0.0,0.0,0.0,0.0,0.0,0.0,0.0,0.0,0.0,0.0,0.0,0.0,0.0,0.0,0.0,0.0,0.0,0.0,0.0,0.0,0.0,0.0,0.0,0.0,0.0,0.0,0.0,0.0,0.0,0.0,0.0,0.0,0.0,0.0,0.0,0.0,0.0,0.0,0.0,0.0,0.0,0.0,0.0,0.0,0.0,0.0,0.0,0.0,0.0,0.0,0.0,0.0,0.0,0.0,0.0,0.0,0.0,0.0,0.0,0.0,0.0,0.0,0.0,0.0,0.0,0.0,0.0,0.0,0.0,0.0,0.0,0.0,0.0,0.0,0.0,0.0,0.0,0.0,0.0,0.0,0.0,0.0,0.0,0.0,0.0,0.0,0.0,0.0,0.0,0.0,0.0,0.0,0.0,0.0,0.0,0.0,0.0,0.0,0.0,0.0,0.0,0.0,0.0,0.0,0.0,0.0,0.0,0.0,0.0,0.0,0.0,0.0,0.0,0.0,0.0,0.0,0.0,0.0,0.0,0.0,0.0,0.0,0.0,0.0,0.0,0.0,0.0,0.0,0.0,0.0,0.0,0.0,0.0,0.0,0.0,0.0,0.0,0.0,0.0,0.0,0.0,0.0,0.0,0.0,0.0,0.0,0.0,0.0,0.0,0.0,0.0,0.0,0.0,0.0,0.0,0.0,0.0,0.0,0.0,0.0,0.0,0.0,0.0,0.0,0.0,0.0,0.0,0.0,0.0,0.0,0.0,0.0,0.0,0.0,0.0,0.0,0.0,0.0,0.0,0.0,0.0,0.0,0.0,0.0,0.0,0.0,0.0,0.0,0.0,0.0,0.0,0.0,0.0,0.0,0.0,0.0,0.0,0.0,0.0,0.0,0.0,0.0,0.0,0.0,0.0,0.0,0.0,0.0,0.0,0.0,0.0,0.0,0.0,0.0,0.0,0.0,0.0,0.0,0.0,0.0,0.0,0.0,0.0,0.0,0.0,0.0,0.0,0.0,0.0,0.0,0.0,0.0,0.0,0.0,0.0,0.0,0.0,0.0,0.0,0.0,0.0,0.0,0.0,0.0,0.0,0.0,0.0,0.0,0.0,0.0,0.0,0.0,0.0,0.0,0.0,0.0,0.0,0.0,0.0,0.0,0.0,0.0,0.0,0.0,0.0,0.0,0.0,0.0,0.0,0.0,0.0,0.0,0.0,0.0,0.0,0.0,0.0,0.0,0.0,0.0,0.0,0.0,0.0,0.0,0.0,0.0,0.0,0.0,0.0,0.0,0.0,0.0,0.0,0.0,0.0,0.0,0.0,0.0,0.0,0.0,0.0,0.0,0.0,0.0,0.0,-0.0437,-0.0146,-0.0079,-0.0034,0.0,0.0,0.0,0.0,0.0,0.0,0.0,0.0,0.0,0.0,0.0,0.0,0.0,0.0,0.0,0.0,0.0,0.0,0.0,0.0,0.0,0.0,0.0,0.0,0.0,0.0,0.0,0.0,0.0,0.0,0.0,0.0,0.0,0.0,0.0,0.0,0.0,0.0,0.0,0.0,0.0,0.0,0.0,0.0,0.0,0.0,0.0,0.0,0.0,0.0,0.0,0.0,0.0,0.0,0.0,0.0,0.0,0.0,0.0,0.0,0.0,0.0,0.0,0.0,0.0,0.0,0.0,0.0,0.0,0.0,0.0,0.0,0.0,0.0,0.0,0.0,0.0,0.0,0.0,0.0,0.0,0.0,0.0,0.0,0.0,0.0,0.0,0.0,0.0,0.0,0.0,0.0,0.0,0.0,0.0,0.0,0.0,0.0,0.0,0.0,0.0,0.0,0.0,0.0,0.0,0.0,0.0,0.0,0.0,0.0,0.0,0.0,0.0,0.0,0.0,0.0,0.0,0.0,0.0,0.0,0.0,0.0,0.0,0.0,0.0,0.0,0.0,0.0,0.0,0.0,0.0,0.0,0.0,0.0,0.0,0.0,0.0,0.0,0.0,0.0,0.0,0.0,0.0,0.0,0.0,0.0,0.0,0.0,0.0,0.0,0.0,0.0,0.0,0.0,0.0,0.0,0.0,0.0,0.0,0.0,0.0,0.0,0.0,0.0,0.0,0.0,0.0,0.0,0.0,0.0,0.0,0.0,0.0,0.0,0.0,0.0,0.0,0.0,0.0,0.0,0.0,0.0,0.0,0.0,0.0,0.0,0.0,0.0,0.0,0.0,0.0,0.0,0.0,0.0,0.0,0.0,0.0,0.0,0.0,0.0,0.0,0.0,0.0,0.0,0.0,0.0,0.0,0.0,0.0,0.0,0.0,0.0,0.0,0.0,0.0,0.0,0.0,0.0,0.0,0.0,0.0,0.0,0.0,0.0,0.0,0.0,-0.0279,0.0,0.0,0.0,0.0,0.0,0.0,0.0,0.0,0.0,0.0,0.0,0.0,0.0,0.0,0.0,0.0,0.0,0.0,0.0,0.0,0.0,0.0,0.0,0.0,0.0,0.0,0.0,0.0,0.0,0.0,0.0,0.0,0.0,0.0,0.0,0.0,0.0,0.0,0.0,0.0,0.0,0.0,0.0,0.0,0.0,0.0,0.0,0.0,0.0,0.0,0.0,0.0,0.0,0.0,0.0,0.0,0.0,0.0,0.0,0.0,0.0,0.0,0.0,0.0,0.0,0.0,0.0,0.0,0.0,0.0,0.0,0.0,0.0,0.0,0.0,0.0,0.0,0.0,0.0,0.0,0.0,0.0,0.0,0.0,0.0,0.0,0.0,0.0,0.0,0.0,0.0,0.0,0.0,0.0,0.0,0.0,0.0,0.0,0.0,0.0,0.0,0.0,0.0,0.0,0.0,0.0,0.0,0.0,0.0,0.0,0.0,0.0,0.0,0.0,-0.0265,0.0,0.0,0.0,0.0,0.0,0.0,0.0,0.0,0.0,0.0,0.0,0.0,0.0,0.0,0.0,0.0,0.0,0.0,0.0,0.0,0.0,0.0,0.0,0.0,0.0,0.0,0.0,0.0,0.0,0.0,0.0,0.0,0.0,0.0,0.0,0.0,0.0,0.0,0.0,0.0,0.0,0.0,0.0,0.0,0.0,0.0,0.0,0.0,0.0,0.0,0.0,0.0,0.0,0.0,0.0,0.0,0.0,0.0,0.0,0.0,0.0,0.0,0.0,0.0,0.0,0.0,0.0,0.0,0.0,0.0,0.0,0.0,0.0,0.0,0.0,0.0,0.0,0.0,0.0,0.0,0.0,0.0,0.0,0.0,0.0,0.0,0.0,0.0,0.0,0.0,0.0,0.0,0.0,0.0,0.0,0.0,0.0,0.0,0.0,0.0,0.0,0.0,0.0,0.0,0.0,0.0,0.0,0.0,0.0,0.0,0.0,0.0,0.0,-0.0593,0.0,-0.0092,-0.0065,-0.0045,-0.0034,0.0,0.0,0.0,0.0,0.0,0.0,0.0,0.0,0.0,0.0,0.0,0.0,0.0,0.0,0.0,0.0,0.0,0.0,0.0,0.0,0.0,0.0,0.0,0.0,0.0,0.0,0.0,0.0,0.0,0.0,0.0,0.0,0.0,0.0,0.0,0.0,0.0,0.0,0.0,0.0,0.0,0.0,0.0,0.0,0.0,0.0,0.0,0.0,0.0,0.0,0.0,0.0,0.0,0.0,0.0,0.0,0.0,0.0,0.0,0.0,0.0,0.0,0.0,0.0,0.0,0.0,0.0,0.0,0.0,0.0,0.0,0.0,0.0,0.0,0.0,0.0,0.0,0.0,0.0,0.0,0.0,0.0,0.0,0.0,0.0,0.0,0.0,0.0,0.0,0.0,0.0,0.0,0.0,0.0,0.0,0.0,0.0,0.0,0.0,0.0,0.0,0.0,0.0,0.0,0.0,0.0,0.0,0.0,0.0,-0.0669,-0.043,-0.0299,-0.0213,-0.018,0.0,0.0,0.0,0.0,0.0,0.0,0.0,0.0,0.0,0.0,0.0,0.0,0.0,0.0,0.0,0.0,0.0,0.0,0.0,0.0,0.0,0.0,0.0,0.0,0.0,0.0,0.0,0.0,0.0,0.0,0.0,0.0,0.0,0.0,0.0,0.0,0.0,0.0,0.0,0.0,0.0,0.0,0.0,0.0,0.0,0.0,0.0,0.0,0.0,0.0,0.0,0.0,0.0,0.0,0.0,0.0,0.0,0.0,0.0,0.0,0.0,0.0,0.0,0.0,0.0,0.0,0.0,0.0,0.0,0.0,0.0,0.0,0.0,0.0,0.0,0.0,0.0,0.0,0.0,0.0,0.0,0.0,0.0,0.0,0.0,0.0,0.0,0.0,0.0,0.0,0.0,0.0,0.0,0.0,0.0,0.0,0.0,0.0,0.0,0.0,0.0,0.0,0.0,0.0,0.0,0.0,0.0,0.0,0.0,-0.1176,-0.0897,-0.0691,-0.0556,-0.0403,-0.0291,0.0,0.0,0.0,0.0,0.0,0.0,0.0,0.0,0.0,0.0,0.0,0.0,0.0,0.0,0.0,0.0,0.0,0.0,0.0,0.0,0.0,0.0,0.0,0.0,0.0,0.0,0.0,0.0,0.0,0.0,0.0,0.0,0.0,0.0,0.0,0.0,0.0,0.0,0.0,0.0,0.0,0.0,0.0,0.0,0.0,0.0,0.0,0.0,0.0,0.0,0.0,0.0,0.0,0.0,0.0,0.0,0.0,0.0,0.0,0.0,0.0,0.0,0.0,0.0,0.0,0.0,0.0,0.0,0.0,0.0,0.0,0.0,0.0,0.0,0.0,0.0,0.0,0.0,0.0,0.0,0.0,0.0,0.0,0.0,0.0,0.0,0.0,0.0,0.0,0.0,0.0,0.0,0.0,0.0,0.0,0.0,0.0,0.0,0.0,0.0,0.0,0.0,0.0,0.0,0.0,0.0,0.0,0.0,0.0,-0.1292,0.0,-0.0927,0.0,-0.0624,-0.048,0.0,0.0,0.0,0.0,0.0,0.0,0.0,0.0,0.0,0.0,0.0,0.0,0.0,0.0,0.0,0.0,0.0,0.0,0.0,0.0,0.0,0.0,0.0,0.0,0.0,0.0,0.0,0.0,0.0,0.0,0.0,0.0,0.0,0.0,0.0,0.0,0.0,0.0,0.0,0.0,0.0,0.0,0.0,0.0,0.0,0.0,0.0,0.0,0.0,0.0,0.0,0.0,0.0,0.0,0.0,0.0,0.0,0.0,0.0,0.0,0.0,0.0,0.0,0.0,0.0,0.0,0.0,0.0,0.0,0.0,0.0,0.0,0.0,0.0,0.0,0.0,0.0,0.0,0.0,0.0,0.0,0.0,0.0,0.0,0.0,0.0,0.0,0.0,0.0,0.0,0.0,0.0,0.0,0.0,0.0,0.0,0.0,0.0,0.0,0.0,0.0,0.0,0.0,0.0,0.0,0.0,0.0,0.0,-0.145,-0.1324,-0.1239,-0.1188,-0.1101,-0.0903,-0.0738,0.0,0.0,0.0,0.0,0.0,0.0,0.0,0.0,0.0,0.0,0.0,0.0,0.0,0.0,0.0,0.0,0.0,0.0,0.0,0.0,0.0,0.0,0.0,0.0,0.0,0.0,0.0,0.0,0.0,0.0,0.0,0.0,0.0,0.0,0.0,0.0,0.0,0.0,0.0,0.0,0.0,0.0,0.0,0.0,0.0,0.0,0.0,0.0,0.0,0.0,0.0,0.0,0.0,0.0,0.0,0.0,0.0,0.0,0.0,0.0,0.0,0.0,0.0,0.0,0.0,0.0,0.0,0.0,0.0,0.0,0.0,0.0,0.0,0.0,0.0,0.0,0.0,0.0,0.0,0.0,0.0,0.0,0.0,0.0,0.0,0.0,0.0,0.0,0.0,0.0,0.0,0.0,0.0,0.0,0.0,0.0,0.0,0.0,0.0,0.0,0.0,0.0,0.0,0.0,0.0,0.0,0.0,0.0,0.0,-0.1659,-0.1717,-0.1648,-0.1457,-0.1241,-0.1096,0.0,0.0,0.0,0.0,0.0,0.0,0.0,0.0,0.0,0.0,0.0,0.0,0.0,0.0,0.0,0.0,0.0,0.0,0.0,0.0,0.0,0.0,0.0,0.0,0.0,0.0,0.0,0.0,0.0,0.0,0.0,0.0,0.0,0.0,0.0,0.0,0.0,0.0,0.0,0.0,0.0,0.0,0.0,0.0,0.0,0.0,0.0,0.0,0.0,0.0,0.0,0.0,0.0,0.0,0.0,0.0,0.0,0.0,0.0,0.0,0.0,0.0,0.0,0.0,0.0,0.0,0.0,0.0,0.0,0.0,0.0,0.0,0.0,0.0,0.0,0.0,0.0,0.0,0.0,0.0,0.0,0.0,0.0,0.0,0.0,0.0,0.0,0.0,0.0,0.0,0.0,0.0,0.0,0.0,0.0,0.0,0.0,0.0,0.0,0.0,0.0,0.0,0.0,0.0,0.0,0.0,0.0,0.0,0.0,-0.2327,-0.2301,-0.213,-0.1809,-0.1556,-0.1384,-0.1277,0.0,0.0,0.0,0.0,0.0,0.0,0.0,0.0,0.0,0.0,0.0,0.0,0.0,0.0,0.0,0.0,0.0,0.0,0.0,0.0,0.0,0.0,0.0,0.0,0.0,0.0,0.0,0.0,0.0,0.0,0.0,0.0,0.0,0.0,0.0,0.0,0.0,0.0,0.0,0.0,0.0,0.0,0.0,0.0,0.0,0.0,0.0,0.0,0.0,0.0,0.0,0.0,0.0,0.0,0.0,0.0,0.0,0.0,0.0,0.0,0.0,0.0,0.0,0.0,0.0,0.0,0.0,0.0,0.0,0.0,0.0,0.0,0.0,0.0,0.0,0.0,0.0,0.0,0.0,0.0,0.0,0.0,0.0,0.0,0.0,0.0,0.0,0.0,0.0,0.0,0.0,0.0,0.0,0.0,0.0,0.0,0.0,0.0,0.0,0.0,0.0,0.0,0.0,0.0,0.0,0.0,0.0,0.0,-0.3262,-0.3043,-0.2681,-0.2166,-0.1887,-0.1633,0.0,0.0,0.0,0.0,0.0,0.0,0.0,0.0,0.0,0.0,0.0,0.0,0.0,0.0,0.0,0.0,0.0,0.0,0.0,0.0,0.0,0.0,0.0,0.0,0.0,0.0,0.0,0.0,0.0,0.0,0.0,0.0,0.0,0.0,0.0,0.0,0.0,0.0,0.0,0.0,0.0,0.0,0.0,0.0,0.0,0.0,0.0,0.0,0.0,0.0,0.0,0.0,0.0,0.0,0.0,0.0,0.0,0.0,0.0,0.0,0.0,0.0,0.0,0.0,0.0,0.0,0.0,0.0,0.0,0.0,0.0,0.0,0.0,0.0,0.0,0.0,0.0,0.0,0.0,0.0,0.0,0.0,0.0,0.0,0.0,0.0,0.0,0.0,0.0,0.0,0.0,0.0,0.0,0.0,0.0,0.0,0.0,0.0,0.0,0.0,0.0,0.0,0.0,0.0,0.0,0.0,0.0,0.0,0.0,-0.4083,-0.4263,-0.3848,-0.2797,-0.2314,-0.2002,0.0,0.0,0.0,0.0,0.0,0.0,0.0,0.0,0.0,0.0,0.0,0.0,0.0,0.0,0.0,0.0,0.0,0.0,0.0,0.0,0.0,0.0,0.0,0.0,0.0,0.0,0.0,0.0,0.0,0.0,0.0,0.0,0.0,0.0,0.0,0.0,0.0,0.0,0.0,0.0,0.0,0.0,0.0,0.0,0.0,0.0,0.0,0.0,0.0,0.0,0.0,0.0,0.0,0.0,0.0,0.0,0.0,0.0,0.0,0.0,0.0,0.0,0.0,0.0,0.0,0.0,0.0,0.0,0.0,0.0,0.0,0.0,0.0,0.0,0.0,0.0,0.0,0.0,0.0,0.0,0.0,0.0,0.0,0.0,0.0,0.0,0.0,0.0,0.0,0.0,0.0,0.0,0.0,0.0,0.0,0.0,0.0,0.0,0.0,0.0,0.0,0.0,0.0,0.0,0.0,0.0,0.0,0.0,-0.4543,-0.4828,-0.5226,-0.4923,-0.3839,-0.293,-0.2311,0.0,0.0,0.0,0.0,0.0,0.0,0.0,0.0,0.0,0.0,0.0,0.0,0.0,0.0,0.0,0.0,0.0,0.0,0.0,0.0,0.0,0.0,0.0,0.0,0.0,0.0,0.0,0.0,0.0,0.0,0.0,0.0,0.0,0.0,0.0,0.0,0.0,0.0,0.0,0.0,0.0,0.0,0.0,0.0,0.0,0.0,0.0,0.0,0.0,0.0,0.0,0.0,0.0,0.0,0.0,0.0,0.0,0.0,0.0,0.0,0.0,0.0,0.0,0.0,0.0,0.0,0.0,0.0,0.0,0.0,0.0,0.0,0.0,0.0,0.0,0.0,0.0,0.0,0.0,0.0,0.0,0.0,0.0,0.0,0.0,0.0,0.0,0.0,0.0,0.0,0.0,0.0,0.0,0.0,0.0,0.0,0.0,0.0,0.0,0.0,0.0,0.0,0.0,0.0,0.0,0.0,0.0,0.0,-0.508,-0.5477,-0.5967,-0.5826,-0.4996,-0.3637,-0.2663,0.0,0.0,0.0,0.0,0.0,0.0,0.0,0.0,0.0,0.0,0.0,0.0,0.0,0.0,0.0,0.0,0.0,0.0,0.0,0.0,0.0,0.0,0.0,0.0,0.0,0.0,0.0,0.0,0.0,0.0,0.0,0.0,0.0,0.0,0.0,0.0,0.0,0.0,0.0,0.0,0.0,0.0,0.0,0.0,0.0,0.0,0.0,0.0,0.0,0.0,0.0,0.0,0.0,0.0,0.0,0.0,0.0,0.0,0.0,0.0,0.0,0.0,0.0,0.0,0.0,0.0,0.0,0.0,0.0,0.0,0.0,0.0,0.0,0.0,0.0,0.0,0.0,0.0,0.0,0.0,0.0,0.0,0.0,0.0,0.0,0.0,0.0,0.0,0.0,0.0,0.0,0.0,0.0,0.0,0.0,0.0,0.0,0.0,0.0,0.0,0.0,0.0,0.0,0.0,0.0,0.0,0.0,0.0,-0.5603,-0.609,-0.6325,-0.613,-0.5536,-0.4266,-0.3231,0.0,0.0,0.0,0.0,0.0,0.0,0.0,0.0,0.0,0.0,0.0,0.0,0.0,0.0,0.0,0.0,0.0,0.0,0.0,0.0,0.0,0.0,0.0,0.0,0.0,0.0,0.0,0.0,0.0,0.0,0.0,0.0,0.0,0.0,0.0,0.0,0.0,0.0,0.0,0.0,0.0,0.0,0.0,0.0,0.0,0.0,0.0,0.0,0.3317,0.0,0.0,0.0,0.0,0.0,0.0,0.0,0.0,0.0,0.0,0.0,0.0,0.0,0.0,0.0,0.0,0.0,0.0,0.0,0.0,0.0,0.0,0.0,0.0,0.0,0.0,0.0,0.0,0.0,0.0,0.0,0.0,0.0,0.0,0.0,0.0,0.0,0.0,0.0,0.0,0.0,0.0,0.0,0.0,0.0,0.0,0.0,0.0,0.0,0.0,0.0,0.0,0.0,0.0,0.0,0.0,0.0,0.0,0.0,-0.601,-0.6422,-0.6782,-0.6647,-0.6003,-0.5203,-0.4254,0.0,0.0,0.0,0.0,0.0,0.0,0.0,0.0,0.0,0.0,0.0,0.0,0.0,0.0,0.0,0.0,0.0,0.0,0.0,0.0,0.0,0.0,0.0,0.0,0.0,0.0,0.0,0.0,0.0,0.0,0.0,0.0,0.0,0.0,0.0,0.0,0.0,0.0,0.0,0.0,0.0,0.0,0.0,0.0,0.0,0.0,0.0,0.0,0.0,0.0,0.0,0.0,0.0,0.0,0.0,0.0,0.0,0.0,0.0,0.0,0.0,0.0,0.0,0.0,0.0,0.0,0.0,0.0,0.0,0.0,0.0,0.0,0.0,0.0,0.0,0.0,0.0,0.0,0.0,0.0,0.0,0.0,0.0,0.0,0.0,0.0,0.0,0.0,0.0,0.0,0.0,0.0,0.0,0.0,0.0,0.0,0.0,0.0,0.0,0.0,0.0,0.0,0.0,0.0,0.0,0.0,0.0,-0.5961,-0.6568,-0.6807,-0.7341,-0.7253,-0.6497,-0.6171,-0.5351,-0.3892,0.0,0.0,0.0,0.0,0.0,0.0,0.0,0.0,0.0,0.0,0.0,0.0,0.0,0.0,0.0,0.0,0.0,0.0,0.0,0.0,0.0,0.0,0.0,0.0,0.0,0.0,0.0,0.0,0.0,0.0,0.0,0.0,0.0,0.0,0.0,0.0,0.0,0.0,0.2608,0.262,0.0,0.0,0.0,0.0,0.0,0.0,0.0,0.0,0.2939,0.0,0.0,0.0,0.0,0.0,0.0,0.0,0.0,0.0,0.0,0.0,0.0,0.0,0.0,0.0,0.0,0.0,0.0,0.0,0.0,0.0,0.0,0.0,0.0,0.0,0.0,0.0,0.0,0.0,0.0,0.0,0.0,0.0,0.0,0.0,0.0,0.0,0.0,0.0,0.0,0.0,0.0,0.0,0.0,0.0,0.0,0.0,0.0,0.0,0.0,0.0,0.0,0.0,0.0,0.0,0.0,-0.6053,-0.7034,-0.7614,-0.7773,-0.8028,-0.7882,-0.7335,-0.6817,-0.6064,-0.4974,0.0,0.0,0.0,0.0,0.0,0.0,0.0,0.0,0.0,0.0,0.0,0.0,0.0,0.0,0.0,0.0,0.0,0.0,0.0,0.0,0.0,0.0,0.0,0.0,0.0,0.0,0.0,0.0,0.0,0.0,0.0,0.0,0.0,0.0,0.0,0.0,0.0,0.0,0.0,0.2731,0.2736,0.0,0.0,0.0,0.0,0.0,0.0,0.0,0.0,0.3298,0.0,0.0,0.0,0.0,0.0,0.0,0.0,0.0,0.0,0.0,0.0,0.0,0.0,0.0,0.0,0.0,0.0,0.0,0.0,0.0,0.0,0.0,0.0,0.0,0.0,0.0,0.0,0.0,0.0,0.0,0.0,0.0,0.0,0.0,0.0,0.0,0.0,0.0,0.0,0.0,0.0,0.0,0.0,0.0,0.0,0.0,0.0,0.0,0.0,0.0,0.0,0.0,0.0,0.0,0.0,-0.7088,-0.831,-0.899,-0.909,-0.9326,-0.9093,-0.8348,-0.754,-0.6588,0.0,0.0,0.0,0.0,0.0,0.0,0.0,0.0,0.0,0.0,0.0,0.0,0.0,0.0,0.0,0.0,0.0,0.0,0.0,0.0,0.0,0.0,0.0,0.0,0.0,0.0,0.0,0.0,0.0,0.0,0.0,0.0,0.0,0.0,0.0,0.0,0.0,0.0,0.0,0.0,0.2804,0.2801,0.3073,0.0,0.0,0.0,0.0,0.0,0.0,0.3088,0.3137,0.0,0.0,0.0,0.0,0.0,0.0,0.0,0.0,0.0,0.0,0.0,0.0,0.0,0.0,0.0,0.0,0.0,0.0,0.0,0.0,0.0,0.0,0.0,0.0,0.0,0.0,0.0,0.0,0.0,0.0,0.0,0.0,0.0,0.0,0.0,0.0,0.0,0.0,0.0,0.0,0.0,0.0,0.0,0.0,0.0,0.0,0.0,0.0,0.0,0.0,0.0,0.0,0.0,0.0,0.0,-0.8015,-0.9469,-1.0248,-1.0344,-1.0614,-1.0302,-0.934,-0.8325,-0.7165,0.0,0.0,0.0,0.0,0.0,0.0,0.0,0.0,0.0,0.0,0.0,0.0,0.0,0.0,0.0,0.0,0.0,0.0,0.0,0.0,0.0,0.0,0.0,0.0,0.0,0.0,0.0,0.0,0.0,0.0,0.0,0.0,0.0,0.0,0.0,0.0,0.0,0.0,0.0,0.0,0.0,0.2945,0.3247,0.3267,0.0,0.0,0.0,0.0,0.3076,0.3042,0.0,0.0,0.0,0.0,0.0,0.0,0.0,0.0,0.0,0.0,0.0,0.0,0.0,0.0,0.0,0.0,0.0,0.0,0.0,0.0,0.0,0.0,0.0,0.0,0.0,0.0,0.0,0.0,0.0,0.0,0.0,0.0,0.0,0.0,0.0,0.0,0.0,0.0,0.0,0.0,0.0,0.0,0.0,0.0,0.0,0.0,0.0,0.0,0.0,0.0,0.0,0.0,0.0,0.0,0.0,0.0,-0.869,-1.0197,-1.1013,-1.1182,-1.1482,-1.1163,-1.0108,-0.9209,-0.7983,0.0,0.0,0.0,0.0,0.0,0.0,0.0,0.0,0.0,0.0,0.0,0.0,0.0,0.0,0.0,0.0,0.0,0.0,0.0,0.0,0.0,0.0,0.0,0.0,0.0,0.0,0.0,0.0,0.0,0.0,0.0,0.0,0.0,0.0,0.0,0.0,0.0,0.0,0.0,0.0,0.0,0.325,0.3301,0.3551,0.3633,0.0,0.0,0.0,0.3605,0.351,0.0,0.0,0.0,0.0,0.0,0.0,0.0,0.0,0.0,0.0,0.0,0.0,0.0,0.0,0.0,0.0,0.0,0.0,0.0,0.0,0.0,0.0,0.0,0.0,0.0,0.0,0.0,0.0,0.0,0.0,0.0,0.0,0.0,0.0,0.0,0.0,0.0,0.0,0.0,0.0,0.0,0.0,0.0,0.0,0.0,0.0,0.0,0.0,0.0,0.0,0.0,0.0,0.0,0.0,0.0,-0.8129,-0.9639,-1.1267,-1.2296,-1.2658,-1.2986,-1.2581,-1.1428,-1.004,-0.8492,0.0,0.0,0.0,0.0,0.0,0.0,0.0,0.0,0.0,0.0,0.0,0.0,0.0,0.0,0.0,0.0,0.0,0.0,0.0,0.0,0.0,0.0,0.0,0.0,0.0,0.0,0.0,0.0,0.0,0.0,0.0,0.0,0.0,0.0,0.0,0.0,0.0,0.0,0.0,0.0,0.0,0.0,0.3829,0.3889,0.0,0.0,0.0,0.3946,0.4017,0.0,0.0,0.0,0.0,0.0,0.0,0.0,0.0,0.0,0.0,0.0,0.0,0.0,0.0,0.0,0.0,0.0,0.0,0.0,0.0,0.0,0.0,0.0,0.0,0.0,0.0,0.0,0.0,0.0,0.0,0.0,0.0,0.0,0.0,0.0,0.0,0.0,0.0,0.0,0.0,0.0,0.0,0.0,0.0,0.0,0.0,0.0,0.0,0.0,0.0,0.0,0.0,0.0,0.0,0.0,0.0,0.0,-1.0293,-1.2025,-1.3165,-1.3747,-1.4143,-1.3718,-1.2464,-1.0799,0.0,0.0,0.0,0.0,0.0,0.0,0.0,0.0,0.0,0.0,0.0,0.0,0.0,0.0,0.0,0.0,0.0,0.0,0.0,0.0,0.0,0.0,0.0,0.0,0.0,0.0,0.0,0.1036,0.0,0.0,0.0,0.0,0.0,0.0,0.0,0.0,0.0,0.0,0.0,0.0,0.0,0.0,0.3556,0.4061,0.4053,0.4127,0.0,0.0,0.4195,0.4312,0.3936,0.3642,0.0,0.0,0.0,0.0,0.0,0.0,0.0,0.0,0.0,0.0,0.0,0.0,0.0,0.0,0.0,0.0,0.0,0.0,0.0,0.0,0.0,0.0,0.0,0.0,0.0,0.0,0.0,0.0,0.0,0.0,0.0,0.0,0.0,0.0,0.0,0.0,0.0,0.0,0.0,0.0,0.0,0.0,0.0,0.0,0.0,0.0,0.0,0.0,0.0,0.0,0.0,0.0,0.0,0.0,0.0,-1.0293,-1.2025,-1.3216,-1.388,-1.4401,-1.4075,-1.2885,-1.1488,-0.9867,0.0,0.0,0.0,0.0,0.0,0.0,0.0,0.0,0.0,0.0,0.0,0.0,0.0,0.0,0.0,0.0,0.0,0.0,0.0,0.0,0.0,0.0,0.0,0.0,0.0,0.0,0.0,0.0,0.0,0.0,0.0,0.0,0.0,0.0,0.0,0.0,0.0,0.0,0.0,0.0,0.0,0.3173,0.3581,0.3858,0.4053,0.0,0.0,0.4522,0.4392,0.4013,0.3758,0.3938,0.0,0.0,0.0,0.0,0.0,0.0,0.0,0.0,0.0,0.0,0.0,0.0,0.0,0.0,0.0,0.0,0.0,0.0,0.0,0.0,0.0,0.0,0.0,0.0,0.0,0.0,0.0,0.0,0.0,0.0,0.0,0.0,0.0,0.0,0.0,0.0,0.0,0.0,0.0,0.0,0.0,0.0,0.0,0.0,0.0,0.0,0.0,0.0,0.0,0.0,0.0,0.0,0.0,-0.8992,-1.0654,-1.2393,-1.3393,-1.3682,-1.4359,-1.4203,-1.3043,-1.1821,-1.0383,0.0,0.0,0.0,0.0,0.0,0.0,0.0,0.0,0.0,0.0,0.0,0.0,0.0,0.0,0.0,0.0,0.0,0.0,0.0,0.0,0.0,0.0,0.0,0.0,0.0,0.0,0.0,0.0,0.0857,0.1184,0.1694,0.0,0.0,0.0,0.0,0.0,0.0,0.0,0.0,0.0,0.0,0.2483,0.3148,0.3432,0.0,0.0,0.4548,0.4592,0.4361,0.4017,0.3724,0.3649,0.3469,0.0,0.0,0.0,0.0,0.0,0.0,0.0,0.0,0.0,0.0,0.0,0.0,0.0,0.0,0.0,0.0,0.0,0.0,0.0,0.0,0.0,0.0,0.0,0.0,0.0,0.0,0.0,0.0,0.0,0.0,0.0,0.0,0.0,0.0,0.0,0.0,0.0,0.0,0.0,0.0,0.0,0.0,0.0,0.0,0.0,0.0,0.0,0.0,0.0,0.0,0.0,0.0,-0.933,-1.1115,-1.2686,-1.3574,-1.3665,-1.4404,-1.4293,-1.3192,-1.2205,-1.0958,0.0,0.0,0.0,0.0,0.0,0.0,0.0,0.0,0.0,0.0,0.0,0.0,0.0,0.0,0.0,0.0,0.0,0.0,0.0,0.0,0.0,0.0,0.0,0.0,0.0,0.0,0.0,0.0,0.0704,0.0971,0.1301,0.0,0.0,0.0,0.0,0.0,0.0,0.0,0.0,0.0,0.0,0.1883,0.2563,0.2907,0.3344,0.3976,0.4289,0.4339,0.4125,0.3843,0.3611,0.3357,0.0,0.0,0.0,0.0,0.0,0.0,0.0,0.0,0.0,0.0,0.0,0.0,0.0,0.0,0.0,0.0,0.0,0.0,0.0,0.0,0.0,0.0,0.0,0.0,0.0,0.0,0.0,0.0,0.0,0.0,-0.5939,0.0,0.0,0.0,0.0,0.0,0.0,0.0,0.0,0.0,0.0,0.0,0.0,0.0,0.0,0.0,0.0,0.0,0.0,0.0,0.0,0.0,0.0,0.0,-1.1652,-1.2895,-1.3721,-1.4075,-1.4561,-1.4321,-1.334,-1.2694,-1.1645,-1.0092,0.0,0.0,0.0,0.0,0.0,0.0,0.0,0.0,0.0,0.0,0.0,0.0,0.0,0.0,0.0,0.0,0.0,0.0,0.0,0.0,0.0,0.0,0.0,0.0,0.0,0.0,0.0204,0.0505,0.0699,0.0,0.0,0.0,0.0,0.0,0.0,0.0,0.0,0.0,0.0,0.1124,0.136,0.1757,0.2277,0.2709,0.3063,0.352,0.3758,0.3644,0.3514,0.335,0.0,0.0,0.0,0.0,0.0,0.0,0.0,0.0,0.0,0.0,0.0,0.0,0.0,0.0,0.0,0.0,0.0,0.0,0.0,0.0,0.0,0.0,0.0,0.0,0.0,0.0,0.0,-1.0947,-1.0139,0.0,0.0,0.0,0.0,0.0,0.0,0.0,0.0,0.0,0.0,0.0,-1.453,-1.4236,0.0,0.0,0.0,0.0,0.0,0.0,0.0,0.0,0.0,0.0,0.0,0.0,-1.044,-1.232,-1.3667,-1.4277,-1.4124,-1.4561,-1.4484,-1.3856,-1.3378,-1.213,-1.0025,0.0,0.0,0.0,0.0,0.0,0.0,0.0,0.0,0.0,0.0,0.0,0.0,0.0,0.0,0.0,0.0,0.0,0.0,0.0,0.0,0.0,0.0,0.0,0.0,0.0,-0.005,0.0,0.0,0.0,0.0,0.0,0.0,0.0,0.0,0.0,0.0,0.0,-0.0139,0.0038,0.0263,0.0575,0.1008,0.1373,0.1735,0.0,0.0,0.0,0.0,0.0,0.0,0.0,0.0,0.0,0.0,0.0,0.0,0.0,0.0,0.3987,0.3804,0.3734,0.3733,0.376,0.0,0.0,0.0,0.0,0.0,0.0,0.0,0.0,0.0,0.0,0.0,0.0,0.0,0.0,-1.42,0.0,-1.2408,0.0,0.0,0.0,0.0,0.0,0.0,0.0,0.0,-1.7653,-1.8313,-1.8165,-1.788,-1.7719,0.0,-1.7181,-1.57,0.0,0.0,0.0,0.0,0.0,0.0,0.0,0.0,-1.1922,-1.3665,-1.4949,-1.5359,-1.4867,-1.5087,-1.4903,-1.4214,-1.3558,-1.2382,-1.0662,-0.9049,-0.7487,0.0,0.0,0.0,0.0,0.0,0.0,0.0,0.0,0.0,0.0,0.0,0.0,0.0,0.0,0.0,0.0,0.0,0.0,0.0,0.0,0.0,0.0,0.0,-0.0356,0.0,0.0,0.0,0.0,0.0,0.0,0.0,0.0,0.0,-0.0737,-0.0826,-0.0886,-0.0734,-0.0478,-0.0189,0.0133,0.0,0.0,0.0,0.0,0.0,0.0,0.0,0.2689,0.2534,0.2477,0.2556,0.2804,0.3175,0.3501,0.3816,0.0,0.0,0.3921,0.3858,0.3813,0.3841,0.3655,0.3476,0.3532,0.3362,0.3206,0.0,0.0,0.0,0.0,0.0,0.0,0.0,0.0,-1.7865,-1.7024,0.0,-1.4859,0.0,0.0,0.0,0.0,0.0,0.0,0.0,0.0,-2.1253,-2.1994,-2.147,-2.1601,-2.1482,-2.1018,-2.0641,-2.0358,-2.0076,-1.6179,0.0,0.0,0.0,0.0,0.0,0.0,-1.3914,-1.5614,-1.6666,-1.6919,-1.6311,-1.6146,-1.555,-1.4453,-1.3373,-1.2561,-1.1944,-1.0449,-0.886,-0.7339,-0.6382,0.0,0.0,0.0,0.0,0.0,0.0,0.0,0.0,0.0,0.0,0.0,0.0,0.0,0.0,0.0,0.0,0.0,0.0,0.0,0.0,-0.0623,0.0,0.0,0.0,0.0,0.0,0.0,0.0,0.0,0.0,0.0,-0.1637,-0.1496,-0.1415,-0.139,0.0,0.0,0.0,0.0,-0.0285,-0.0034,0.0472,0.0922,0.128,0.1909,0.2279,0.2015,0.0,0.0,0.2598,0.2761,0.3003,0.3454,0.337,0.341,0.3826,0.3818,0.3789,0.3763,0.3563,0.3445,0.354,0.335,0.3206,-2.4541,0.0,0.0,0.0,0.0,-2.0918,-2.1918,-2.2857,-2.2334,-2.1468,-2.0351,-1.9284,0.0,0.0,0.0,0.0,0.0,0.0,-2.0365,-2.2322,-2.3998,-2.4731,-2.4664,-2.4606,-2.4439,-2.4181,-2.3751,-2.3226,-2.2486,-2.13,-1.8853,-1.5337,0.0,0.0,0.0,0.0,-1.5475,-1.7,-1.8496,-1.8849,-1.8073,-1.7735,-1.6761,-1.5163,-1.4521,-1.398,-1.3481,-1.2063,-1.0613,-0.9179,-0.7853,0.0,0.0,0.0,0.0,0.0,0.0,0.0,0.0,0.0,0.0,0.0,0.0,0.0,0.0,0.0,0.0,0.0,0.0,0.0,-0.1381,-0.1623,-0.1779,0.0,0.0,0.0,0.0,0.0,0.0,0.0,0.0,0.0,-0.3718,-0.3083,-0.26,0.0,0.0,-0.2472,-0.2438,-0.2444,-0.2268,-0.1811,0.0,0.0,0.0,0.0837,0.1481,0.151,0.1584,0.1601,0.1568,0.1827,0.2171,0.253,0.2558,0.2567,0.2711,0.3123,0.3387,0.3394,0.3318,0.3268,0.3282,0.3178,0.3081,-2.9401,-2.5875,-2.4482,-2.3947,-2.4121,-2.4966,-2.5882,-2.6753,-2.6201,-2.5448,-2.4544,-2.347,-2.2074,-2.0451,-1.9685,0.0,0.0,0.0,-2.3455,-2.4793,-2.6082,-2.6739,-2.6822,-2.6774,-2.6632,-2.6537,-2.6274,-2.5862,-2.5253,-2.4828,-2.3179,-2.0294,0.0,0.0,-1.6508,-1.6751,-1.7608,-1.9105,-2.0396,-2.0728,-2.0101,-1.9104,-1.7695,-1.5959,-1.525,-1.4645,-1.4114,-1.2778,-1.1468,-1.0235,-0.8967,-0.7662,0.0,0.0,0.0,0.0,0.0,0.0,0.0,0.0,0.0,0.0,0.0,-0.1843,-0.1915,0.0,0.0,0.0,-0.2001,-0.2208,-0.2524,-0.2703,0.0,0.0,0.0,0.0,0.0,0.0,0.0,-0.4242,-0.463,-0.5008,-0.5466,-0.53,-0.48,-0.3943,-0.382,-0.378,-0.3717,0.0,-0.3628,-0.3147,-0.2641,-0.2072,-0.1292,-0.0257,0.0444,0.0531,0.0617,0.0653,0.0706,0.1027,0.1437,0.1815,0.1888,0.1829,0.1856,0.2216,0.2558,0.2699,0.2678,0.2658,0.2711,0.2664,0.2634,-3.2943,-3.219,-2.9679,-2.826,-2.777,-2.8725,-2.9465,-2.9993,-2.9428,-2.885,-2.8285,-2.7205,-2.5871,-2.4268,-2.3238,0.0,-2.3634,-2.5209,-2.6239,-2.6864,-2.7883,-2.8348,-2.831,-2.8298,-2.8247,-2.8172,-2.8172,-2.8122,-2.7922,-2.7055,-2.6285,-2.5498,-2.1246,-1.9064,-1.9055,-1.9289,-2.014,-2.1572,-2.2365,-2.2586,-2.2201,-2.0275,-1.8447,-1.6799,-1.5734,-1.4849,-1.4121,-1.2856,-1.1708,-1.0713,-0.978,-0.8678,-0.7357,0.0,0.0,0.0,0.0,0.0,0.0,0.0,0.0,0.0,0.0,0.0,0.0,0.0,0.0,0.0,-0.3139,0.0,-0.377,-0.3836,0.0,0.0,0.0,-0.4299,-0.4677,-0.5115,-0.5459,-0.5657,0.0,0.0,-0.6981,0.0,-0.7629,-0.5565,-0.5206,-0.5059,-0.4871,-0.4833,-0.4656,-0.4252,-0.3658,-0.3083,-0.2542,-0.1627,-0.0963,-0.0942,-0.0696,-0.0522,-0.0153,0.029,0.0749,0.1251,0.1261,0.1193,0.1184,0.1202,0.1333,0.1739,0.1818,0.1794,0.1914,0.1961,0.2011,-3.4593,-3.4073,-3.342,-3.234,-3.1072,-3.1323,-3.175,-3.224,-3.1687,-3.1122,-3.0545,-2.9478,-2.831,-2.7118,-2.6854,-2.6995,-2.7559,-2.8423,-2.9101,-2.9654,-3.0306,-3.0394,-3.003,-3.003,-2.9578,-2.8725,-2.8687,-2.8298,-2.7519,-2.7645,-2.6992,-2.5611,-2.4448,-2.331,-2.2122,-2.211,-2.2541,-2.3374,-2.4367,-2.4361,-2.3332,-2.1564,-1.9756,-1.7847,-1.6614,-1.5351,-1.415,-1.3198,-1.2291,-1.1402,-1.0536,-0.9577,-0.8601,-0.7761,0.0,0.0,0.0,0.0,0.0,0.0,0.0,0.0,0.0,-0.3708,-0.3968,0.0,-0.391,0.0,-0.4138,-0.4502,-0.4732,-0.5086,0.0,0.0,-0.5295,-0.5473,-0.5725,-0.6077,-0.6487,-0.7044,-0.7469,-0.7932,-0.8468,-0.9281,-0.9567,-0.8842,-0.79,-0.7196,-0.6984,-0.66,-0.6181,-0.5647,-0.5241,-0.481,-0.4174,-0.3613,-0.3106,-0.3038,-0.2657,-0.2132,-0.1453,-0.0881,-0.0341,0.022,0.0331,0.032,0.0339,0.0308,0.0364,0.0499,0.0962,0.1414,0.1391,0.144,0.147,-3.573,-3.5454,-3.5454,-3.4914,-3.4022,-3.3545,-3.352,-3.3784,-3.347,-3.3018,-3.2441,-3.1348,-3.052,-2.993,-2.9679,-2.9729,-3.0043,-3.0357,-3.067,-3.0972,-3.126,-3.1235,-3.0947,-3.0721,-3.0156,-2.9289,-2.8561,-2.8009,-2.7657,-2.7469,-2.7143,-2.6716,-2.6716,-2.6251,-2.5314,-2.4111,-2.3916,-2.4707,-2.5448,-2.5342,-2.4229,-2.2831,-2.1076,-1.8982,-1.7342,-1.5732,-1.4086,-1.314,-1.2348,-1.1626,-1.0948,-1.0264,-0.9609,-0.8853,-0.7906,0.0,0.0,0.0,0.0,0.0,0.0,0.0,0.0,0.0,0.0,0.0,-0.5194,-0.5164,-0.5433,-0.5767,-0.6123,-0.6519,-0.6671,-0.6527,-0.664,-0.6796,-0.6901,-0.7303,-0.7766,-0.8234,-0.8945,-0.9556,-1.0071,-1.0969,-1.145,-1.1141,-1.0423,-0.9531,-0.8551,-0.799,-0.7465,-0.6962,-0.6474,-0.5933,-0.5188,-0.483,-0.4608,-0.442,-0.3964,-0.3306,-0.2497,-0.1824,-0.1215,-0.0642,-0.0497,-0.0483,-0.0464,-0.0465,-0.0496,-0.0375,-0.0029,0.0403,0.0606,0.0691,0.0729,-3.6619,-3.6619,-3.6543,-3.6518,-3.643,-3.5366,-3.4926,-3.4881,-3.4864,-3.4512,-3.3947,-3.2968,-3.2503,-3.239,-3.1851,-3.1562,-3.1499,-3.1424,-3.1386,-3.1386,-3.1461,-3.1461,-3.1373,-3.1009,-3.0457,-2.9741,-2.8235,-2.7695,-2.8072,-2.7165,-2.719,-2.8084,-2.8172,-2.8172,-2.8009,-2.5724,-2.4958,-2.5799,-2.6189,-2.5958,-2.5117,-2.4004,-2.2365,-2.013,-1.8137,-1.6089,-1.4073,-1.3017,-1.2153,-1.1547,-1.1193,-1.0801,-1.0381,-0.9886,-0.9041,0.0,-0.8007,0.0,0.0,0.0,0.0,0.0,0.0,0.0,0.0,-0.6976,-0.6729,-0.6984,-0.6997,-0.7229,-0.7748,-0.8034,-0.8156,-0.8091,-0.8125,-0.812,-0.8172,-0.8635,-0.9086,-0.9347,-1.0376,-1.1176,-1.1463,-1.2518,-1.3061,-1.2595,-1.2373,-1.1645,-1.0144,-0.9255,-0.8655,-0.8153,-0.7555,-0.6928,-0.6122,-0.5881,-0.5805,-0.5544,-0.5093,-0.4314,-0.3506,-0.2756,-0.2098,-0.1554,-0.139,-0.1334,-0.1264,-0.1311,-0.1319,-0.1251,-0.1087,-0.0723,-0.0201,0.0,-0.0028,-3.7688,-3.7663,-3.7211,-3.7036,-3.6973,-3.638,-3.6103,-3.6019,-3.5579,-3.5031,-3.4562,-3.4336,-3.3966,-3.3545,-3.3006,-3.2503,-3.2039,-3.1599,-3.1386,-3.1399,-3.1851,-3.1813,-3.1436,-3.175,-3.1173,-2.9804,-2.9001,-2.8436,-2.8109,-2.7896,-2.7896,-2.8109,-2.8512,-2.8512,-2.8109,0.0,0.0,0.0,-2.7067,-2.6784,-2.6186,-2.4834,-2.3321,-2.1599,-1.9172,0.0,-1.414,-1.3181,-1.2192,-1.1115,-1.131,0.0,0.0,0.0,0.0,0.0,0.0,0.0,0.0,0.0,0.0,0.0,-1.3097,-1.2072,-0.9912,-0.9152,-0.8914,-0.9163,-0.9182,-0.9258,-0.9358,-0.9598,-0.9599,-0.924,-0.9293,-0.9368,-0.9381,-0.9715,-1.0029,-1.0305,-1.0972,-1.1564,-1.1988,-1.2889,-1.3425,-1.3179,-1.3203,-1.2929,-1.214,-1.0973,-1.0053,-0.9559,-0.8763,-0.8146,-0.7619,-0.7488,-0.7401,-0.7251,-0.6691,-0.5926,-0.5027,-0.4,-0.323,-0.2774,-0.2596,-0.251,-0.2515,-0.257,-0.2506,-0.2393,-0.2087,-0.1552,-0.0617,-0.0321,-0.0203,-3.853,0.0,-3.7958,-3.7583,0.0,-3.6885,-3.6656,-3.638,-3.6069,-3.5642,-3.5069,-3.4793,-3.4274,-3.3458,-3.2905,-3.2051,-3.0997,-3.0432,-3.0319,-3.062,-3.1173,-3.1562,-3.18,-3.2089,-3.1637,-3.0557,-2.9453,-2.89,-2.8913,-2.8373,-2.8386,-2.8938,-2.89,-2.8888,-2.8938,-2.8938,-2.8524,-2.7695,-2.7682,-2.7454,-2.6901,-2.5822,-2.4398,-2.2672,0.0,0.0,0.0,0.0,0.0,0.0,0.0,0.0,0.0,0.0,0.0,-1.0352,-1.1053,-1.1716,-1.2187,-1.3424,-1.459,-1.5654,-1.5837,-1.4664,-1.1861,-1.1196,-1.1064,-1.1341,-1.1362,-1.1435,-1.1584,-1.1847,-1.1765,-1.1202,-1.1063,-1.0946,-1.0675,-1.0836,-1.1031,-1.1232,-1.1819,-1.2401,-1.2729,-1.3533,-1.3919,-1.3748,-1.4011,-1.4038,-1.3395,-1.218,-1.1072,-1.041,-0.9709,-0.9068,-0.8717,-0.8538,-0.8442,-0.8258,-0.7724,-0.6997,-0.6153,-0.5132,-0.426,-0.3944,-0.3921,-0.3911,-0.3627,-0.3625,-0.3582,-0.339,-0.3084,-0.2588,-0.1743,-0.1046,-0.0437,-3.9641,-3.9252,-3.8832,-3.8233,-3.7475,-3.7362,-3.7071,-3.6543,0.0,0.0,0.0,-3.5215,-3.4412,-3.3332,-3.2667,-3.1524,-3.0068,-2.9377,-2.939,-2.9955,-3.0495,-3.126,-3.2202,-3.2315,-3.2077,-3.1474,-3.0043,-2.9603,-3.0018,-2.9038,-2.9013,-2.9804,-2.9327,-2.9214,-2.9478,-2.949,-2.9089,-2.8298,-2.8247,-2.7934,-2.7293,-2.6624,-2.5385,-2.3604,-2.1741,-1.9542,-1.7031,-1.6036,-1.4935,-1.3675,-1.3554,-1.3402,-1.313,-1.3174,-1.2915,-1.2302,-1.3385,-1.427,-1.4767,-1.5615,-1.6592,-1.7787,-1.7734,-1.6543,-1.3921,-1.3414,-1.3334,-1.3617,-1.3562,-1.361,-1.3821,-1.3959,-1.3804,-1.3209,-1.2869,-1.2434,-1.1981,-1.1966,-1.2072,-1.2194,-1.2757,-1.334,-1.37,-1.4204,-1.455,-1.4511,-1.4847,-1.495,-1.4289,-1.3181,-1.2135,-1.1456,-1.0827,-1.0131,-0.9746,-0.954,-0.9355,-0.9287,-0.8739,-0.8,-0.7147,-0.62,-0.5459,-0.5142,-0.5342,-0.5328,-0.492,-0.4852,-0.4758,-0.4592,-0.4298,-0.3891,-0.3233,-0.2264,-0.1284,-4.183,-4.113,-4.0166,-3.9367,-3.8592,-3.8103,-3.7575,-3.7036,-3.6619,-3.6367,-3.6292,-3.6216,-3.5529,-3.4424,-3.3407,-3.2303,-3.1122,-3.0131,-2.9967,0.0,-3.1035,-3.1612,-3.2185,-3.2717,-3.2654,-3.2077,-3.1373,-3.1085,-3.1085,-3.0557,-3.0357,-3.0419,-2.9942,-2.9227,-2.8411,-2.8348,-2.8499,-2.8762,-2.8787,-2.831,-2.7306,-2.6741,-2.5866,-2.4591,-2.3214,-2.1504,-1.948,-1.8685,-1.7315,-1.5243,-1.5195,-1.4858,-1.4021,-1.4326,-1.448,-1.4431,-1.5527,-1.659,-1.7402,-1.8262,-1.8975,-1.9473,-1.9214,-1.8315,-1.6717,-1.6217,-1.6057,-1.6068,-1.5737,-1.5495,-1.5539,-1.5316,-1.4995,-1.4575,-1.4015,-1.3591,-1.3345,-1.321,-1.3179,-1.3346,-1.3493,-1.3915,-1.455,-1.4791,-1.5114,-1.5517,-1.577,-1.5591,-1.5073,-1.4182,-1.3482,-1.3044,-1.2435,-1.1769,-1.1214,-1.0944,-1.0729,-1.0779,-1.021,-0.9504,-0.8632,-0.7497,-0.6738,-0.6593,-0.6923,-0.6986,-0.6622,-0.6528,-0.6484,-0.6323,-0.6034,-0.5606,-0.5041,-0.426,-0.3182,-4.2248,-4.1568,-4.0635,-3.9726,-3.8869,-3.8253,-3.7864,-3.7588,-3.7084,-3.6634,-3.6417,-3.6417,-3.5755,-3.4688,-3.3872,-3.2742,-3.1348,-3.0583,-3.0532,-3.1035,-3.1286,-3.1863,-3.2654,-3.2943,-3.293,-3.2667,-3.2428,-3.2303,-3.2265,-3.175,-3.1336,-3.0972,-2.9892,-2.8775,-2.7758,-2.7959,-2.8235,-2.8486,-2.8737,-2.8637,-2.8185,-2.7934,-2.7268,-2.6189,-2.4875,-2.3319,-2.1426,-2.0534,-1.9103,-1.7049,-1.7109,-1.6723,-1.5796,-1.6286,-1.6507,-1.6228,-1.7276,-1.8183,-1.8662,-1.9727,-2.043,-2.0615,-2.0674,-2.0459,-1.9765,-1.8681,-1.8052,-1.8078,-1.7863,-1.763,-1.7379,-1.7182,-1.6883,-1.6325,-1.5741,-1.5271,-1.4983,-1.4798,-1.4687,-1.4678,-1.4791,-1.5095,-1.5645,-1.5814,-1.6194,-1.6878,-1.6974,-1.6779,-1.6338,-1.5679,-1.4915,-1.4028,-1.3225,-1.2637,-1.2257,-1.1865,-1.1627,-1.159,-1.1157,-1.0528,-0.9733,-0.8544,-0.7808,-0.7949,-0.8366,-0.846,-0.8154,-0.8055,-0.7979,-0.7802,-0.745,-0.698,-0.6379,-0.5388,-0.3971,-4.2377,-4.1768,-4.0935,-3.9994,-3.907,-3.858,-3.8329,-3.8165,-3.7751,-3.7297,-3.6795,-3.6531,-3.583,-3.4856,-3.4336,-3.3307,-3.2014,-3.1411,-3.1461,-3.1926,-3.1964,-3.2428,-3.3181,-3.33,-3.3206,-3.3136,-3.3124,-3.3124,-3.3061,-3.2616,-3.1989,-3.1148,-2.9679,-2.8373,-2.7341,-2.7582,-2.7795,-2.7946,-2.8436,-2.8712,-2.8712,-2.8825,-2.8424,-2.7494,-2.6399,-2.5091,-2.3547,-2.2357,-2.0941,-1.9277,-1.9048,-1.8594,-1.7841,-1.8407,-1.8546,-1.8196,-1.9006,-1.9604,-1.9774,-2.0605,-2.1229,-2.1346,-2.1689,-2.1926,-2.1777,-2.0713,-1.9873,-1.9863,-1.967,-1.9387,-1.9029,-1.8679,-1.8366,-1.7754,-1.7135,-1.6549,-1.6315,-1.6124,-1.6015,-1.5844,-1.5942,-1.6158,-1.6579,-1.6791,-1.724,-1.8012,-1.8267,-1.8093,-1.7611,-1.7137,-1.6257,-1.5088,-1.403,-1.3495,-1.3201,-1.2824,-1.2527,-1.2383,-1.2077,-1.1542,-1.0804,-0.9506,-0.8916,-0.938,-1.0065,-1.0258,-0.9837,-0.9699,-0.9642,-0.9483,-0.9141,-0.8501,-0.7578,-0.6292,-0.4789,-4.3034,-4.2216,-4.1229,-4.0415,-3.9636,-3.9521,-3.9233,-3.8806,-3.8718,-3.8391,-3.7764,-3.6845,-3.6069,-3.5395,-3.4881,-3.4311,-3.3646,-3.3106,-3.3156,-3.3621,-3.3671,-3.3721,-3.3834,-3.3809,-3.3558,-3.3187,-3.3136,-3.3124,-3.3124,-3.298,-3.2244,-3.0721,-2.9465,-2.8386,-2.7404,-2.6901,-2.6914,-2.7392,-2.7908,-2.8185,-2.821,-2.8674,-2.8612,-2.8047,-2.7457,-2.6829,-2.6067,-2.4748,-2.3259,-2.1766,-2.0925,-2.0255,-1.9798,-2.0226,-2.0456,-2.0331,-2.0878,-2.1215,-2.1036,-2.1122,-2.1435,-2.1777,-2.1885,-2.1934,-2.1934,-2.1748,-2.1641,-2.1494,-2.0898,-2.0478,-2.0361,-1.9385,-1.8653,-1.8389,-1.771,-1.7042,-1.6915,-1.6594,-1.65,-1.6784,-1.6622,-1.668,-1.7242,-1.7492,-1.7997,-1.9091,-1.941,-1.9299,-1.8714,-1.8223,-1.7556,-1.6507,-1.5513,-1.4723,-1.4342,-1.4094,-1.3682,-1.3448,-1.3294,-1.2839,-1.2072,-1.1246,-1.0592,-1.0989,-1.2183,-1.2576,-1.1902,-1.1613,-1.1568,-1.1334,-1.0929,-1.0332,-0.8979,-0.7613,-0.6128,-4.2451,-4.1903,-4.0862,-4.0134,-3.9736,-3.9697,-3.9572,-3.9333,-3.9007,-3.873,-3.8442,-3.7676,-3.7036,-3.6508,-3.627,-3.5881,-3.5399,-3.5173,-3.5185,-3.5316,-3.5027,-3.4876,-3.4768,-3.4173,-3.3771,-3.3533,-3.3244,-3.3124,-3.3061,-3.2729,-3.2051,-3.106,-2.998,-2.8725,-2.7417,-2.709,-2.6788,-2.6373,-2.7494,-2.8109,-2.8222,-2.8988,-2.9327,-2.9076,-2.8561,-2.7996,-2.7394,-2.6146,-2.4887,-2.3777,-2.2963,-2.2324,-2.1936,-2.206,-2.2031,-2.1796,-2.1749,-2.1708,-2.1602,-2.1846,-2.206,-2.2256,-2.249,-2.2584,-2.2584,-2.2627,-2.2637,-2.2529,-2.1846,-2.126,-2.0947,-2.0244,-1.964,-1.9304,-1.8762,-1.8389,-1.8325,-1.7975,-1.7797,-1.7865,-1.7586,-1.7565,-1.8119,-1.8816,-1.9599,-2.0348,-2.0679,-2.0595,-2.0225,-1.9612,-1.8642,-1.75,-1.6472,-1.5614,-1.495,-1.4529,-1.4309,-1.4137,-1.3992,-1.3652,-1.3304,-1.2763,-1.2357,-1.2441,-1.369,-1.4082,-1.3,-1.2877,-1.2829,-1.2684,-1.194,-1.108,-1.0048,-0.8905,-0.7703,-4.2034,-4.167,-4.0655,-4.0017,-3.9697,-3.9697,-3.9697,-3.9647,-3.927,-3.9094,-3.9057,-3.8642,-3.8165,-3.7651,-3.7337,-3.7008,-3.6644,-3.648,-3.6417,-3.6367,-3.5943,-3.5646,-3.542,-3.4718,-3.4261,-3.4085,-3.3734,-3.3458,-3.3257,-3.2729,-3.2164,-3.1537,-3.0545,-2.9327,-2.8072,-2.7708,-2.7118,-2.6502,-2.767,-2.8323,-2.8461,-2.9289,-2.9779,-2.9729,-2.9201,-2.8737,-2.8335,-2.7149,-2.6213,-2.561,-2.4887,-2.4426,-2.4181,-2.4003,-2.3629,-2.2934,-2.2261,-2.1943,-2.2051,-2.2344,-2.2559,-2.2695,-2.2978,-2.3101,-2.3101,-2.3101,-2.3101,-2.3033,-2.2578,-2.2051,-2.1621,-2.0977,-2.0478,-2.0107,-1.9639,-1.9268,-1.9072,-1.8773,-1.8484,-1.8422,-1.8056,-1.8164,-1.8627,-1.9475,-2.0275,-2.0973,-2.1441,-2.1735,-2.1459,-2.0737,-1.9704,-1.8319,-1.7513,-1.6495,-1.5307,-1.4796,-1.4649,-1.4512,-1.4368,-1.4394,-1.4231,-1.3955,-1.3851,-1.3832,-1.5007,-1.5178,-1.4225,-1.3938,-1.3909,-1.374,-1.3011,-1.205,-1.1466,-1.0375,-0.9486,-4.2192,-4.199,-4.0915,-4.0162,-3.9697,-3.9697,-3.9697,-3.9697,-3.9647,-3.9647,-3.9622,-3.9572,-3.9295,-3.8693,-3.7726,-3.7199,-3.7073,-3.6669,-3.6443,-3.6405,-3.6367,-3.6031,-3.5508,-3.5433,-3.5132,-3.4655,-3.455,-3.4274,-3.3822,-3.3294,-3.2754,-3.2139,-3.1148,-3.0294,-2.9553,-2.8637,-2.8072,-2.7996,-2.8586,-2.8863,-2.8925,-2.949,-2.9817,-2.9741,-2.9252,-2.8913,-2.8787,-2.7833,-2.7208,-2.717,-2.6621,-2.6355,-2.6324,-2.602,-2.5185,-2.3835,-2.2584,-2.209,-2.2432,-2.2529,-2.2685,-2.2974,-2.3062,-2.3101,-2.3101,-2.3101,-2.3101,-2.3091,-2.3003,-2.2779,-2.2373,-2.1435,-2.0762,-2.0557,-1.9871,-1.9268,-1.8744,-1.8744,-1.8432,-1.8203,-1.8105,-1.8232,-1.8568,-1.9043,-2.0019,-2.0887,-2.1395,-2.1678,-2.1917,-2.1427,-2.0484,-1.9521,-1.8624,-1.7583,-1.56,-1.5239,-1.5007,-1.494,-1.5123,-1.5022,-1.4995,-1.4937,-1.49,-1.4842,-1.5052,-1.5098,-1.5,-1.5022,-1.501,-1.4766,-1.4166,-1.34,-1.2661,-1.1895,-1.0995,-4.1798,-4.1078,-4.0676,-4.0199,-3.9722,-3.9697,-3.9697,-3.9697,-3.9697,-3.9697,-3.9697,-3.9697,-3.9584,-3.9358,-3.8605,-3.7864,-3.7211,-3.6973,-3.6744,-3.6455,-3.6417,-3.6292,-3.6069,-3.5683,-3.542,-3.5182,-3.4856,-3.4437,-3.3935,-3.3684,-3.3319,-3.2742,-3.2014,-3.1198,-3.0407,-2.993,-2.939,-2.8762,-2.949,-2.9854,-2.9566,-3.003,-3.0156,-2.9792,-2.9591,-2.9478,-2.9478,-2.8737,-2.8335,-2.8335,-2.7808,-2.7519,-2.7413,-2.6415,-2.5324,-2.4252,-2.3229,-2.2721,-2.2847,-2.291,-2.2925,-2.3071,-2.3101,-2.3101,-2.3101,-2.3101,-2.3101,-2.3101,-2.3101,-2.3003,-2.2808,-2.2227,-2.1699,-2.1387,-2.0879,-2.0205,-1.96,-1.9219,-1.8887,-1.8525,-1.8383,-1.8461,-1.8724,-1.9482,-2.0381,-2.1083,-2.1744,-2.2258,-2.2548,-2.2246,-2.1526,-2.0719,-2.0133,-1.9377,-1.8229,-1.6829,-1.6195,-1.6062,-1.6066,-1.6046,-1.5996,-1.557,-1.5431,-1.5219,-1.5211,-1.5144,-1.5198,-1.5378,-1.549,-1.5319,-1.4758,-1.4303,-1.3738,-1.2939,-1.2137,-4.1936,-4.1116,-4.104,-4.0626,-3.9998,-3.9961,-3.9848,-3.9722,-3.9697,-3.9697,-3.9697,-3.9697,-3.9697,-3.9634,-3.9295,-3.8642,-3.7788,-3.7374,-3.6973,-3.6669,-3.6493,-3.6417,-3.6355,-3.5994,-3.5805,-3.5717,-3.5207,-3.4788,-3.4424,-3.4073,-3.3709,-3.3319,-3.2616,-3.1863,-3.121,-3.0972,-3.0444,-2.9993,-3.0482,-3.067,-3.0394,-3.067,-3.0708,-3.0369,-3.0306,-3.0131,-2.9817,-2.9402,-2.9202,-2.9126,-2.8837,-2.8537,-2.8111,-2.6744,-2.5521,-2.468,-2.3672,-2.3101,-2.3101,-2.3101,-2.3091,-2.3101,-2.3101,-2.3101,-2.3101,-2.3101,-2.3101,-2.3101,-2.3101,-2.3101,-2.3042,-2.2818,-2.2539,-2.2109,-2.1582,-2.0957,-2.0205,-1.9656,-1.9053,-1.851,-1.8481,-1.8568,-1.8744,-1.9814,-2.0625,-2.1142,-2.1931,-2.2646,-2.294,-2.2784,-2.2215,-2.153,-2.106,-2.0488,-1.974,-1.8742,-1.8045,-1.7894,-1.7319,-1.7206,-1.671,-1.6271,-1.5819,-1.5625,-1.5518,-1.5438,-1.5484,-1.5651,-1.5651,-1.5568,-1.5371,-1.4988,-1.4459,-1.3989,-1.3175,-4.269,-4.215,-4.22,-4.143,-4.0513,-4.0438,-4.0174,-3.9747,-3.9697,-3.9697,-3.9697,-3.9697,-3.9697,-3.9685,-3.9622,-3.9384,-3.8705,-3.7814,-3.7262,-3.7073,-3.6694,-3.6455,-3.6405,-3.6355,-3.6317,-3.6304,-3.5793,-3.547,-3.5307,-3.4525,-3.401,-3.3696,-3.2855,-3.234,-3.219,-3.1712,-3.1436,-3.1373,-3.1461,-3.1424,-3.1399,-3.1386,-3.1348,-3.1286,-3.126,-3.0834,-2.9917,-2.9867,-2.9867,-2.9842,-2.9817,-2.939,-2.8518,-2.7227,-2.613,-2.5168,-2.3897,-2.3178,-2.3144,-2.3101,-2.3101,-2.3169,-2.313,-2.3188,-2.3266,-2.3237,-2.3237,-2.3257,-2.3227,-2.3188,-2.3208,-2.3188,-2.2955,-2.251,-2.1816,-2.1201,-2.0576,-1.9813,-1.8955,-1.8311,-1.8383,-1.8607,-1.889,-1.9853,-2.0801,-2.1298,-2.1951,-2.2617,-2.2916,-2.2819,-2.2389,-2.1751,-2.1472,-2.1204,-2.0898,-2.0554,-2.0185,-1.9736,-1.8967,-1.8434,-1.7461,-1.685,-1.5981,-1.5665,-1.5571,-1.5445,-1.5491,-1.5638,-1.5712,-1.5664,-1.5569,-1.5489,-1.508,-1.4566,-1.4195,-4.2703,-4.2225,-4.2213,-4.153,-4.0576,-4.0526,-4.0199,-3.9722,-3.9697,-3.9697,-3.9697,-3.9697,-3.9697,-3.9697,-3.9697,-3.9597,-3.9371,-3.8705,-3.7939,-3.7274,-3.7046,-3.6769,-3.648,-3.6417,-3.6417,-3.6392,-3.6207,-3.5893,-3.5495,-3.5144,-3.4643,-3.3947,-3.3571,-3.3181,-3.2805,-3.2629,-3.2596,-3.2541,-3.2554,-3.2365,-3.2001,-3.1964,-3.1788,-3.1436,-3.1386,-3.1198,-3.0962,-3.0896,-3.0896,-3.0871,-3.0884,-3.04,-2.9254,-2.7755,-2.6547,-2.5631,-2.4337,-2.3493,-2.3363,-2.3198,-2.3227,-2.3506,-2.3584,-2.374,-2.3929,-2.3994,-2.3984,-2.3994,-2.4014,-2.4014,-2.3978,-2.3968,-2.3584,-2.2627,-2.2256,-2.166,-2.0684,-1.9609,-1.8682,-1.8232,-1.8643,-1.915,-1.959,-2.0449,-2.1113,-2.1553,-2.2129,-2.2568,-2.2623,-2.2619,-2.2421,-2.1861,-2.1853,-2.1712,-2.1376,-2.1414,-2.1592,-2.106,-2.0382,-1.9293,-1.828,-1.7311,-1.6423,-1.5765,-1.5618,-1.5565,-1.5604,-1.5644,-1.5732,-1.5765,-1.5704,-1.5604,-1.5431,-1.505,-1.4589,-4.2773,-4.2527,-4.2527,-4.2011,-4.1153,-4.1128,-4.0814,-4.035,-4.03,-4.0187,-4.0036,-4.0011,-3.9873,-3.9735,-3.9697,-3.9697,-3.9647,-3.932,-3.873,-3.7814,-3.7299,-3.6985,-3.6694,-3.648,-3.6417,-3.6417,-3.6417,-3.6194,-3.5868,-3.5583,-3.5144,-3.4587,-3.4123,-3.3734,-3.337,-3.3212,-3.3124,-3.3124,-3.3099,-3.2948,-3.2616,-3.2541,-3.2378,-3.2064,-3.2014,-3.2014,-3.2014,-3.2055,-3.1825,-3.1449,-3.1223,-3.0639,-2.9715,-2.8307,-2.7098,-2.6163,-2.4999,-2.4069,-2.3744,-2.3353,-2.3286,-2.3691,-2.3789,-2.3975,-2.4307,-2.4424,-2.4424,-2.4424,-2.4394,-2.4424,-2.4404,-2.4414,-2.4014,-2.334,-2.292,-2.2197,-2.0996,-2.0079,-1.9475,-1.9307,-1.9519,-1.9881,-2.0234,-2.0693,-2.1268,-2.1641,-2.2012,-2.2285,-2.2285,-2.2285,-2.1973,-2.1777,-2.1753,-2.1651,-2.1666,-2.2142,-2.2867,-2.2369,-2.1644,-2.0329,-1.9047,-1.7963,-1.6994,-1.6102,-1.5732,-1.5678,-1.5758,-1.5772,-1.5805,-1.5825,-1.5812,-1.5658,-1.5451,-1.5164,-1.473,-4.2974,-4.2986,-4.2974,-4.261,-4.215,-4.2125,-4.1718,-4.1275,-4.1213,-4.094,-4.0551,-4.0438,-4.0174,-3.9785,-3.9697,-3.9697,-3.9685,-3.9647,-3.9371,-3.868,-3.7939,-3.7362,-3.7199,-3.6782,-3.6568,-3.6531,-3.6455,-3.6392,-3.6292,-3.5881,-3.552,-3.5295,-3.455,-3.3997,-3.3872,-3.342,-3.3156,-3.3136,-3.3124,-3.3043,-3.2986,-3.3074,-3.3061,-3.3023,-3.2998,-3.2986,-3.2948,-3.2923,-3.2546,-3.1612,-3.1173,-3.072,-3.0016,-2.8915,-2.7934,-2.708,-2.5696,-2.488,-2.4311,-2.3692,-2.3516,-2.3935,-2.4014,-2.4043,-2.4531,-2.4678,-2.4668,-2.4639,-2.4619,-2.458,-2.459,-2.46,-2.4512,-2.4355,-2.3652,-2.2623,-2.1551,-2.1259,-2.0947,-2.0693,-2.0664,-2.0664,-2.0674,-2.0996,-2.1151,-2.1298,-2.1631,-2.1797,-2.1855,-2.1738,-2.1387,-2.1299,-2.1309,-2.1641,-2.167,-2.2412,-2.3105,-2.3326,-2.2644,-2.1399,-1.9766,-1.8535,-1.7434,-1.6534,-1.5961,-1.5913,-1.5825,-1.5872,-1.5825,-1.5825,-1.5765,-1.5618,-1.5504,-1.5264,-1.5015,-4.2986,-4.2986,-4.2986,-4.2715,-4.225,-4.2213,-4.1856,-4.1326,-4.13,-4.105,-4.0626,-4.0526,-4.0262,-3.9722,-3.971,-3.9697,-3.9697,-3.9697,-3.9659,-3.9396,-3.8781,-3.8191,-3.7751,-3.7224,-3.6948,-3.6897,-3.6619,-3.6417,-3.6405,-3.6194,-3.5943,-3.5508,-3.5194,-3.4864,-3.45,-3.396,-3.347,-3.3174,-3.3136,-3.288,-3.2629,-3.2905,-3.3124,-3.3124,-3.3124,-3.3124,-3.3124,-3.3124,-3.2993,-3.2654,-3.2102,-3.1676,-3.1286,-3.0326,-2.9314,-2.8395,-2.7181,-2.6124,-2.5437,-2.4531,-2.4313,-2.4715,-2.4639,-2.4922,-2.5342,-2.5333,-2.5333,-2.5333,-2.5333,-2.5304,-2.5323,-2.5304,-2.5177,-2.4863,-2.4189,-2.3408,-2.2721,-2.2311,-2.2012,-2.1631,-2.1593,-2.1377,-2.1182,-2.1103,-2.1181,-2.121,-2.1298,-2.1445,-2.1494,-2.1445,-2.1211,-2.0771,-2.0762,-2.1328,-2.1865,-2.2627,-2.334,-2.3933,-2.3444,-2.2474,-2.0691,-1.8917,-1.7804,-1.6791,-1.6601,-1.6492,-1.6143,-1.5974,-1.5927,-1.5825,-1.5798,-1.5732,-1.5678,-1.5504,-1.5342,-4.2986,-4.2986,-4.2986,-4.2798,-4.2564,-4.2552,-4.2321,-4.2082,-4.202,-4.1718,-4.1291,-4.1204,-4.0764,-4.0074,-4.0049,-3.9898,-3.9722,-3.9697,-3.9697,-3.9647,-3.9346,-3.8755,-3.8103,-3.7626,-3.7412,-3.7161,-3.6908,-3.6644,-3.6455,-3.6417,-3.6182,-3.5906,-3.5608,-3.5332,-3.5019,-3.4525,-3.3972,-3.3533,-3.342,-3.3232,-3.298,-3.2993,-3.3206,-3.3294,-3.3275,-3.3124,-3.3124,-3.3124,-3.3124,-3.2986,-3.2541,-3.2143,-3.198,-3.1286,-3.0438,-2.9555,-2.8179,-2.7029,-2.6169,-2.5093,-2.4675,-2.5008,-2.5106,-2.5303,-2.5547,-2.5684,-2.5684,-2.5654,-2.5684,-2.5684,-2.5684,-2.5684,-2.5615,-2.5352,-2.4902,-2.43,-2.376,-2.3457,-2.3135,-2.2764,-2.2363,-2.1992,-2.1543,-2.1221,-2.1064,-2.1132,-2.121,-2.1239,-2.1229,-2.1161,-2.1085,-2.0703,-2.0791,-2.1435,-2.2187,-2.2993,-2.3779,-2.4407,-2.4228,-2.3289,-2.1863,-1.9901,-1.8855,-1.8044,-1.7495,-1.6969,-1.663,-1.6272,-1.5872,-1.5825,-1.5825,-1.5838,-1.5792,-1.5792,-1.5617,-4.2898,-4.2886,-4.2961,-4.2986,-4.2961,-4.2974,-4.2898,-4.2949,-4.2873,-4.2627,-4.22,-4.2175,-4.1392,-4.0538,-4.04,-4.0199,-3.9697,-3.9697,-3.9697,-3.9685,-3.9559,-3.9157,-3.8442,-3.8191,-3.7902,-3.7513,-3.7312,-3.691,-3.6656,-3.6505,-3.6417,-3.6254,-3.5855,-3.5621,-3.547,-3.5077,-3.4537,-3.4085,-3.3985,-3.3872,-3.3709,-3.3533,-3.3596,-3.3658,-3.3294,-3.3149,-3.3124,-3.3124,-3.3124,-3.3124,-3.2579,-3.2348,-3.2235,-3.1743,-3.1041,-3.0083,-2.879,-2.7612,-2.6663,-2.542,-2.4756,-2.5117,-2.5233,-2.5293,-2.5596,-2.5684,-2.5684,-2.5684,-2.5732,-2.5849,-2.5927,-2.5849,-2.5791,-2.5742,-2.5693,-2.5187,-2.4736,-2.4521,-2.4394,-2.3945,-2.3174,-2.2529,-2.1846,-2.1269,-2.0801,-2.1151,-2.122,-2.1278,-2.1387,-2.1455,-2.1213,-2.0828,-2.1184,-2.1728,-2.2552,-2.3345,-2.416,-2.4865,-2.4698,-2.4049,-2.3143,-2.163,-2.0495,-1.9546,-1.8745,-1.7933,-1.727,-1.6791,-1.6163,-1.6019,-1.6152,-1.6066,-1.5965,-1.5999,-1.5899,-4.2376,-4.2426,-4.2854,-4.2986,-4.2986,-4.2986,-4.2986,-4.2986,-4.2986,-4.2685,-4.2313,-4.2225,-4.1555,-4.0563,-4.0601,-4.0199,-3.9772,-3.9722,-3.9697,-3.9697,-3.9697,-3.9609,-3.9207,-3.8894,-3.8605,-3.8316,-3.755,-3.7149,-3.6996,-3.6656,-3.6417,-3.6367,-3.6232,-3.6182,-3.6069,-3.5629,-3.5056,-3.4638,-3.455,-3.4336,-3.4135,-3.4211,-3.4161,-3.396,-3.3432,-3.3144,-3.3136,-3.3124,-3.3124,-3.3099,-3.3006,-3.2802,-3.2548,-3.2234,-3.152,-3.0379,-2.9173,-2.8066,-2.7098,-2.6029,-2.5421,-2.5508,-2.5537,-2.5635,-2.5645,-2.5684,-2.5684,-2.5752,-2.6035,-2.6309,-2.6572,-2.6406,-2.6211,-2.6055,-2.5605,-2.5146,-2.501,-2.5185,-2.5068,-2.4639,-2.3926,-2.3096,-2.2051,-2.1543,-2.121,-2.1229,-2.1337,-2.1395,-2.1611,-2.1826,-2.1588,-2.1312,-2.1578,-2.2207,-2.3037,-2.376,-2.4489,-2.5039,-2.4928,-2.4938,-2.4029,-2.3233,-2.2064,-2.0909,-1.9822,-1.8997,-1.8067,-1.7093,-1.6406,-1.6453,-1.646,-1.6393,-1.6326,-1.6299,-1.6268,-4.2213,-4.2263,-4.2748,-4.2986,-4.2986,-4.2986,-4.2986,-4.2986,-4.2986,-4.2879,-4.264,-4.259,-4.2112,-4.1317,-4.1254,-4.0877,-4.0149,-3.9798,-3.9697,-3.9697,-3.9697,-3.9697,-3.9659,-3.9396,-3.9145,-3.8831,-3.8316,-3.7776,-3.7236,-3.6945,-3.6681,-3.643,-3.643,-3.638,-3.6405,-3.6069,-3.5655,-3.5169,-3.5056,-3.4893,-3.4731,-3.4663,-3.4638,-3.4336,-3.3997,-3.3803,-3.3695,-3.355,-3.3506,-3.3493,-3.3469,-3.3164,-3.258,-3.2089,-3.1327,-3.0272,-2.8923,-2.7908,-2.703,-2.6245,-2.5664,-2.5703,-2.5684,-2.5684,-2.5684,-2.5684,-2.5859,-2.6025,-2.6269,-2.6553,-2.6924,-2.6631,-2.6377,-2.6006,-2.5488,-2.4988,-2.4695,-2.4853,-2.4961,-2.4492,-2.3809,-2.3105,-2.2393,-2.1992,-2.2068,-2.2243,-2.2666,-2.2734,-2.2646,-2.2758,-2.232,-2.2116,-2.2244,-2.2734,-2.3549,-2.4202,-2.4727,-2.5078,-2.5118,-2.5228,-2.5054,-2.4343,-2.3638,-2.2369,-2.1092,-1.9723,-1.878,-1.7725,-1.6847,-1.666,-1.6633,-1.6687,-1.668,-1.658,-1.6556,-4.1961,-4.2024,-4.264,-4.2848,-4.2873,-4.2936,-4.2986,-4.2986,-4.2986,-4.2961,-4.2974,-4.2986,-4.2615,-4.225,-4.2125,-4.1559,-4.0601,-3.9961,-3.9697,-3.9697,-3.9697,-3.9697,-3.9672,-3.9597,-3.9433,-3.9019,-3.8793,-3.8266,-3.7713,-3.7337,-3.7136,-3.6757,-3.6568,-3.6631,-3.6568,-3.6405,-3.6094,-3.5705,-3.5608,-3.5655,-3.5533,-3.5265,-3.5052,-3.4793,-3.458,-3.4382,-3.4074,-3.3768,-3.3659,-3.3802,-3.3744,-3.321,-3.2459,-3.1732,-3.0831,-2.994,-2.8617,-2.7658,-2.713,-2.6408,-2.5966,-2.5879,-2.5908,-2.5918,-2.5947,-2.6005,-2.6201,-2.6406,-2.665,-2.6875,-2.7119,-2.6826,-2.6377,-2.5889,-2.5381,-2.4675,-2.4072,-2.4082,-2.4014,-2.3818,-2.3662,-2.3271,-2.3008,-2.2744,-2.2984,-2.3296,-2.374,-2.4004,-2.3916,-2.3599,-2.3156,-2.2599,-2.2575,-2.2685,-2.3413,-2.4192,-2.4775,-2.5,-2.5088,-2.5342,-2.5596,-2.517,-2.4409,-2.3514,-2.2306,-2.0908,-1.9639,-1.8621,-1.7799,-1.7193,-1.7039,-1.7289,-1.7184,-1.6904,-1.6871,-4.0789,-4.0877,-4.1869,-4.2351,-4.2426,-4.2841,-4.2986,-4.2986,-4.2986,-4.2986,-4.2986,-4.2974,-4.2728,-4.2351,-4.2225,-4.1543,-4.0727,-4.0111,-3.9772,-3.9747,-3.9722,-3.9697,-3.9697,-3.9697,-3.9622,-3.9459,-3.917,-3.8806,-3.8442,-3.8128,-3.7764,-3.7613,-3.7262,-3.7061,-3.686,-3.6669,-3.6405,-3.6144,-3.6119,-3.6132,-3.6019,-3.5871,-3.5624,-3.5253,-3.4907,-3.4479,-3.3909,-3.3329,-3.2921,-3.2957,-3.2921,-3.2651,-3.2265,-3.195,-3.1187,-2.9954,-2.8645,-2.763,-2.7222,-2.6971,-2.6777,-2.6807,-2.6719,-2.6738,-2.6738,-2.6748,-2.6738,-2.6934,-2.7246,-2.7598,-2.8008,-2.7353,-2.6758,-2.6162,-2.5332,-2.4414,-2.3906,-2.3682,-2.3525,-2.3433,-2.3521,-2.3721,-2.3652,-2.373,-2.4072,-2.4424,-2.4814,-2.5117,-2.5205,-2.4629,-2.3912,-2.332,-2.2738,-2.2871,-2.313,-2.389,-2.457,-2.4795,-2.4961,-2.5215,-2.5439,-2.5605,-2.5063,-2.4152,-2.3202,-2.2011,-2.0801,-1.9636,-1.9008,-1.8549,-1.829,-1.8019,-1.7716,-1.7503,-1.734,-4.0526,-4.0639,-4.1706,-4.2213,-4.2313,-4.2735,-4.2986,-4.2986,-4.2986,-4.2986,-4.2986,-4.2974,-4.2904,-4.2678,-4.2627,-4.2095,-4.1342,-4.0463,-4.0162,-4.0086,-3.9848,-3.9697,-3.9697,-3.9697,-3.9697,-3.9622,-3.9408,-3.9158,-3.8932,-3.8605,-3.8329,-3.7977,-3.7713,-3.7487,-3.7211,-3.6983,-3.6681,-3.6543,-3.643,-3.6219,-3.5922,-3.5722,-3.5447,-3.5283,-3.4922,-3.4398,-3.3732,-3.3144,-3.2721,-3.2647,-3.2684,-3.2477,-3.2112,-3.175,-3.1167,-2.9784,-2.8407,-2.751,-2.7257,-2.7063,-2.6982,-2.6992,-2.7031,-2.7012,-2.7012,-2.6992,-2.7139,-2.7393,-2.7725,-2.8057,-2.8223,-2.7666,-2.71,-2.6406,-2.5547,-2.4619,-2.3877,-2.373,-2.3564,-2.3423,-2.3603,-2.4023,-2.4551,-2.4736,-2.5127,-2.5508,-2.5947,-2.6152,-2.6327,-2.5606,-2.4795,-2.3887,-2.3242,-2.3144,-2.3335,-2.3984,-2.4551,-2.4736,-2.5068,-2.5322,-2.5547,-2.584,-2.5468,-2.4728,-2.3768,-2.2873,-2.2148,-2.1081,-2.0515,-1.9857,-1.9339,-1.8792,-1.838,-1.8101,-1.7793,-4.035,-4.045,-4.1543,-4.2037,-4.2095,-4.2698,-4.2986,-4.2986,-4.2986,-4.2986,-4.2986,-4.2986,-4.2974,-4.2936,-4.2854,-4.2564,-4.2099,-4.0978,-4.0513,-4.035,-3.9936,-3.9697,-3.9697,-3.9697,-3.9697,-3.9685,-3.9647,-3.9459,-3.9182,-3.9044,-3.8768,-3.853,-3.8316,-3.8002,-3.77,-3.7462,-3.7121,-3.687,-3.6581,-3.6219,-3.5425,-3.4856,-3.4543,-3.4631,-3.4447,-3.3848,-3.3074,-3.2403,-3.2073,-3.1944,-3.2017,-3.205,-3.1688,-3.1483,-3.0758,-2.9444,-2.8015,-2.742,-2.7295,-2.7324,-2.7402,-2.7412,-2.7314,-2.7295,-2.7314,-2.7441,-2.748,-2.7783,-2.8037,-2.8164,-2.8076,-2.7806,-2.71,-2.6377,-2.5752,-2.5146,-2.4219,-2.3887,-2.4072,-2.3994,-2.4014,-2.4492,-2.5205,-2.5732,-2.6113,-2.665,-2.7041,-2.708,-2.7178,-2.6454,-2.5625,-2.4541,-2.3848,-2.3574,-2.375,-2.4219,-2.4668,-2.4922,-2.54,-2.584,-2.6025,-2.623,-2.5737,-2.5282,-2.4519,-2.3704,-2.307,-2.224,-2.1242,-2.0431,-2.0012,-1.9391,-1.8624,-1.8055,-1.7694,-3.9785,-3.9885,-4.099,-4.1376,-4.1605,-4.2547,-4.2986,-4.2986,-4.2986,-4.2986,-4.2986,-4.2986,-4.2986,-4.2898,-4.2564,-4.2326,-4.1936,-4.1229,-4.0727,-4.0651,-4.0099,-3.9785,-3.9722,-3.9697,-3.9697,-3.9697,-3.9697,-3.9672,-3.9521,-3.9509,-3.9534,-3.9308,-3.8931,-3.8718,-3.8479,-3.8028,-3.7889,-3.7713,-3.7287,-3.6308,-3.4969,-3.4053,-3.3505,-3.3161,-3.2826,-3.2415,-3.1869,-3.1206,-3.0764,-3.0692,-3.066,-3.0608,-3.0578,-3.0505,-3.0172,-2.9443,-2.8707,-2.8135,-2.8057,-2.7998,-2.7988,-2.7969,-2.8027,-2.8125,-2.8008,-2.7988,-2.8037,-2.8184,-2.8252,-2.8057,-2.7744,-2.7344,-2.6689,-2.6094,-2.5518,-2.5029,-2.4375,-2.4443,-2.459,-2.4824,-2.4912,-2.5488,-2.6162,-2.6641,-2.7129,-2.7676,-2.8086,-2.8057,-2.7812,-2.707,-2.6171,-2.5031,-2.4394,-2.4111,-2.4102,-2.457,-2.4863,-2.5127,-2.5742,-2.626,-2.623,-2.6288,-2.6307,-2.5812,-2.5038,-2.4164,-2.3276,-2.2376,-2.1503,-2.0798,-2.0115,-1.9398,-1.8579,-1.8108,-1.7641,-3.9697,-3.9798,-4.0877,-4.1275,-4.1426,-4.2509,-4.2986,-4.2986,-4.2986,-4.2986,-4.2986,-4.2986,-4.2986,-4.2898,-4.2753,-4.269,-4.2446,-4.1756,-4.1455,-4.1166,-4.0601,-4.0162,-4.0086,-3.986,-3.9697,-3.9697,-3.9697,-3.9697,-3.9697,-3.9697,-3.9697,-3.9659,-3.9446,-3.912,-3.8969,-3.8454,-3.7991,-3.7357,-3.6395,-3.5223,-3.4185,-3.3212,-3.246,-3.2139,-3.1669,-3.1206,-3.066,-3.0193,-2.9785,-2.9754,-2.9723,-2.9785,-2.9743,-2.9743,-2.9628,-2.9079,-2.8591,-2.8271,-2.8271,-2.8301,-2.8301,-2.8301,-2.8301,-2.8262,-2.8291,-2.8301,-2.8301,-2.8291,-2.8057,-2.7773,-2.7373,-2.6914,-2.623,-2.5664,-2.5449,-2.5059,-2.4824,-2.5146,-2.5303,-2.5566,-2.585,-2.6357,-2.6826,-2.7178,-2.7539,-2.791,-2.8193,-2.8184,-2.791,-2.7363,-2.6415,-2.543,-2.4971,-2.4619,-2.4668,-2.4949,-2.5146,-2.5498,-2.6221,-2.6543,-2.6269,-2.6218,-2.6451,-2.5952,-2.4978,-2.4099,-2.3372,-2.2545,-2.1707,-2.0917,-2.0174,-1.9398,-1.8624,-1.8003,-1.7635,-3.9697,-3.9798,-4.0727,-4.1087,-4.1175,-4.217,-4.2547,-4.2572,-4.2698,-4.276,-4.2823,-4.2898,-4.2986,-4.2974,-4.2961,-4.2911,-4.2967,-4.2464,-4.2263,-4.1848,-4.1153,-4.0563,-4.03,-3.9986,-3.9697,-3.971,-3.9697,-3.9697,-3.9697,-3.9697,-3.9697,-3.9697,-3.9647,-3.9459,-3.9144,-3.8663,-3.8056,-3.6705,-3.531,-3.4128,-3.3199,-3.2252,-3.1512,-3.103,-3.0548,-3.0067,-2.9596,-2.9375,-2.9069,-2.9016,-2.9059,-2.9069,-2.9016,-2.9069,-2.9016,-2.8664,-2.8344,-2.8291,-2.8301,-2.8301,-2.8301,-2.8301,-2.8301,-2.8301,-2.8301,-2.8301,-2.8301,-2.8291,-2.8096,-2.7695,-2.7236,-2.6846,-2.6338,-2.5937,-2.5625,-2.5244,-2.5049,-2.5488,-2.583,-2.6035,-2.6387,-2.6934,-2.7353,-2.7646,-2.7939,-2.8193,-2.8291,-2.8301,-2.8018,-2.7627,-2.7109,-2.626,-2.5898,-2.5469,-2.5185,-2.5303,-2.5508,-2.5742,-2.6465,-2.6797,-2.6454,-2.6637,-2.6969,-2.6154,-2.5036,-2.4487,-2.3963,-2.2927,-2.1903,-2.1083,-2.0223,-1.948,-1.8722,-1.8108,-1.7722,-3.9697,-3.9747,-4.0325,-4.0588,-4.0651,-4.1137,-4.1426,-4.1643,-4.2057,-4.2338,-4.2502,-4.2723,-4.2986,-4.2986,-4.2986,-4.2986,-4.2949,-4.2451,-4.2338,-4.1923,-4.1141,-4.0777,-4.0551,-4.0262,-3.9835,-3.9835,-3.9948,-3.991,-3.9747,-3.9873,-3.9785,-3.9697,-3.9722,-3.9685,-3.9314,-3.8711,-3.7481,-3.6039,-3.4421,-3.3261,-3.2339,-3.1432,-3.06,-2.9833,-2.9333,-2.8864,-2.8481,-2.8504,-2.8495,-2.8441,-2.8495,-2.8548,-2.8558,-2.8558,-2.8504,-2.8398,-2.8344,-2.8301,-2.8301,-2.8301,-2.8301,-2.8301,-2.8301,-2.833,-2.8408,-2.833,-2.831,-2.8408,-2.835,-2.8057,-2.7656,-2.7197,-2.6621,-2.624,-2.5918,-2.5664,-2.5625,-2.6016,-2.6328,-2.6504,-2.6934,-2.7539,-2.8051,-2.8374,-2.8125,-2.832,-2.8301,-2.8301,-2.8301,-2.7998,-2.7832,-2.7344,-2.6973,-2.6465,-2.5771,-2.5693,-2.5537,-2.5713,-2.621,-2.6571,-2.6678,-2.6965,-2.7176,-2.6586,-2.5605,-2.5097,-2.457,-2.3712,-2.2678,-2.1341,-2.0354,-1.9641,-1.8893,-1.8165,-1.7989,-3.9697,-3.9722,-3.9923,-4.0212,-4.0551,-4.105,-4.1275,-4.1376,-4.1919,-4.2414,-4.2715,-4.2942,-4.2986,-4.2986,-4.2986,-4.2986,-4.2961,-4.2854,-4.2715,-4.2502,-4.1944,-4.158,-4.1329,-4.099,-4.0727,-4.0664,-4.0676,-4.0701,-4.0674,-4.0325,-4.0224,-4.0136,-3.986,-3.9722,-3.9374,-3.8255,-3.6619,-3.5213,-3.3811,-3.2641,-3.1664,-3.1127,-3.0469,-2.9853,-2.9154,-2.8877,-2.8662,-2.8418,-2.834,-2.832,-2.834,-2.8369,-2.8379,-2.8379,-2.8369,-2.8379,-2.8389,-2.8379,-2.834,-2.833,-2.8301,-2.8301,-2.8301,-2.8389,-2.8603,-2.8672,-2.8848,-2.8906,-2.8809,-2.8506,-2.8096,-2.7441,-2.6816,-2.6484,-2.626,-2.6084,-2.6143,-2.6494,-2.6826,-2.6992,-2.7588,-2.8286,-2.8697,-2.9078,-2.8691,-2.8418,-2.835,-2.831,-2.835,-2.833,-2.8135,-2.7885,-2.7412,-2.6894,-2.6201,-2.582,-2.5478,-2.5713,-2.5966,-2.6171,-2.6465,-2.6873,-2.6978,-2.6471,-2.6231,-2.5811,-2.5249,-2.4544,-2.3489,-2.2221,-2.1009,-1.9908,-1.9167,-1.839,-1.8347,-3.9697,-3.9697,-3.9697,-3.991,-4.0312,-4.0676,-4.0799,-4.0978,-4.1593,-4.2333,-4.2961,-4.2986,-4.2986,-4.2986,-4.2986,-4.2986,-4.2986,-4.2949,-4.2961,-4.2723,-4.2451,-4.2263,-4.1969,-4.163,-4.1125,-4.1275,-4.1275,-4.1213,-4.1137,-4.0699,-4.0526,-4.0312,-4.0011,-3.976,-3.9141,-3.7412,-3.5622,-3.4318,-3.295,-3.1983,-3.1096,-3.0918,-3.06,-3.0102,-2.9603,-2.9277,-2.9131,-2.8916,-2.8799,-2.8769,-2.874,-2.8711,-2.8691,-2.8672,-2.8672,-2.8672,-2.8672,-2.8662,-2.8643,-2.8408,-2.832,-2.8301,-2.8476,-2.8643,-2.8848,-2.9033,-2.9238,-2.9404,-2.9228,-2.8984,-2.8633,-2.8135,-2.7617,-2.7363,-2.7002,-2.6807,-2.666,-2.6846,-2.7197,-2.7562,-2.8135,-2.8672,-2.8887,-2.9209,-2.9303,-2.8965,-2.8945,-2.8799,-2.8594,-2.8535,-2.8359,-2.8008,-2.7578,-2.7031,-2.6475,-2.585,-2.5293,-2.5312,-2.5576,-2.5693,-2.5986,-2.6465,-2.659,-2.6129,-2.6037,-2.6279,-2.6225,-2.5875,-2.4686,-2.3203,-2.1951,-2.0747,-1.9812,-1.9236,-1.9035,-3.9697,-3.9697,-3.9697,-3.971,-3.9772,-3.9735,-3.9798,-4.0061,-4.099,-4.2007,-4.2911,-4.2986,-4.2986,-4.2986,-4.2986,-4.2986,-4.2986,-4.2986,-4.2986,-4.2848,-4.2615,-4.2313,-4.207,-4.1819,-4.1681,-4.1351,-4.1476,-4.1576,-4.1426,-4.1065,-4.0777,-4.0563,-4.0312,-3.9731,-3.9451,-3.6823,-3.4858,-3.3607,-3.2004,-3.1321,-3.1041,-3.0943,-3.0631,-3.0368,-3.0086,-2.9785,-2.958,-2.9385,-2.9287,-2.9287,-2.9307,-2.9316,-2.9336,-2.9355,-2.9421,-2.9394,-2.9424,-2.9453,-2.9463,-2.874,-2.8496,-2.8525,-2.8799,-2.8984,-2.9062,-2.9287,-2.9629,-2.9844,-2.9697,-2.9685,-2.9394,-2.9121,-2.8643,-2.8301,-2.7959,-2.7529,-2.7383,-2.7285,-2.7656,-2.7891,-2.8428,-2.8935,-2.9101,-2.9307,-2.958,-2.959,-2.956,-2.9355,-2.9014,-2.874,-2.8584,-2.8271,-2.7832,-2.7236,-2.6611,-2.5664,-2.5184,-2.5174,-2.5156,-2.5312,-2.5547,-2.5908,-2.5937,-2.5762,-2.6169,-2.6727,-2.7156,-2.7466,-2.5843,-2.4142,-2.2917,-2.1752,-2.0788,-2.019,-2.0161,-3.9697,-3.9697,-3.9697,-3.9697,-3.9697,-3.9697,-3.9697,-3.9898,-4.0865,-4.1957,-4.2823,-4.2986,-4.2986,-4.2986,-4.2986,-4.2986,-4.2986,-4.2986,-4.2986,-4.2949,-4.2791,-4.2735,-4.2585,-4.2446,-4.2359,-4.2421,-4.2409,-4.2333,-4.2459,-4.1756,-4.1605,-4.148,-4.0746,-4.0059,-3.875,-3.6804,-3.5377,-3.4067,-3.2561,-3.1383,-3.117,-3.1005,-3.082,-3.0625,-3.0371,-3.0156,-2.998,-2.9824,-2.9697,-2.9687,-2.9697,-2.9678,-2.9668,-2.9724,-2.9685,-2.9665,-2.96,-2.958,-2.9551,-2.9238,-2.9225,-2.9199,-2.9238,-2.9463,-2.9736,-2.9863,-3.0117,-3.0322,-3.0322,-3.0342,-3.0371,-2.999,-2.96,-2.9443,-2.9062,-2.8408,-2.8105,-2.8027,-2.8135,-2.8262,-2.8633,-2.9307,-2.9648,-2.9853,-3.0088,-3.0049,-3.0,-2.9726,-2.9394,-2.9043,-2.8799,-2.8535,-2.8125,-2.75,-2.6797,-2.6055,-2.5557,-2.5537,-2.5254,-2.499,-2.5254,-2.5684,-2.5927,-2.6103,-2.6629,-2.7165,-2.7131,-2.7015,-2.6325,-2.5086,-2.3737,-2.2999,-2.2442,-2.1934,-2.1752,-3.9697,-3.9697,-3.9697,-3.9697,-3.9697,-3.9697,-3.9785,-4.0086,-4.0777,-4.1668,-4.2509,-4.274,-4.2866,-4.2924,-4.2986,-4.2986,-4.2986,-4.2986,-4.2986,-4.2986,-4.2974,-4.2936,-4.2949,-4.2986,-4.2836,-4.2986,-4.2986,-4.2936,-4.2836,-4.2451,-4.194,-4.1518,-4.1259,-4.0136,-3.8881,-3.775,-3.6739,-3.5444,-3.4006,-3.256,-3.2003,-3.1504,-3.1045,-3.084,-3.0635,-3.0449,-3.0371,-3.0205,-3.0019,-3.0,-3.0,-3.0,-3.001,-3.0076,-3.0076,-3.0029,-3.0029,-3.0059,-3.0068,-3.0068,-3.0029,-3.0039,-2.9902,-2.9922,-3.0195,-3.0312,-3.0537,-3.0752,-3.0879,-3.0879,-3.0791,-3.0449,-3.0322,-3.0137,-2.9775,-2.9101,-2.8652,-2.8555,-2.8418,-2.8555,-2.8906,-2.958,-3.0176,-3.0469,-3.0693,-3.0557,-3.041,-3.0098,-2.9805,-2.9492,-2.9189,-2.8945,-2.8691,-2.8213,-2.75,-2.666,-2.624,-2.5996,-2.5508,-2.4961,-2.5537,-2.6103,-2.6299,-2.6533,-2.699,-2.722,-2.6761,-2.6307,-2.5655,-2.5105,-2.4357,-2.3914,-2.3855,-2.3311,-2.2652,-3.9697,-3.9697,-3.9697,-3.9697,-3.9697,-3.9697,-3.9986,-4.0488,-4.0526,-4.1178,-4.2213,-4.2288,-4.2564,-4.2924,-4.2986,-4.2986,-4.2986,-4.2986,-4.2986,-4.2986,-4.2986,-4.2986,-4.2986,-4.2986,-4.2986,-4.2986,-4.2986,-4.2974,-4.2924,-4.264,-4.196,-4.1203,-4.0887,-4.0116,-3.9455,-3.8704,-3.7813,-3.6428,-3.4947,-3.3524,-3.2606,-3.1821,-3.126,-3.0986,-3.0801,-3.0771,-3.0742,-3.0703,-3.0723,-3.0752,-3.0791,-3.082,-3.085,-3.0879,-3.0879,-3.0859,-3.0801,-3.0752,-3.0723,-3.0684,-3.0703,-3.0596,-3.04,-3.0293,-3.0342,-3.0596,-3.0771,-3.085,-3.0898,-3.0898,-3.083,-3.0742,-3.0654,-3.0439,-3.0215,-2.9687,-2.917,-2.8935,-2.876,-2.8896,-2.9287,-2.9834,-3.0391,-3.0762,-3.0889,-3.081,-3.0644,-3.0537,-3.0254,-3.0049,-2.9766,-2.9551,-2.9287,-2.9004,-2.8232,-2.7197,-2.6592,-2.623,-2.5566,-2.5146,-2.581,-2.6289,-2.6406,-2.6689,-2.7263,-2.7261,-2.6647,-2.5792,-2.4931,-2.4458,-2.3975,-2.4014,-2.3751,-2.3231,-2.2558,-3.9697,-3.9697,-3.9697,-3.9697,-3.9697,-3.9697,-3.9998,-4.0423,-4.0538,-4.1128,-4.2213,-4.2213,-4.2426,-4.2949,-4.2986,-4.2961,-4.2986,-4.2986,-4.2986,-4.2986,-4.2986,-4.2986,-4.2986,-4.2986,-4.2986,-4.2986,-4.2986,-4.2986,-4.2961,-4.2778,-4.2407,-4.1824,-4.0906,-4.0239,-3.9554,-3.8839,-3.7801,-3.6744,-3.528,-3.4112,-3.2959,-3.2048,-3.1476,-3.1123,-3.1025,-3.1016,-3.1016,-3.0996,-3.0986,-3.0928,-3.0908,-3.0898,-3.0898,-3.0898,-3.0889,-3.0889,-3.0879,-3.0879,-3.0898,-3.0898,-3.0937,-3.0986,-3.0801,-3.0732,-3.0742,-3.082,-3.0928,-3.0898,-3.0898,-3.0898,-3.0898,-3.084,-3.0801,-3.0674,-3.0439,-3.0088,-2.9629,-2.9414,-2.9258,-2.9316,-2.9707,-2.999,-3.0547,-3.0791,-3.0889,-3.0889,-3.0859,-3.0771,-3.0654,-3.043,-3.0283,-3.0068,-2.9805,-2.9502,-2.8574,-2.7539,-2.6953,-2.6396,-2.5742,-2.5342,-2.5752,-2.6152,-2.6337,-2.6861,-2.7583,-2.717,-2.6327,-2.5531,-2.4816,-2.3817,-2.3296,-2.3496,-2.3519,-2.2983,-2.2494,-3.9697,-3.9697,-3.9697,-3.9697,-3.9697,-3.9697,-3.991,-4.0162,-4.0187,-4.0714,-4.1442,-4.1467,-4.1974,-4.2602,-4.269,-4.2735,-4.2986,-4.2986,-4.2986,-4.2986,-4.2986,-4.2986,-4.2986,-4.2986,-4.2986,-4.2986,-4.2986,-4.2986,-4.2986,-4.293,-4.2656,-4.2012,-4.11,-4.0292,-3.9475,-3.843,-3.7301,-3.6362,-3.5339,-3.4339,-3.3345,-3.2395,-3.1868,-3.1445,-3.1367,-3.1357,-3.1357,-3.1357,-3.1299,-3.1172,-3.1143,-3.1045,-3.0976,-3.0898,-3.0898,-3.0898,-3.0898,-3.1016,-3.1133,-3.1162,-3.123,-3.1328,-3.1367,-3.1416,-3.123,-3.1162,-3.1025,-3.0898,-3.0898,-3.0898,-3.0898,-3.0889,-3.0889,-3.0879,-3.0644,-3.041,-3.0166,-2.9951,-2.9883,-2.9853,-3.0019,-3.0244,-3.0518,-3.0752,-3.0889,-3.0889,-3.0898,-3.0859,-3.0801,-3.0693,-3.0605,-3.0498,-3.0244,-2.9941,-2.8935,-2.8047,-2.7461,-2.6797,-2.5967,-2.5713,-2.5849,-2.6328,-2.6855,-2.7389,-2.7933,-2.7369,-2.6728,-2.5721,-2.4864,-2.3861,-2.3087,-2.3181,-2.3168,-2.2769,-2.2203,-3.9697,-3.9697,-3.9697,-3.9697,-3.9697,-3.9697,-3.971,-3.9697,-3.9747,-4.0023,-4.0526,-4.0563,-4.1229,-4.2187,-4.2338,-4.2627,-4.2848,-4.2986,-4.2986,-4.2974,-4.2986,-4.2986,-4.2986,-4.2986,-4.2986,-4.2986,-4.2986,-4.2986,-4.2986,-4.2918,-4.2694,-4.2086,-4.1136,-4.0246,-3.9203,-3.7812,-3.6678,-3.5823,-3.527,-3.4565,-3.3923,-3.323,-3.2607,-3.2187,-3.208,-3.209,-3.21,-3.206,-3.1963,-3.166,-3.1445,-3.1279,-3.1025,-3.0898,-3.0898,-3.0898,-3.0898,-3.1103,-3.1309,-3.1396,-3.168,-3.1894,-3.2209,-3.2082,-3.1808,-3.1583,-3.1348,-3.1299,-3.1338,-3.1338,-3.1348,-3.1348,-3.1348,-3.1338,-3.1211,-3.1055,-3.0908,-3.0742,-3.0674,-3.0615,-3.0557,-3.0723,-3.0654,-3.0889,-3.0889,-3.0898,-3.0898,-3.0898,-3.0879,-3.083,-3.081,-3.0791,-3.0605,-3.0244,-2.9521,-2.8682,-2.8037,-2.7295,-2.6269,-2.584,-2.5879,-2.6592,-2.7483,-2.8024,-2.8468,-2.7976,-2.7295,-2.6368,-2.5298,-2.3975,-2.3341,-2.3053,-2.2915,-2.2956,-2.2452,-3.9697,-3.9697,-3.9697,-3.9697,-3.9697,-3.9697,-3.9697,-3.9697,-3.9697,-3.9998,-4.045,-4.0576,-4.1091,-4.2037,-4.2074,-4.2376,-4.2866,-4.2773,-4.2949,-4.2936,-4.2924,-4.2924,-4.2986,-4.2986,-4.2986,-4.2986,-4.2986,-4.2986,-4.2986,-4.2918,-4.2681,-4.2061,-4.117,-4.0234,-3.9015,-3.7429,-3.6104,-3.5345,-3.456,-3.4202,-3.3663,-3.3186,-3.2598,-3.2344,-3.2287,-3.2266,-3.2266,-3.2268,-3.1934,-3.1601,-3.1533,-3.1279,-3.0928,-3.0918,-3.0908,-3.0898,-3.1006,-3.126,-3.1514,-3.1699,-3.1904,-3.21,-3.2236,-3.2248,-3.2141,-3.2004,-3.1916,-3.1906,-3.1867,-3.1857,-3.1847,-3.1787,-3.1787,-3.1787,-3.1847,-3.1689,-3.1601,-3.1533,-3.1455,-3.1299,-3.1172,-3.1064,-3.0957,-3.0898,-3.0898,-3.0898,-3.0898,-3.0898,-3.0898,-3.0869,-3.0859,-3.085,-3.0859,-3.0488,-2.9805,-2.9082,-2.832,-2.7461,-2.6475,-2.6162,-2.5977,-2.6728,-2.7559,-2.853,-2.8974,-2.8605,-2.8116,-2.7302,-2.6114,-2.49,-2.4537,-2.4668,-2.4604,-2.4571,-2.3673,-3.9697,-3.9697,-3.9697,-3.9697,-3.9697,-3.9697,-3.9697,-3.9697,-3.9697,-3.986,-4.0111,-4.0224,-4.0764,-4.1605,-4.1555,-4.2037,-4.2514,-4.2308,-4.2384,-4.2509,-4.2753,-4.2785,-4.2848,-4.2986,-4.2986,-4.2986,-4.2986,-4.2986,-4.2986,-4.2974,-4.2681,-4.2231,-4.1386,-4.0396,-3.9098,-3.7347,-3.5909,-3.5108,-3.4047,-3.347,-3.3358,-3.3132,-3.2988,-3.2754,-3.2715,-3.2695,-3.2725,-3.2695,-3.2471,-3.2129,-3.1963,-3.1797,-3.1572,-3.1543,-3.1494,-3.1504,-3.1562,-3.1641,-3.1914,-3.209,-3.2226,-3.25,-3.2705,-3.2803,-3.2832,-3.2685,-3.2353,-3.2305,-3.2051,-3.2072,-3.2072,-3.2012,-3.2012,-3.2072,-3.2072,-3.1963,-3.1934,-3.1904,-3.1699,-3.1435,-3.1309,-3.1191,-3.1064,-3.0898,-3.0898,-3.0898,-3.0898,-3.0967,-3.0957,-3.1045,-3.1006,-3.0947,-3.0976,-3.0527,-2.9746,-2.9072,-2.8398,-2.7519,-2.6592,-2.6221,-2.5986,-2.6836,-2.7705,-2.8813,-2.9507,-2.9465,-2.888,-2.8307,-2.7826,-2.6872,-2.6677,-2.6642,-2.6421,-2.6235,-2.5805,-3.9697,-3.9697,-3.9697,-3.9697,-3.9697,-3.9697,-3.9697,-3.9697,-3.9697,-3.9697,-3.9772,-3.9835,-4.045,-4.0811,-4.0786,-4.1417,-4.1823,-4.1769,-4.1844,-4.2162,-4.2275,-4.2627,-4.2848,-4.2986,-4.2986,-4.2986,-4.2986,-4.2986,-4.2986,-4.2974,-4.2806,-4.2457,-4.1879,-4.1124,-3.9697,-3.8078,-3.6571,-3.5448,-3.4413,-3.3544,-3.3398,-3.3418,-3.335,-3.3369,-3.3418,-3.3418,-3.3408,-3.334,-3.3154,-3.2764,-3.2314,-3.2109,-3.2031,-3.1973,-3.2002,-3.1982,-3.1963,-3.2217,-3.2559,-3.2627,-3.292,-3.3223,-3.3379,-3.3398,-3.3316,-3.3213,-3.2881,-3.2685,-3.2441,-3.2353,-3.2363,-3.2363,-3.2363,-3.2363,-3.2363,-3.2363,-3.2363,-3.2344,-3.207,-3.1768,-3.1621,-3.1504,-3.1279,-3.1094,-3.1055,-3.1035,-3.1035,-3.1055,-3.1123,-3.1299,-3.1367,-3.124,-3.1152,-3.0557,-2.9736,-2.9228,-2.8662,-2.7529,-2.668,-2.6191,-2.6074,-2.6865,-2.79,-2.9336,-2.9865,-2.9762,-2.9997,-2.9784,-2.9232,-2.8446,-2.8323,-2.8106,-2.8006,-2.7911,-2.8214,-3.9697,-3.9697,-3.9697,-3.9697,-3.9697,-3.9697,-3.9697,-3.9697,-3.9697,-3.9697,-3.9798,-4.0212,-4.0752,-4.125,-4.0764,-4.1116,-4.1974,-4.1605,-4.1731,-4.215,-4.22,-4.2564,-4.2823,-4.2986,-4.2986,-4.2986,-4.2986,-4.2986,-4.2986,-4.2986,-4.2974,-4.2806,-4.2806,-4.1935,-4.0594,-3.891,-3.7106,-3.5807,-3.4413,-3.3418,-3.3418,-3.3418,-3.3418,-3.3418,-3.3418,-3.3418,-3.3418,-3.3418,-3.3154,-3.2803,-3.249,-3.2334,-3.2305,-3.2334,-3.2334,-3.2383,-3.2363,-3.2539,-3.2783,-3.2881,-3.3144,-3.335,-3.3418,-3.3418,-3.3398,-3.3389,-3.3193,-3.3193,-3.3037,-3.3037,-3.3047,-3.3047,-3.3047,-3.3047,-3.3047,-3.3047,-3.3047,-3.2988,-3.2842,-3.2588,-3.2383,-3.2158,-3.1865,-3.1768,-3.1758,-3.1748,-3.1728,-3.1738,-3.1689,-3.1728,-3.1738,-3.1533,-3.1348,-3.0605,-2.9824,-2.958,-2.8965,-2.7773,-2.6875,-2.6641,-2.6551,-2.6805,-2.7949,-2.9394,-2.9902,-2.9885,-3.0151,-3.0587,-3.0079,-2.9434,-2.9521,-2.9512,-2.9422,-2.9353,-2.9422]},{"header":{"parameterUnit":"m.s-1","parameterCategory":1,"la1":31.0,"la2":29.5877,"lo1":-88.7671,"lo2":-86.6584,"dy":0.0162,"dx":0.0185,"nx":115,"ny":88,"refTime":"2026-04-18T00:00:00:Z","depth":0,"parameterNumber":3,"parameterNumberName":"V-component_of_WINDS"},"data":[0.0,0.0,0.0,0.0,0.0,0.0,0.0,0.0,0.0,0.0,0.0,0.0,0.0,0.0,0.0,0.0,0.0,0.0,0.0,0.0,0.0,0.0,0.0,0.0,0.0,0.0,0.0,0.0,0.0,0.0,0.0,0.0,0.0,0.0,0.0,0.0,0.0,0.0,0.0,0.0,0.0,0.0,0.0,0.0,0.0,0.0,0.0,0.0,0.0,0.0,0.0,0.0,0.0,0.0,0.0,0.0,0.0,0.0,0.0,0.0,0.0,0.0,0.0,0.0,0.0,0.0,0.0,0.0,0.0,0.0,0.0,0.0,0.0,0.0,0.0,0.0,0.0,0.0,0.0,0.0,0.0,0.0,0.0,0.0,0.0,0.0,0.0,0.0,0.0,0.0,0.0,0.0,0.0,0.0,0.0,0.0,0.0,0.0,0.0,0.0,0.0,0.0,0.0,0.0,0.0,0.0,0.0,0.0,0.0,0.0,0.0,0.0,0.0,0.0,0.0,0.0,0.0,0.0,0.0,0.0,0.0,0.0,0.0,0.0,0.0,0.0,0.0,0.0,0.0,0.0,0.0,0.0,0.0,0.0,0.0,0.0,0.0,0.0,0.0,0.0,0.0,0.0,0.0,0.0,0.0,0.0,0.0,0.0,0.0,0.0,0.0,0.0,0.0,0.0,0.0,0.0,0.0,0.0,0.0,0.0,0.0,0.0,0.0,0.0,0.0,0.0,0.0,0.0,0.0,0.0,0.0,0.0,0.0,0.0,0.0,0.0,0.0,0.0,0.0,0.0,0.0,0.0,0.0,0.0,0.0,0.0,0.0,0.0,0.0,0.0,0.0,0.0,0.0,0.0,0.0,0.0,0.0,0.0,0.0,0.0,0.0,0.0,0.0,0.0,0.0,0.0,0.0,0.0,0.0,0.0,0.0,0.0,0.0,0.0,0.0,0.0,0.0,0.0,0.0,0.0,0.0,0.0,0.0,0.0,0.0,0.0,0.0,0.0,0.0,0.0,0.0,0.0,0.0,0.0,0.0,0.0,0.0,0.0,0.0,0.0,0.0,0.0,0.0,0.0,0.0,0.0,0.0,0.0,0.0,0.0,0.0,0.0,0.0,0.0,0.0,0.0,0.0,0.0,0.0,0.0,0.0,0.0,0.0,0.0,0.0,0.0,0.0,0.0,0.0,0.0,0.0,0.0,0.0,0.0,0.0,0.0,0.0,0.0,0.0,0.0,0.0,0.0,0.0,0.0,0.0,0.0,0.0,0.0,0.0,0.0,0.0,0.0,0.0,0.0,0.0,0.0,0.0,0.0,0.0,0.0,0.0,0.0,0.0,0.0,0.0,0.0,0.0,0.0,0.0,0.0,0.0,0.0,0.0,0.0,0.0,0.0,0.0,0.0,0.0,0.0,0.0,0.0,0.0,0.0,0.0,0.0,0.0,0.0,0.0,0.0,0.0,0.0,0.0,0.0,0.0,0.0,0.0,0.0,0.0,0.0,0.0,0.0,0.0,0.0,0.0,0.0,0.0,0.0,0.0,0.0,0.0,0.0,0.0,0.0,0.0,0.0,0.0,0.0,0.0,0.0,0.0,0.0,0.0,0.0,0.0,0.0,0.0,0.0,0.0,0.0,0.0,0.0,0.0,0.0,0.0,0.0,0.0,0.0,0.0,0.0,0.0,0.0,0.0,0.0,0.0,0.0,0.0,0.0,0.0,0.0,0.0,0.0,0.0,0.0,0.0,0.0,0.0,0.0,0.0,0.0,0.0,0.0,0.0,0.0,0.0,0.0,0.0,0.0,0.0,0.0,0.0,0.0,0.0,0.0,0.0,0.0,0.0,0.0,0.0,0.0,0.0,0.0,0.0,0.0,0.0,0.0,0.0,0.0,0.0,0.0,0.0,0.0,0.0,0.0,0.0,0.0,0.0,0.0,0.0,0.0,0.0,0.0,0.0,0.0,0.0,0.0,0.0,0.0,0.0,0.0,0.0,0.0,0.0,0.0,0.0,0.0,0.0,0.0,0.0,0.0,0.0,0.0,0.0,0.0,0.0,0.0,0.0,0.0,0.0,0.0,0.0,0.0,0.0,0.0,0.0,0.0,0.0,0.0,0.0,0.0,0.0,0.0,0.0,0.0,0.0,0.0,0.0,0.0,0.0,0.0,0.0,0.0,0.0,0.0,0.0,0.0,0.0,0.0,0.0,0.0,0.0,0.0,0.0,0.0,0.0,0.0,0.0,0.0,0.0,0.0,0.0,0.0,0.0,0.0,0.0,0.0,0.0,0.0,0.0,0.0,0.0,0.0,0.0,0.0,0.0,0.0,0.0,0.0,0.0,0.0,0.0,0.0,0.0,0.0,0.0,0.0,0.0,0.0,0.0,0.0,0.0,0.0,0.0,0.0,0.0,0.0,0.0,0.0,0.0,0.0,0.0,0.0,0.0,0.0,0.0,0.0,0.0,0.0,0.0,0.0,0.0,0.0,0.0,0.0,0.0,0.0,0.0,0.0,0.0,0.0,0.0,0.0,0.0,0.0,0.0,0.0,0.0,0.0,0.0,0.0,0.0,0.0,0.0,0.0,0.0,0.0,0.0,0.0,0.0,0.0,0.0,0.0,0.0,0.0,0.0,0.0,0.0,0.0,0.0,0.0,0.0,0.0,0.0,0.0,0.0,0.0,0.0,0.0,0.0,0.0,0.0,0.0,0.0,0.0,0.0,0.0,0.0,0.0,0.0,0.0,0.0,0.0,0.0,0.0,0.0,0.0,0.0,0.0,0.0,0.0,0.0,0.0,0.0,0.0,0.0,0.0,0.0,0.0,0.0,0.0,0.0,0.0,0.0,0.0,0.0,0.0,0.0,0.0,0.0,0.0,0.0,0.0,0.0,0.0,0.0,0.0,0.0,0.0,0.0,0.0,0.0,0.0,0.0,0.0,0.0,0.0,0.0,0.0,0.0,0.0,0.0,0.0,0.0,0.0,0.0,0.0,0.0,0.0,0.0,0.0,0.0,0.0,0.0,0.0,0.0,0.0,0.0,0.0,0.0,0.0,0.0,0.0,0.0,0.0,0.0,0.0,0.0,0.0,0.0,0.0,0.0,0.0,0.0,0.0,0.0,0.0,0.0,0.0,0.0,0.0,0.0,0.0,0.0,0.0,0.0,0.0,0.0,0.0,0.0,0.0,0.0,0.0,0.0,0.0,0.0,0.0,0.0,0.0,0.0,0.0,0.0,0.0,0.0,0.0,0.0,0.0,0.0,0.0,0.0,0.0,0.0,0.0,0.0,0.0,0.0,0.0,0.0,0.0,0.0,0.0,0.0,0.0,0.0,0.0,0.0,0.0,0.0,0.0,0.0,0.0,0.0,0.0,0.0,0.0,0.0,0.0,0.0,0.0,0.0,0.0,0.0,0.0,0.0,0.0,0.0,0.0,0.0,0.0,0.0,0.0,0.0,0.0,0.0,0.0,0.0,0.0,0.0,0.0,0.0,0.0,0.0,0.0,0.0,0.0,0.0,0.0,0.0,0.0,0.0,0.0,0.0,0.0,0.0,0.0,0.0,0.0,0.0,0.0,0.0,0.0,0.0,0.0,0.0,0.0,0.0,0.0,0.0,0.0,0.0,0.0,0.0,0.0,0.0,0.0,0.0,0.0,0.0,0.0,0.0,0.0,0.0,0.0,0.0,0.0,0.0,0.0,0.0,0.0,0.0,0.0,0.0,0.0,0.0,0.0,0.0,0.0,0.0,0.0,0.0,0.0,0.0,0.0,0.0,0.0,0.0,0.0,0.0,0.0,0.0,0.0,0.0,0.0,0.0,0.0,0.0,0.0,0.0,0.0,0.0,0.0,0.0,0.0,0.0,0.0,0.0,0.0,0.0,0.0,0.0,0.0,0.0,0.0,0.0,0.0,0.0,0.0,0.0,0.0,0.0,0.0,0.0,0.0,0.0,0.0,0.0,0.0,0.0,0.0,0.0,0.0,0.0,0.0,0.0,0.0,0.0,0.0,0.0,0.0,0.0,0.0,0.0,0.0,0.0,0.0,0.0,0.0,0.0,0.0,0.0,0.0,0.0,0.0,0.0,0.0,0.0,0.0,0.0,0.0,0.0,0.0,0.0,0.0,0.0,0.0,0.0,0.0,0.0,0.0,0.0,0.0,0.0,0.0,0.0,0.0,0.0,0.0,0.0,0.0,0.0,0.0,0.0,0.0,0.0,0.0,0.0,0.0,0.0,0.0,0.0,0.0,0.0,0.0,0.0,0.0,0.0,0.0,1.0312,0.0,0.0,0.0,0.0,0.0,0.0,0.0,0.0,0.0,0.0,0.0,0.0,0.0,0.0,0.0,0.0,0.0,0.0,0.0,0.0,0.0,0.0,0.0,0.0,0.0,0.0,0.0,0.0,0.0,0.0,0.0,0.0,0.0,0.0,0.0,0.0,0.0,0.0,0.0,0.0,0.0,0.0,0.0,0.0,0.0,0.0,0.0,0.0,0.0,0.0,0.0,0.0,0.0,0.0,0.0,0.0,0.0,0.0,0.0,0.0,0.0,0.0,0.0,0.0,0.0,0.0,0.0,0.0,0.0,0.0,0.0,0.0,0.0,0.0,0.0,0.0,0.0,0.0,0.0,0.0,0.0,0.0,0.0,0.0,0.0,0.0,0.0,0.0,0.0,0.0,0.0,0.0,0.0,0.0,0.0,0.0,0.0,0.0,0.0,0.0,0.0,0.0,0.0,0.0,0.0,0.0,0.0,0.0,0.0,0.0,1.0264,1.0292,1.0312,1.0312,1.0312,0.0,0.0,0.0,0.0,0.0,0.0,0.0,0.0,0.0,0.0,0.0,0.0,0.0,0.0,0.0,0.0,0.0,0.0,0.0,0.0,0.0,0.0,0.0,0.0,0.0,0.0,0.0,0.0,0.0,0.0,0.0,0.0,0.0,0.0,0.0,0.0,0.0,0.0,0.0,0.0,0.0,0.0,0.0,0.0,0.0,0.0,0.0,0.0,0.0,0.0,0.0,0.0,0.0,0.0,0.0,0.0,0.0,0.0,0.0,0.0,0.0,0.0,0.0,0.0,0.0,0.0,0.0,0.0,0.0,0.0,0.0,0.0,0.0,0.0,0.0,0.0,0.0,0.0,0.0,0.0,0.0,0.0,0.0,0.0,0.0,0.0,0.0,0.0,0.0,0.0,0.0,0.0,0.0,0.0,0.0,0.0,0.0,0.0,0.0,0.0,0.0,0.0,0.0,0.0,0.0,0.0,0.0,0.0,0.0,0.0,0.0,0.0,1.0195,1.0312,1.0312,0.0,0.0,0.0,0.0,0.0,0.0,0.0,0.0,0.0,0.0,0.0,0.0,0.0,0.0,0.0,0.0,0.0,0.0,0.0,0.0,0.0,0.0,0.0,0.0,0.0,0.0,0.0,0.0,0.0,0.0,0.0,0.0,0.0,0.0,0.0,0.0,0.0,0.0,0.0,0.0,0.0,0.0,0.0,0.0,0.0,0.0,0.0,0.0,0.0,0.0,0.0,0.0,0.0,0.0,0.0,0.0,0.0,0.0,0.0,0.0,0.0,0.0,0.0,0.0,0.0,0.0,0.0,0.0,0.0,0.0,0.0,0.0,0.0,0.0,0.0,0.0,0.0,0.0,0.0,0.0,0.0,0.0,0.0,0.0,0.0,0.0,0.0,0.0,0.0,0.0,0.0,0.0,0.0,0.0,0.0,0.0,0.0,0.0,0.0,0.0,0.0,0.0,0.0,0.0,0.0,0.0,0.0,0.0,0.0,0.0,0.9117,0.9121,0.9883,0.0,1.0312,0.0,0.0,0.0,0.0,0.0,0.0,0.0,0.0,0.0,0.0,0.0,0.0,0.0,0.0,0.0,0.0,0.0,0.0,0.0,0.0,0.0,0.0,0.0,0.0,0.0,0.0,0.0,0.0,0.0,0.0,0.0,0.0,0.0,0.0,0.0,0.0,0.0,0.0,0.0,0.0,0.0,0.0,0.0,0.0,0.0,0.0,0.0,0.0,0.0,0.0,0.0,0.0,0.0,0.0,0.0,0.0,0.0,0.0,0.0,0.0,0.0,0.0,0.0,0.0,0.0,0.0,0.0,0.0,0.0,0.0,0.0,0.0,0.0,0.0,0.0,0.0,0.0,0.0,0.0,0.0,0.0,0.0,0.0,0.0,0.0,0.0,0.0,0.0,0.0,0.0,0.0,0.0,0.0,0.0,0.0,0.0,0.0,0.0,0.0,0.0,0.0,0.0,0.0,0.0,0.0,0.0,0.0,0.0,0.0,0.0,0.9,0.9004,0.9844,1.0312,0.0,0.0,0.0,0.0,0.0,0.0,0.0,0.0,0.0,0.0,0.0,0.0,0.0,0.0,0.0,0.0,0.0,0.0,0.0,0.0,0.0,0.0,0.0,0.0,0.0,0.0,0.0,0.0,0.0,0.0,0.0,0.0,0.0,0.0,0.0,0.0,0.0,0.0,0.0,0.0,0.0,0.0,0.0,0.0,0.0,0.0,0.0,0.0,0.0,0.0,0.0,0.0,0.0,0.0,0.0,0.0,0.0,0.0,0.0,0.0,0.0,0.0,0.0,0.0,0.0,0.0,0.0,0.0,0.0,0.0,0.0,0.0,0.0,0.0,0.0,0.0,0.0,0.0,0.0,0.0,0.0,0.0,0.0,0.0,0.0,0.0,0.0,0.0,0.0,0.0,0.0,0.0,0.0,0.0,0.0,0.0,0.0,0.0,0.0,0.0,0.0,0.0,0.0,0.0,0.0,0.0,0.0,0.0,0.0,0.0,0.8612,0.0,0.9355,0.9961,1.0312,1.0312,0.0,0.0,0.0,0.0,0.0,0.0,0.0,0.0,0.0,0.0,0.0,0.0,0.0,0.0,0.0,0.0,0.0,0.0,0.0,0.0,0.0,0.0,0.0,0.0,0.0,0.0,0.0,0.0,0.0,0.0,0.0,0.0,0.0,0.0,0.0,0.0,0.0,0.0,0.0,0.0,0.0,0.0,0.0,0.0,0.0,0.0,0.0,0.0,0.0,0.0,0.0,0.0,0.0,0.0,0.0,0.0,0.0,0.0,0.0,0.0,0.0,0.0,0.0,0.0,0.0,0.0,0.0,0.0,0.0,0.0,0.0,0.0,0.0,0.0,0.0,0.0,0.0,0.0,0.0,0.0,0.0,0.0,0.0,0.0,0.0,0.0,0.0,0.0,0.0,0.0,0.0,0.0,0.0,0.0,0.0,0.0,0.0,0.0,0.0,0.0,0.0,0.0,0.0,0.0,0.0,0.0,0.0,0.0,0.0,0.7745,0.8563,1.0152,1.0291,1.0311,0.0,0.0,0.0,0.0,0.0,0.0,0.0,0.0,0.0,0.0,0.0,0.0,0.0,0.0,0.0,0.0,0.0,0.0,0.0,0.0,0.0,0.0,0.0,0.0,0.0,0.0,0.0,0.0,0.0,0.0,0.0,0.0,0.0,0.0,0.0,0.0,0.0,0.0,0.0,0.0,0.0,0.0,0.0,0.0,0.0,0.0,0.0,0.0,0.0,0.0,0.0,0.0,0.0,0.0,0.0,0.0,0.0,0.0,0.0,0.0,0.0,0.0,0.0,0.0,0.0,0.0,0.0,0.0,0.0,0.0,0.0,0.0,0.0,0.0,0.0,0.0,0.0,0.0,0.0,0.0,0.0,0.0,0.0,0.0,0.0,0.0,0.0,0.0,0.0,0.0,0.0,0.0,0.0,0.0,0.0,0.0,0.0,0.0,0.0,0.0,0.0,0.0,0.0,0.0,0.0,0.0,0.0,0.0,0.0,0.8434,0.8449,0.9036,1.018,1.0246,1.025,0.0,0.0,0.0,0.0,0.0,0.0,0.0,0.0,0.0,0.0,0.0,0.0,0.0,0.0,0.0,0.0,0.0,0.0,0.0,0.0,0.0,0.0,0.0,0.0,0.0,0.0,0.0,0.0,0.0,0.0,0.0,0.0,0.0,0.0,0.0,0.0,0.0,0.0,0.0,0.0,0.0,0.0,0.0,0.0,0.0,0.0,0.0,0.0,0.0,0.0,0.0,0.0,0.0,0.0,0.0,0.0,0.0,0.0,0.0,0.0,0.0,0.0,0.0,0.0,0.0,0.0,0.0,0.0,0.0,0.0,0.0,0.0,0.0,0.0,0.0,0.0,0.0,0.0,0.0,0.0,0.0,0.0,0.0,0.0,0.0,0.0,0.0,0.0,0.0,0.0,0.0,0.0,0.0,0.0,0.0,0.0,0.0,0.0,0.0,0.0,0.0,0.0,0.0,0.0,0.0,0.0,0.0,0.0,0.0,0.8911,0.0,0.9309,0.0,1.0196,1.0223,0.0,0.0,0.0,0.0,0.0,0.0,0.0,0.0,0.0,0.0,0.0,0.0,0.0,0.0,0.0,0.0,0.0,0.0,0.0,0.0,0.0,0.0,0.0,0.0,0.0,0.0,0.0,0.0,0.0,0.0,0.0,0.0,0.0,0.0,0.0,0.0,0.0,0.0,0.0,0.0,0.0,0.0,0.0,0.0,0.0,0.0,0.0,0.0,0.0,0.0,0.0,0.0,0.0,0.0,0.0,0.0,0.0,0.0,0.0,0.0,0.0,0.0,0.0,0.0,0.0,0.0,0.0,0.0,0.0,0.0,0.0,0.0,0.0,0.0,0.0,0.0,0.0,0.0,0.0,0.0,0.0,0.0,0.0,0.0,0.0,0.0,0.0,0.0,0.0,0.0,0.0,0.0,0.0,0.0,0.0,0.0,0.0,0.0,0.0,0.0,0.0,0.0,0.0,0.0,0.0,0.0,0.0,0.0,0.8965,0.8926,0.8958,0.9418,1.0155,1.0194,1.0227,0.0,0.0,0.0,0.0,0.0,0.0,0.0,0.0,0.0,0.0,0.0,0.0,0.0,0.0,0.0,0.0,0.0,0.0,0.0,0.0,0.0,0.0,0.0,0.0,0.0,0.0,0.0,0.0,0.0,0.0,0.0,0.0,0.0,0.0,0.0,0.0,0.0,0.0,0.0,0.0,0.0,0.0,0.0,0.0,0.0,0.0,0.0,0.0,0.0,0.0,0.0,0.0,0.0,0.0,0.0,0.0,0.0,0.0,0.0,0.0,0.0,0.0,0.0,0.0,0.0,0.0,0.0,0.0,0.0,0.0,0.0,0.0,0.0,0.0,0.0,0.0,0.0,0.0,0.0,0.0,0.0,0.0,0.0,0.0,0.0,0.0,0.0,0.0,0.0,0.0,0.0,0.0,0.0,0.0,0.0,0.0,0.0,0.0,0.0,0.0,0.0,0.0,0.0,0.0,0.0,0.0,0.0,0.0,0.0,0.9782,1.0327,1.0477,1.0209,1.0198,1.0215,0.0,0.0,0.0,0.0,0.0,0.0,0.0,0.0,0.0,0.0,0.0,0.0,0.0,0.0,0.0,0.0,0.0,0.0,0.0,0.0,0.0,0.0,0.0,0.0,0.0,0.0,0.0,0.0,0.0,0.0,0.0,0.0,0.0,0.0,0.0,0.0,0.0,0.0,0.0,0.0,0.0,0.0,0.0,0.0,0.0,0.0,0.0,0.0,0.0,0.0,0.0,0.0,0.0,0.0,0.0,0.0,0.0,0.0,0.0,0.0,0.0,0.0,0.0,0.0,0.0,0.0,0.0,0.0,0.0,0.0,0.0,0.0,0.0,0.0,0.0,0.0,0.0,0.0,0.0,0.0,0.0,0.0,0.0,0.0,0.0,0.0,0.0,0.0,0.0,0.0,0.0,0.0,0.0,0.0,0.0,0.0,0.0,0.0,0.0,0.0,0.0,0.0,0.0,0.0,0.0,0.0,0.0,0.0,0.0,1.1565,1.2048,1.1782,1.0668,1.0649,1.0515,1.0213,0.0,0.0,0.0,0.0,0.0,0.0,0.0,0.0,0.0,0.0,0.0,0.0,0.0,0.0,0.0,0.0,0.0,0.0,0.0,0.0,0.0,0.0,0.0,0.0,0.0,0.0,0.0,0.0,0.0,0.0,0.0,0.0,0.0,0.0,0.0,0.0,0.0,0.0,0.0,0.0,0.0,0.0,0.0,0.0,0.0,0.0,0.0,0.0,0.0,0.0,0.0,0.0,0.0,0.0,0.0,0.0,0.0,0.0,0.0,0.0,0.0,0.0,0.0,0.0,0.0,0.0,0.0,0.0,0.0,0.0,0.0,0.0,0.0,0.0,0.0,0.0,0.0,0.0,0.0,0.0,0.0,0.0,0.0,0.0,0.0,0.0,0.0,0.0,0.0,0.0,0.0,0.0,0.0,0.0,0.0,0.0,0.0,0.0,0.0,0.0,0.0,0.0,0.0,0.0,0.0,0.0,0.0,0.0,1.392,1.4089,1.3327,1.1616,1.1506,1.1091,0.0,0.0,0.0,0.0,0.0,0.0,0.0,0.0,0.0,0.0,0.0,0.0,0.0,0.0,0.0,0.0,0.0,0.0,0.0,0.0,0.0,0.0,0.0,0.0,0.0,0.0,0.0,0.0,0.0,0.0,0.0,0.0,0.0,0.0,0.0,0.0,0.0,0.0,0.0,0.0,0.0,0.0,0.0,0.0,0.0,0.0,0.0,0.0,0.0,0.0,0.0,0.0,0.0,0.0,0.0,0.0,0.0,0.0,0.0,0.0,0.0,0.0,0.0,0.0,0.0,0.0,0.0,0.0,0.0,0.0,0.0,0.0,0.0,0.0,0.0,0.0,0.0,0.0,0.0,0.0,0.0,0.0,0.0,0.0,0.0,0.0,0.0,0.0,0.0,0.0,0.0,0.0,0.0,0.0,0.0,0.0,0.0,0.0,0.0,0.0,0.0,0.0,0.0,0.0,0.0,0.0,0.0,0.0,0.0,1.5507,1.6711,1.6029,1.3303,1.2641,1.1963,0.0,0.0,0.0,0.0,0.0,0.0,0.0,0.0,0.0,0.0,0.0,0.0,0.0,0.0,0.0,0.0,0.0,0.0,0.0,0.0,0.0,0.0,0.0,0.0,0.0,0.0,0.0,0.0,0.0,0.0,0.0,0.0,0.0,0.0,0.0,0.0,0.0,0.0,0.0,0.0,0.0,0.0,0.0,0.0,0.0,0.0,0.0,0.0,0.0,0.0,0.0,0.0,0.0,0.0,0.0,0.0,0.0,0.0,0.0,0.0,0.0,0.0,0.0,0.0,0.0,0.0,0.0,0.0,0.0,0.0,0.0,0.0,0.0,0.0,0.0,0.0,0.0,0.0,0.0,0.0,0.0,0.0,0.0,0.0,0.0,0.0,0.0,0.0,0.0,0.0,0.0,0.0,0.0,0.0,0.0,0.0,0.0,0.0,0.0,0.0,0.0,0.0,0.0,0.0,0.0,0.0,0.0,0.0,1.5337,1.6496,1.8149,1.7829,1.5327,1.3934,1.2622,0.0,0.0,0.0,0.0,0.0,0.0,0.0,0.0,0.0,0.0,0.0,0.0,0.0,0.0,0.0,0.0,0.0,0.0,0.0,0.0,0.0,0.0,0.0,0.0,0.0,0.0,0.0,0.0,0.0,0.0,0.0,0.0,0.0,0.0,0.0,0.0,0.0,0.0,0.0,0.0,0.0,0.0,0.0,0.0,0.0,0.0,0.0,0.0,0.0,0.0,0.0,0.0,0.0,0.0,0.0,0.0,0.0,0.0,0.0,0.0,0.0,0.0,0.0,0.0,0.0,0.0,0.0,0.0,0.0,0.0,0.0,0.0,0.0,0.0,0.0,0.0,0.0,0.0,0.0,0.0,0.0,0.0,0.0,0.0,0.0,0.0,0.0,0.0,0.0,0.0,0.0,0.0,0.0,0.0,0.0,0.0,0.0,0.0,0.0,0.0,0.0,0.0,0.0,0.0,0.0,0.0,0.0,0.0,1.5518,1.7175,1.8782,1.8908,1.7423,1.5296,1.331,0.0,0.0,0.0,0.0,0.0,0.0,0.0,0.0,0.0,0.0,0.0,0.0,0.0,0.0,0.0,0.0,0.0,0.0,0.0,0.0,0.0,0.0,0.0,0.0,0.0,0.0,0.0,0.0,0.0,0.0,0.0,0.0,0.0,0.0,0.0,0.0,0.0,0.0,0.0,0.0,0.0,0.0,0.0,0.0,0.0,0.0,0.0,0.0,0.0,0.0,0.0,0.0,0.0,0.0,0.0,0.0,0.0,0.0,0.0,0.0,0.0,0.0,0.0,0.0,0.0,0.0,0.0,0.0,0.0,0.0,0.0,0.0,0.0,0.0,0.0,0.0,0.0,0.0,0.0,0.0,0.0,0.0,0.0,0.0,0.0,0.0,0.0,0.0,0.0,0.0,0.0,0.0,0.0,0.0,0.0,0.0,0.0,0.0,0.0,0.0,0.0,0.0,0.0,0.0,0.0,0.0,0.0,0.0,1.6331,1.794,1.8973,1.9078,1.818,1.6569,1.4648,0.0,0.0,0.0,0.0,0.0,0.0,0.0,0.0,0.0,0.0,0.0,0.0,0.0,0.0,0.0,0.0,0.0,0.0,0.0,0.0,0.0,0.0,0.0,0.0,0.0,0.0,0.0,0.0,0.0,0.0,0.0,0.0,0.0,0.0,0.0,0.0,0.0,0.0,0.0,0.0,0.0,0.0,0.0,0.0,0.0,0.0,0.0,0.0,0.9206,0.0,0.0,0.0,0.0,0.0,0.0,0.0,0.0,0.0,0.0,0.0,0.0,0.0,0.0,0.0,0.0,0.0,0.0,0.0,0.0,0.0,0.0,0.0,0.0,0.0,0.0,0.0,0.0,0.0,0.0,0.0,0.0,0.0,0.0,0.0,0.0,0.0,0.0,0.0,0.0,0.0,0.0,0.0,0.0,0.0,0.0,0.0,0.0,0.0,0.0,0.0,0.0,0.0,0.0,0.0,0.0,0.0,0.0,0.0,1.6913,1.8135,1.9354,1.9442,1.8339,1.7566,1.6088,0.0,0.0,0.0,0.0,0.0,0.0,0.0,0.0,0.0,0.0,0.0,0.0,0.0,0.0,0.0,0.0,0.0,0.0,0.0,0.0,0.0,0.0,0.0,0.0,0.0,0.0,0.0,0.0,0.0,0.0,0.0,0.0,0.0,0.0,0.0,0.0,0.0,0.0,0.0,0.0,0.0,0.0,0.0,0.0,0.0,0.0,0.0,0.0,0.0,0.0,0.0,0.0,0.0,0.0,0.0,0.0,0.0,0.0,0.0,0.0,0.0,0.0,0.0,0.0,0.0,0.0,0.0,0.0,0.0,0.0,0.0,0.0,0.0,0.0,0.0,0.0,0.0,0.0,0.0,0.0,0.0,0.0,0.0,0.0,0.0,0.0,0.0,0.0,0.0,0.0,0.0,0.0,0.0,0.0,0.0,0.0,0.0,0.0,0.0,0.0,0.0,0.0,0.0,0.0,0.0,0.0,0.0,1.5996,1.7625,1.8452,1.99,1.9995,1.8605,1.851,1.7501,1.5395,0.0,0.0,0.0,0.0,0.0,0.0,0.0,0.0,0.0,0.0,0.0,0.0,0.0,0.0,0.0,0.0,0.0,0.0,0.0,0.0,0.0,0.0,0.0,0.0,0.0,0.0,0.0,0.0,0.0,0.0,0.0,0.0,0.0,0.0,0.0,0.0,0.0,0.0,0.7364,0.8246,0.0,0.0,0.0,0.0,0.0,0.0,0.0,0.0,0.8242,0.0,0.0,0.0,0.0,0.0,0.0,0.0,0.0,0.0,0.0,0.0,0.0,0.0,0.0,0.0,0.0,0.0,0.0,0.0,0.0,0.0,0.0,0.0,0.0,0.0,0.0,0.0,0.0,0.0,0.0,0.0,0.0,0.0,0.0,0.0,0.0,0.0,0.0,0.0,0.0,0.0,0.0,0.0,0.0,0.0,0.0,0.0,0.0,0.0,0.0,0.0,0.0,0.0,0.0,0.0,0.0,1.5123,1.7465,1.9084,1.9924,2.0914,2.1012,2.0152,1.959,1.8525,1.686,0.0,0.0,0.0,0.0,0.0,0.0,0.0,0.0,0.0,0.0,0.0,0.0,0.0,0.0,0.0,0.0,0.0,0.0,0.0,0.0,0.0,0.0,0.0,0.0,0.0,0.0,0.0,0.0,0.0,0.0,0.0,0.0,0.0,0.0,0.0,0.0,0.0,0.0,0.0,0.9111,0.974,0.0,0.0,0.0,0.0,0.0,0.0,0.0,0.0,0.9544,0.0,0.0,0.0,0.0,0.0,0.0,0.0,0.0,0.0,0.0,0.0,0.0,0.0,0.0,0.0,0.0,0.0,0.0,0.0,0.0,0.0,0.0,0.0,0.0,0.0,0.0,0.0,0.0,0.0,0.0,0.0,0.0,0.0,0.0,0.0,0.0,0.0,0.0,0.0,0.0,0.0,0.0,0.0,0.0,0.0,0.0,0.0,0.0,0.0,0.0,0.0,0.0,0.0,0.0,0.0,1.5872,1.8556,2.037,2.1285,2.2584,2.272,2.1607,2.0576,1.9132,0.0,0.0,0.0,0.0,0.0,0.0,0.0,0.0,0.0,0.0,0.0,0.0,0.0,0.0,0.0,0.0,0.0,0.0,0.0,0.0,0.0,0.0,0.0,0.0,0.0,0.0,0.0,0.0,0.0,0.0,0.0,0.0,0.0,0.0,0.0,0.0,0.0,0.0,0.0,0.0,0.9985,1.0734,1.1126,0.0,0.0,0.0,0.0,0.0,0.0,0.9757,0.9762,0.0,0.0,0.0,0.0,0.0,0.0,0.0,0.0,0.0,0.0,0.0,0.0,0.0,0.0,0.0,0.0,0.0,0.0,0.0,0.0,0.0,0.0,0.0,0.0,0.0,0.0,0.0,0.0,0.0,0.0,0.0,0.0,0.0,0.0,0.0,0.0,0.0,0.0,0.0,0.0,0.0,0.0,0.0,0.0,0.0,0.0,0.0,0.0,0.0,0.0,0.0,0.0,0.0,0.0,0.0,1.6387,1.9415,2.1425,2.2373,2.4051,2.4271,2.2831,2.1616,1.9819,0.0,0.0,0.0,0.0,0.0,0.0,0.0,0.0,0.0,0.0,0.0,0.0,0.0,0.0,0.0,0.0,0.0,0.0,0.0,0.0,0.0,0.0,0.0,0.0,0.0,0.0,0.0,0.0,0.0,0.0,0.0,0.0,0.0,0.0,0.0,0.0,0.0,0.0,0.0,0.0,0.0,1.1867,1.2334,1.2692,0.0,0.0,0.0,0.0,1.0639,1.0608,0.0,0.0,0.0,0.0,0.0,0.0,0.0,0.0,0.0,0.0,0.0,0.0,0.0,0.0,0.0,0.0,0.0,0.0,0.0,0.0,0.0,0.0,0.0,0.0,0.0,0.0,0.0,0.0,0.0,0.0,0.0,0.0,0.0,0.0,0.0,0.0,0.0,0.0,0.0,0.0,0.0,0.0,0.0,0.0,0.0,0.0,0.0,0.0,0.0,0.0,0.0,0.0,0.0,0.0,0.0,0.0,1.701,2.0013,2.2029,2.2926,2.4622,2.4854,2.3526,2.2864,2.1141,0.0,0.0,0.0,0.0,0.0,0.0,0.0,0.0,0.0,0.0,0.0,0.0,0.0,0.0,0.0,0.0,0.0,0.0,0.0,0.0,0.0,0.0,0.0,0.0,0.0,0.0,0.0,0.0,0.0,0.0,0.0,0.0,0.0,0.0,0.0,0.0,0.0,0.0,0.0,0.0,0.0,1.3159,1.2481,1.3667,1.4049,0.0,0.0,0.0,1.3168,1.3214,0.0,0.0,0.0,0.0,0.0,0.0,0.0,0.0,0.0,0.0,0.0,0.0,0.0,0.0,0.0,0.0,0.0,0.0,0.0,0.0,0.0,0.0,0.0,0.0,0.0,0.0,0.0,0.0,0.0,0.0,0.0,0.0,0.0,0.0,0.0,0.0,0.0,0.0,0.0,0.0,0.0,0.0,0.0,0.0,0.0,0.0,0.0,0.0,0.0,0.0,0.0,0.0,0.0,0.0,0.0,1.4855,1.7479,2.0485,2.2705,2.3995,2.5694,2.5938,2.4647,2.33,2.1152,0.0,0.0,0.0,0.0,0.0,0.0,0.0,0.0,0.0,0.0,0.0,0.0,0.0,0.0,0.0,0.0,0.0,0.0,0.0,0.0,0.0,0.0,0.0,0.0,0.0,0.0,0.0,0.0,0.0,0.0,0.0,0.0,0.0,0.0,0.0,0.0,0.0,0.0,0.0,0.0,0.0,0.0,1.4543,1.5174,0.0,0.0,0.0,1.526,1.5746,0.0,0.0,0.0,0.0,0.0,0.0,0.0,0.0,0.0,0.0,0.0,0.0,0.0,0.0,0.0,0.0,0.0,0.0,0.0,0.0,0.0,0.0,0.0,0.0,0.0,0.0,0.0,0.0,0.0,0.0,0.0,0.0,0.0,0.0,0.0,0.0,0.0,0.0,0.0,0.0,0.0,0.0,0.0,0.0,0.0,0.0,0.0,0.0,0.0,0.0,0.0,0.0,0.0,0.0,0.0,0.0,0.0,1.7783,2.0775,2.3093,2.4737,2.639,2.6636,2.5343,2.3561,0.0,0.0,0.0,0.0,0.0,0.0,0.0,0.0,0.0,0.0,0.0,0.0,0.0,0.0,0.0,0.0,0.0,0.0,0.0,0.0,0.0,0.0,0.0,0.0,0.0,0.0,0.0,0.533,0.0,0.0,0.0,0.0,0.0,0.0,0.0,0.0,0.0,0.0,0.0,0.0,0.0,0.0,1.5636,1.6439,1.6723,1.6946,0.0,0.0,1.7392,1.8047,1.8032,1.7416,0.0,0.0,0.0,0.0,0.0,0.0,0.0,0.0,0.0,0.0,0.0,0.0,0.0,0.0,0.0,0.0,0.0,0.0,0.0,0.0,0.0,0.0,0.0,0.0,0.0,0.0,0.0,0.0,0.0,0.0,0.0,0.0,0.0,0.0,0.0,0.0,0.0,0.0,0.0,0.0,0.0,0.0,0.0,0.0,0.0,0.0,0.0,0.0,0.0,0.0,0.0,0.0,0.0,0.0,0.0,1.7783,2.0775,2.3064,2.4596,2.625,2.6471,2.5153,2.3885,2.1839,0.0,0.0,0.0,0.0,0.0,0.0,0.0,0.0,0.0,0.0,0.0,0.0,0.0,0.0,0.0,0.0,0.0,0.0,0.0,0.0,0.0,0.0,0.0,0.0,0.0,0.0,0.0,0.0,0.0,0.0,0.0,0.0,0.0,0.0,0.0,0.0,0.0,0.0,0.0,0.0,0.0,1.6614,1.7409,1.8149,1.8187,0.0,0.0,1.9783,1.9912,1.9294,1.8469,1.7492,0.0,0.0,0.0,0.0,0.0,0.0,0.0,0.0,0.0,0.0,0.0,0.0,0.0,0.0,0.0,0.0,0.0,0.0,0.0,0.0,0.0,0.0,0.0,0.0,0.0,0.0,0.0,0.0,0.0,0.0,0.0,0.0,0.0,0.0,0.0,0.0,0.0,0.0,0.0,0.0,0.0,0.0,0.0,0.0,0.0,0.0,0.0,0.0,0.0,0.0,0.0,0.0,0.0,1.5535,1.8454,2.1465,2.3255,2.3877,2.538,2.5557,2.421,2.289,2.1055,0.0,0.0,0.0,0.0,0.0,0.0,0.0,0.0,0.0,0.0,0.0,0.0,0.0,0.0,0.0,0.0,0.0,0.0,0.0,0.0,0.0,0.0,0.0,0.0,0.0,0.0,0.0,0.0,0.6506,0.703,0.8146,0.0,0.0,0.0,0.0,0.0,0.0,0.0,0.0,0.0,0.0,1.7126,1.8939,1.9465,0.0,0.0,2.0838,2.1487,2.1197,2.0787,1.9849,1.7933,1.5895,0.0,0.0,0.0,0.0,0.0,0.0,0.0,0.0,0.0,0.0,0.0,0.0,0.0,0.0,0.0,0.0,0.0,0.0,0.0,0.0,0.0,0.0,0.0,0.0,0.0,0.0,0.0,0.0,0.0,0.0,0.0,0.0,0.0,0.0,0.0,0.0,0.0,0.0,0.0,0.0,0.0,0.0,0.0,0.0,0.0,0.0,0.0,0.0,0.0,0.0,0.0,0.0,1.6038,1.9203,2.1972,2.3511,2.3729,2.4949,2.4945,2.3616,2.2421,2.0828,0.0,0.0,0.0,0.0,0.0,0.0,0.0,0.0,0.0,0.0,0.0,0.0,0.0,0.0,0.0,0.0,0.0,0.0,0.0,0.0,0.0,0.0,0.0,0.0,0.0,0.0,0.0,0.0,0.7663,0.8204,0.8771,0.0,0.0,0.0,0.0,0.0,0.0,0.0,0.0,0.0,0.0,1.8105,2.0327,2.0853,2.1262,2.1987,2.2863,2.3132,2.2258,2.1793,2.0743,1.8447,0.0,0.0,0.0,0.0,0.0,0.0,0.0,0.0,0.0,0.0,0.0,0.0,0.0,0.0,0.0,0.0,0.0,0.0,0.0,0.0,0.0,0.0,0.0,0.0,0.0,0.0,0.0,0.0,0.0,0.0,0.8502,0.0,0.0,0.0,0.0,0.0,0.0,0.0,0.0,0.0,0.0,0.0,0.0,0.0,0.0,0.0,0.0,0.0,0.0,0.0,0.0,0.0,0.0,0.0,1.993,2.2279,2.3765,2.444,2.522,2.4929,2.3578,2.2842,2.1502,1.9386,0.0,0.0,0.0,0.0,0.0,0.0,0.0,0.0,0.0,0.0,0.0,0.0,0.0,0.0,0.0,0.0,0.0,0.0,0.0,0.0,0.0,0.0,0.0,0.0,0.0,0.0,0.8923,0.8892,0.8879,0.0,0.0,0.0,0.0,0.0,0.0,0.0,0.0,0.0,0.0,1.8051,1.9758,2.1432,2.2365,2.2887,2.2882,2.4277,2.4775,2.3172,2.2184,2.1004,0.0,0.0,0.0,0.0,0.0,0.0,0.0,0.0,0.0,0.0,0.0,0.0,0.0,0.0,0.0,0.0,0.0,0.0,0.0,0.0,0.0,0.0,0.0,0.0,0.0,0.0,0.0,1.4298,1.3244,0.0,0.0,0.0,0.0,0.0,0.0,0.0,0.0,0.0,0.0,0.0,2.0607,2.0097,0.0,0.0,0.0,0.0,0.0,0.0,0.0,0.0,0.0,0.0,0.0,0.0,1.7333,2.0555,2.3435,2.4729,2.4525,2.522,2.5151,2.4182,2.3466,2.1659,1.8559,0.0,0.0,0.0,0.0,0.0,0.0,0.0,0.0,0.0,0.0,0.0,0.0,0.0,0.0,0.0,0.0,0.0,0.0,0.0,0.0,0.0,0.0,0.0,0.0,0.0,0.9238,0.0,0.0,0.0,0.0,0.0,0.0,0.0,0.0,0.0,0.0,0.0,1.5898,1.7344,1.8533,2.0285,2.3083,2.418,2.5214,0.0,0.0,0.0,0.0,0.0,0.0,0.0,0.0,0.0,0.0,0.0,0.0,0.0,0.0,1.8361,1.6982,1.6016,1.5112,1.4218,0.0,0.0,0.0,0.0,0.0,0.0,0.0,0.0,0.0,0.0,0.0,0.0,0.0,0.0,1.7654,0.0,1.5461,0.0,0.0,0.0,0.0,0.0,0.0,0.0,0.0,2.3747,2.4692,2.4437,2.3944,2.4111,0.0,2.5115,2.3664,0.0,0.0,0.0,0.0,0.0,0.0,0.0,0.0,1.8805,2.1816,2.4695,2.5816,2.5176,2.5613,2.5427,2.4495,2.3543,2.183,1.9235,1.7154,1.5058,0.0,0.0,0.0,0.0,0.0,0.0,0.0,0.0,0.0,0.0,0.0,0.0,0.0,0.0,0.0,0.0,0.0,0.0,0.0,0.0,0.0,0.0,0.0,0.931,0.0,0.0,0.0,0.0,0.0,0.0,0.0,0.0,0.0,1.3769,1.5447,1.7262,1.8677,1.9897,2.1659,2.4453,0.0,0.0,0.0,0.0,0.0,0.0,0.0,2.4305,2.4361,2.4072,2.4064,2.4606,2.3714,2.2582,2.1639,0.0,0.0,1.9711,1.8448,1.738,1.6472,1.5372,1.4692,1.5,1.4859,1.4313,0.0,0.0,0.0,0.0,0.0,0.0,0.0,0.0,2.1291,2.0288,0.0,1.7669,0.0,0.0,0.0,0.0,0.0,0.0,0.0,0.0,2.7142,2.8025,2.7542,2.734,2.7434,2.7766,2.8023,2.8085,2.7759,2.393,0.0,0.0,0.0,0.0,0.0,0.0,2.0629,2.3534,2.5972,2.6945,2.6358,2.6413,2.5815,2.4536,2.3221,2.2201,2.1382,1.9396,1.7296,1.5174,1.3725,0.0,0.0,0.0,0.0,0.0,0.0,0.0,0.0,0.0,0.0,0.0,0.0,0.0,0.0,0.0,0.0,0.0,0.0,0.0,0.0,0.8512,0.0,0.0,0.0,0.0,0.0,0.0,0.0,0.0,0.0,0.0,1.5735,1.7769,1.9617,2.0519,0.0,0.0,0.0,0.0,2.8983,3.0723,3.0934,3.0162,2.792,2.7297,2.7072,2.7113,0.0,0.0,2.8279,2.6831,2.537,2.4385,2.3608,2.2991,2.2866,2.138,1.9956,1.9026,1.7612,1.6839,1.7397,1.7136,1.6886,2.9837,0.0,0.0,0.0,0.0,2.5432,2.6354,2.73,2.6617,2.5585,2.4253,2.293,0.0,0.0,0.0,0.0,0.0,0.0,2.5603,2.7689,2.9901,3.0815,3.0593,3.059,3.0723,3.0951,3.1234,3.0822,2.984,2.8654,2.5653,2.1014,0.0,0.0,0.0,0.0,2.13,2.3668,2.6414,2.7618,2.7176,2.7374,2.702,2.6067,2.5152,2.4337,2.3587,2.154,1.9395,1.7218,1.5289,0.0,0.0,0.0,0.0,0.0,0.0,0.0,0.0,0.0,0.0,0.0,0.0,0.0,0.0,0.0,0.0,0.0,0.0,0.0,0.9312,1.0698,1.1642,0.0,0.0,0.0,0.0,0.0,0.0,0.0,0.0,0.0,2.0307,2.1262,2.2172,0.0,0.0,2.7232,2.896,3.0625,3.1931,3.2528,0.0,0.0,0.0,3.0672,3.0824,3.1429,3.2246,3.2597,3.1915,3.0414,2.8785,2.7207,2.6262,2.5496,2.4754,2.3327,2.169,2.0284,1.996,1.9929,1.961,1.9785,2.0314,3.5194,3.1319,2.9633,2.8985,2.9196,3.0018,3.0983,3.1884,3.1225,3.0328,2.925,2.7908,2.6249,2.4373,2.346,0.0,0.0,0.0,2.858,3.0009,3.1781,3.2581,3.2538,3.2552,3.2668,3.2771,3.2957,3.2586,3.1748,3.1213,2.9205,2.5685,0.0,0.0,2.066,2.1538,2.2999,2.5124,2.75,2.8661,2.8509,2.8389,2.791,2.7026,2.6084,2.5238,2.4508,2.2414,2.0373,1.8511,1.6645,1.464,0.0,0.0,0.0,0.0,0.0,0.0,0.0,0.0,0.0,0.0,0.0,0.7189,0.8378,0.0,0.0,0.0,0.8458,0.9152,1.0823,1.1884,0.0,0.0,0.0,0.0,0.0,0.0,0.0,1.8284,1.9758,2.1374,2.3213,2.4671,2.5589,2.5616,2.7845,2.9977,3.1402,0.0,3.4163,3.425,3.5018,3.5134,3.3823,3.3612,3.3903,3.4761,3.5346,3.5228,3.4036,3.2464,3.0611,2.8653,2.7435,2.6578,2.5734,2.4705,2.3592,2.218,2.2006,2.2047,2.1883,2.2302,2.2896,3.926,3.8362,3.537,3.3679,3.3095,3.4309,3.5192,3.5744,3.507,3.4459,3.3709,3.2422,3.0763,2.8921,2.7694,0.0,2.8229,3.0043,3.127,3.1944,3.323,3.3784,3.3739,3.3724,3.3664,3.3574,3.3574,3.3514,3.335,3.2243,3.1256,3.0387,2.5946,2.3542,2.3322,2.4088,2.5433,2.7363,2.8949,2.9837,3.0003,2.9364,2.8542,2.7548,2.6251,2.5209,2.4458,2.2437,2.0641,1.9229,1.7781,1.6024,1.3983,0.0,0.0,0.0,0.0,0.0,0.0,0.0,0.0,0.0,0.0,0.0,0.0,0.0,0.0,0.0,1.011,0.0,1.2429,1.2695,0.0,0.0,0.0,1.4513,1.6112,1.7693,1.9037,1.9976,0.0,0.0,2.496,0.0,2.9498,2.8465,3.0496,3.24,3.3337,3.4941,3.5969,3.5921,3.6732,3.7099,3.6356,3.635,3.6784,3.7527,3.7533,3.6832,3.5078,3.3241,3.1202,2.8664,2.751,2.6653,2.5832,2.5616,2.5434,2.4489,2.3759,2.3447,2.3986,2.4237,2.4527,4.1317,4.0606,3.9828,3.8542,3.703,3.733,3.7838,3.8422,3.7764,3.709,3.6402,3.513,3.3739,3.2317,3.2003,3.2242,3.2916,3.3873,3.4681,3.534,3.6118,3.6222,3.5789,3.5789,3.525,3.4309,3.4264,3.3724,3.2796,3.2946,3.2168,3.0522,2.933,2.7965,2.654,2.6702,2.7284,2.8292,2.9626,3.0285,3.0201,2.9478,2.8678,2.7813,2.6652,2.5548,2.4509,2.2917,2.1343,1.9849,1.8387,1.6842,1.5241,1.3965,0.0,0.0,0.0,0.0,0.0,0.0,0.0,0.0,0.0,1.0435,1.1482,0.0,1.2078,0.0,1.2784,1.396,1.4953,1.6193,0.0,0.0,1.6987,1.7627,1.8653,1.9648,2.1054,2.3131,2.4431,2.5943,2.8026,3.0596,3.2427,3.2854,3.4217,3.5568,3.6566,3.7668,3.8214,3.7783,3.8827,3.9533,3.8898,3.9797,4.0604,4.0883,3.9872,3.828,3.5986,3.366,3.1268,2.8827,2.7557,2.6697,2.5896,2.5701,2.5661,2.5405,2.5196,2.4901,2.4492,2.488,2.5407,4.2581,4.2252,4.2252,4.1609,4.0546,3.9978,3.9948,4.0262,3.9888,3.9349,3.8661,3.736,3.6372,3.5669,3.537,3.5429,3.5804,3.6178,3.6552,3.6911,3.7255,3.7225,3.6881,3.6611,3.5938,3.4906,3.4038,3.338,3.2961,3.2736,3.2347,3.1839,3.1839,3.1285,3.0235,2.8798,2.8502,2.9445,3.0531,3.0948,3.0665,3.0093,2.9277,2.8142,2.6768,2.536,2.3914,2.2476,2.1174,2.0035,1.8915,1.7777,1.6644,1.5569,1.4153,0.0,0.0,0.0,0.0,0.0,0.0,0.0,0.0,0.0,0.0,0.0,1.4467,1.4788,1.5667,1.6688,1.7846,1.9135,1.9723,1.9297,1.963,2.0093,2.0552,2.1591,2.296,2.4699,2.6541,2.8355,3.0098,3.2784,3.4723,3.5336,3.6652,3.7701,3.8175,3.9054,3.9556,3.9231,4.0304,4.1235,4.1139,4.1989,4.2505,4.2053,4.0706,3.8765,3.6281,3.4092,3.1813,2.9407,2.8453,2.7691,2.6558,2.6637,2.6753,2.6423,2.6601,2.6364,2.5247,2.5342,2.5693,4.3544,4.3544,4.3454,4.3424,4.3319,4.2147,4.1624,4.1662,4.1549,4.113,4.0457,3.929,3.8736,3.8601,3.7958,3.7614,3.7539,3.7449,3.7404,3.7404,3.7494,3.7494,3.7389,3.6956,3.6297,3.5444,3.3649,3.3006,3.3455,3.2303,3.2333,3.3469,3.3574,3.3574,3.338,3.0657,2.9744,3.0746,3.1489,3.163,3.1156,3.0792,2.9882,2.8417,2.6638,2.4834,2.2965,2.1664,2.0632,1.99,1.9338,1.8707,1.798,1.7296,1.5979,0.0,1.452,0.0,0.0,0.0,0.0,0.0,0.0,0.0,0.0,1.6686,1.7082,1.8679,1.884,1.94,2.0791,2.1705,2.2181,2.208,2.2172,2.2235,2.23,2.3565,2.4794,2.5593,2.8315,3.0497,3.1494,3.4394,3.6503,3.6708,3.8079,3.9002,3.8874,3.9497,4.0072,4.0297,4.1267,4.2248,4.3221,4.357,4.3363,4.2472,4.1111,3.9,3.6414,3.4539,3.255,3.0292,2.9616,2.909,2.7569,2.7938,2.8094,2.7295,2.7654,2.7608,2.6288,2.5898,2.582,4.4915,4.4885,4.4347,4.4137,4.4062,4.326,4.2931,4.2925,4.2402,4.1841,4.119,4.092,4.0569,3.9978,3.9334,3.8736,3.8182,3.7659,3.7404,3.7419,3.7958,3.7913,3.7464,3.7838,3.715,3.5519,3.4562,3.3888,3.3499,3.3245,3.3245,3.3499,3.4054,3.4054,3.3499,0.0,0.0,0.0,3.2258,3.2062,3.1416,3.0531,2.9516,2.8404,2.6267,0.0,2.193,2.1197,2.0291,1.9203,1.9541,0.0,0.0,0.0,0.0,0.0,0.0,0.0,0.0,0.0,0.0,0.0,2.3446,2.2824,2.1195,2.1173,2.1655,2.2608,2.2727,2.2843,2.3161,2.3907,2.4138,2.3608,2.4132,2.4563,2.46,2.5392,2.6297,2.7111,2.8864,3.0624,3.2279,3.5174,3.7265,3.7477,3.8894,3.9644,3.9096,3.9399,3.9765,4.0007,4.1447,4.3164,4.4925,4.5046,4.4526,4.3917,4.2543,4.025,3.724,3.5105,3.3163,3.093,3.0436,3.0208,2.911,2.9007,2.9013,2.8062,2.8087,2.7867,2.6946,2.6775,2.6562,4.4815,0.0,4.4739,4.4493,0.0,4.3958,4.3589,4.326,4.2985,4.2476,4.1886,4.1557,4.0846,3.9873,3.9215,3.8197,3.6941,3.6267,3.6133,3.6492,3.715,3.7614,3.7898,3.8242,3.7704,3.6417,3.51,3.4518,3.4457,3.3814,3.3829,3.4487,3.4518,3.4503,3.4487,3.4487,3.3993,3.3006,3.2991,3.2647,3.1989,3.1185,3.013,2.8759,0.0,0.0,0.0,0.0,0.0,0.0,0.0,0.0,0.0,0.0,0.0,1.7929,1.9193,2.0344,2.1109,2.3192,2.527,2.7114,2.8134,2.7219,2.3855,2.3807,2.4277,2.5031,2.515,2.531,2.5714,2.6453,2.666,2.6074,2.679,2.7091,2.6421,2.6904,2.7562,2.8154,2.9813,3.1683,3.3378,3.656,3.8374,3.829,3.9565,4.0197,3.918,3.9227,3.9756,4.0802,4.1436,4.266,4.4327,4.4441,4.3942,4.2983,4.1931,4.0196,3.7783,3.5944,3.4385,3.3322,3.3128,3.2736,3.153,3.1511,3.1437,3.0339,3.0293,3.0339,2.9558,2.8184,2.6735,4.4414,4.4758,4.4968,4.4864,4.4661,4.4526,4.4082,4.3454,0.0,0.0,0.0,4.1968,4.101,3.9723,3.8931,3.7569,3.5833,3.5011,3.5026,3.5699,3.6342,3.7255,3.8377,3.8512,3.8227,3.7509,3.5804,3.528,3.5774,3.4607,3.4577,3.5519,3.5028,3.4816,3.513,3.5145,3.4666,3.3724,3.3664,3.329,3.2527,3.1941,3.0862,2.9214,2.7578,2.5699,2.3549,2.3224,2.2834,2.2315,2.2503,2.2639,2.2685,2.2818,2.2313,2.1201,2.3124,2.4778,2.5642,2.7046,2.8738,3.0731,3.1504,3.0311,2.653,2.6397,2.6743,2.7387,2.735,2.7522,2.818,2.8699,2.8861,2.8407,2.9161,2.9116,2.7802,2.8105,2.8527,2.8815,3.0422,3.2506,3.434,3.7247,3.9307,3.9072,3.9843,4.0388,3.9258,3.9252,4.016,4.1839,4.1865,4.1998,4.3291,4.3257,4.2418,4.1893,4.1113,3.9989,3.8562,3.7301,3.6528,3.6298,3.6565,3.6192,3.4731,3.48,3.4675,3.3199,3.3495,3.382,3.2829,3.0463,2.7998,4.4661,4.528,4.5201,4.5486,4.5992,4.5409,4.4781,4.4137,4.3544,4.3245,4.3155,4.3065,4.2342,4.1025,3.9813,3.8497,3.709,3.5908,3.5714,0.0,3.6985,3.7674,3.8442,3.899,3.8916,3.8227,3.7389,3.7045,3.7045,3.6417,3.6178,3.6252,3.5684,3.4831,3.3858,3.3784,3.3963,3.4354,3.4384,3.3739,3.2542,3.1869,3.0894,2.9567,2.8349,2.6793,2.4933,2.5194,2.4785,2.3473,2.4199,2.4545,2.4223,2.4814,2.5018,2.4933,2.6962,2.8807,3.0142,3.163,3.2865,3.3728,3.3448,3.2454,3.095,3.0906,3.1011,3.1115,3.0473,3.0246,3.0333,2.9899,2.9668,2.9637,2.9971,2.9822,2.8947,2.8987,2.9087,2.9033,2.9953,3.1625,3.3968,3.6154,3.8003,3.8894,3.9529,3.9579,3.9654,3.9774,4.0737,4.2169,4.2149,4.2259,4.2975,4.2702,4.2051,4.2059,4.1336,4.0561,3.9757,3.949,3.921,3.8878,4.0288,4.0654,3.8794,3.8493,3.7986,3.7042,3.7051,3.696,3.6154,3.4385,3.1598,4.4911,4.5463,4.5829,4.6105,4.6219,4.5589,4.5125,4.4796,4.4097,4.3658,4.3305,4.3305,4.2611,4.1339,4.0367,3.902,3.736,3.6447,3.6387,3.6985,3.7285,3.7973,3.8916,3.926,3.9245,3.8931,3.8646,3.8497,3.8452,3.7838,3.7345,3.6911,3.5624,3.4292,3.308,3.332,3.3649,3.3948,3.4324,3.4204,3.3589,3.329,3.2497,3.121,3.0042,2.8541,2.6756,2.676,2.6293,2.5158,2.6034,2.6376,2.6031,2.7105,2.7609,2.7344,2.9402,3.1179,3.2324,3.4167,3.5385,3.5707,3.5808,3.5616,3.5112,3.3615,3.2735,3.2698,3.2393,3.2053,3.1679,3.1319,3.1015,3.0783,3.0976,3.0797,3.0133,3.0007,2.9865,2.9521,3.0075,3.1383,3.3456,3.5312,3.7023,3.8472,3.9155,3.9769,4.0437,4.0844,4.1399,4.2387,4.1785,4.1497,4.2222,4.1379,4.0716,4.0585,4.0402,4.0166,3.9965,4.0196,4.0405,4.0656,4.2544,4.3024,4.0994,4.0496,4.0112,3.9451,3.924,3.9089,3.8637,3.6874,3.324,4.5246,4.5782,4.6268,4.6518,4.6459,4.5978,4.5678,4.5484,4.499,4.4351,4.3753,4.3439,4.2701,4.1632,4.092,3.9694,3.8153,3.7434,3.7494,3.8048,3.8093,3.8646,3.9544,3.9597,3.9574,3.9403,3.9388,3.9388,3.9313,3.8871,3.8123,3.712,3.537,3.3814,3.2512,3.2871,3.3125,3.3305,3.3964,3.4294,3.4294,3.4429,3.3949,3.2766,3.1671,3.037,2.8884,2.836,2.7727,2.6962,2.7458,2.7697,2.7538,2.8962,2.9752,2.9692,3.1554,3.3198,3.4163,3.578,3.6863,3.7066,3.7567,3.7882,3.7719,3.5785,3.4421,3.4404,3.4155,3.3664,3.3126,3.2517,3.2133,3.1784,3.1723,3.1371,3.0766,3.0646,3.0439,2.9955,3.03,3.1289,3.2982,3.4619,3.6246,3.7868,3.9173,4.0283,4.1114,4.163,4.2212,4.2312,4.148,4.0774,4.1239,4.0212,3.9281,3.8979,3.9197,3.9439,3.9628,3.9979,4.0635,4.1452,4.3379,4.3996,4.261,4.2221,4.1973,4.1489,4.1445,4.1322,4.0886,3.8632,3.4907,4.5647,4.6273,4.6295,4.6594,4.7131,4.71,4.6756,4.6247,4.6142,4.5753,4.5005,4.3813,4.2985,4.2276,4.1662,4.0891,4.0098,3.9454,3.9514,4.0068,4.0127,4.0187,4.0322,4.0292,3.9993,3.9463,3.9403,3.9388,3.9388,3.9305,3.8342,3.6611,3.5192,3.3829,3.2587,3.1989,3.2004,3.2572,3.326,3.3589,3.3619,3.4173,3.4174,3.3425,3.2721,3.1973,3.1134,3.0223,2.9241,2.8301,2.7958,2.7943,2.834,2.9776,3.1126,3.2067,3.3821,3.5308,3.6343,3.6677,3.7127,3.7719,3.7905,3.799,3.799,3.7669,3.7483,3.7229,3.6197,3.538,3.5177,3.3575,3.2554,3.2502,3.2032,3.1306,3.0753,3.0483,3.0468,3.0357,3.0534,3.1125,3.2684,3.3963,3.5416,3.7467,3.9143,4.0348,4.0946,4.1785,4.2514,4.2723,4.1908,4.0866,4.036,3.939,3.877,3.8107,3.8471,3.9078,3.9485,3.9708,4.0231,4.1924,4.3198,4.404,4.4227,4.4304,4.4134,4.363,4.3632,4.3878,4.2699,4.0581,3.7115,4.6428,4.6845,4.6697,4.6887,4.7251,4.7309,4.716,4.6875,4.6486,4.6157,4.5813,4.49,4.4137,4.3509,4.3225,4.2761,4.2094,4.1825,4.184,4.2087,4.1743,4.1564,4.1527,4.0726,4.0247,3.9963,3.9619,3.9388,3.9313,3.9005,3.8197,3.7015,3.5729,3.4233,3.2602,3.2213,3.1854,3.1361,3.2766,3.3499,3.3634,3.4547,3.4951,3.4651,3.4038,3.3365,3.2647,3.1577,3.0664,3.0026,2.9524,2.9424,2.9713,3.0999,3.2281,3.3563,3.5578,3.6946,3.7415,3.7838,3.821,3.8548,3.8954,3.9216,3.9216,3.9191,3.9208,3.9022,3.7838,3.6823,3.6282,3.5064,3.4104,3.3689,3.3077,3.2502,3.2224,3.1771,3.1536,3.1497,3.1162,3.1285,3.252,3.4032,3.554,3.709,3.8687,3.9988,4.0788,4.1584,4.2241,4.2642,4.2086,4.1349,4.0659,3.9918,3.9313,3.9105,3.924,3.9649,4.0199,3.9575,3.9949,4.2168,4.3092,4.3828,4.4243,4.436,4.4374,4.4416,4.4561,4.444,4.3523,4.1896,3.9172,4.7825,4.7936,4.7496,4.727,4.7309,4.7309,4.7309,4.7249,4.68,4.6591,4.6546,4.6052,4.5484,4.487,4.4496,4.4007,4.3574,4.3379,4.3305,4.3245,4.2836,4.2575,4.2306,4.1467,4.0831,4.0621,4.0202,3.9873,3.9634,3.9005,3.8332,3.7584,3.6402,3.4951,3.3455,3.3021,3.2317,3.1584,3.2976,3.3754,3.3918,3.4906,3.5489,3.5429,3.4878,3.4247,3.3769,3.2571,3.1799,3.1485,3.094,3.0708,3.0951,3.2071,3.3358,3.4896,3.6775,3.8007,3.8193,3.87,3.9073,3.9309,3.98,4.0113,4.0113,4.0113,4.0113,3.9994,3.9106,3.8193,3.7449,3.6332,3.538,3.4827,3.4015,3.3372,3.3034,3.2598,3.2178,3.1989,3.1433,3.1461,3.2344,3.3816,3.5294,3.6695,3.8091,3.9515,4.0573,4.1253,4.1778,4.2382,4.2151,4.1742,4.1214,4.0653,4.0249,4.0008,4.0018,4.0507,4.1185,4.0102,3.9663,4.1794,4.2527,4.2861,4.2981,4.3218,4.3945,4.408,4.428,4.439,4.3939,4.2602,4.0886,5.006,4.9821,4.876,4.7863,4.7309,4.7309,4.7309,4.7309,4.7249,4.7249,4.7219,4.716,4.683,4.6112,4.496,4.4332,4.4182,4.3604,4.3334,4.329,4.3245,4.294,4.241,4.2321,4.1961,4.1392,4.1175,4.0846,4.0307,3.9679,3.9035,3.8302,3.712,3.6103,3.522,3.4128,3.3455,3.3365,3.4068,3.4474,3.4548,3.5145,3.5534,3.5444,3.4861,3.4533,3.4307,3.317,3.2497,3.2452,3.1867,3.1478,3.1581,3.2785,3.4427,3.6267,3.7402,3.8261,3.8853,3.9022,3.9292,3.9893,4.0045,4.0113,4.0113,4.0113,4.0113,4.0096,3.9943,3.9554,3.8751,3.7127,3.587,3.5605,3.4332,3.3372,3.2547,3.2547,3.2005,3.1529,3.136,3.1579,3.2242,3.2983,3.4675,3.6361,3.7623,3.8809,4.0261,4.0943,4.1423,4.1864,4.2078,4.2059,4.1313,4.1031,4.0679,4.0496,4.072,4.1132,4.1058,4.1038,4.1217,4.1197,4.1495,4.1623,4.1493,4.1983,4.2982,4.35,4.3924,4.4001,4.3792,4.2893,4.1215,4.9702,4.8955,4.8476,4.7908,4.7339,4.7309,4.7309,4.7309,4.7309,4.7309,4.7309,4.7309,4.7174,4.6905,4.6007,4.5125,4.4347,4.4062,4.3693,4.3349,4.3305,4.3155,4.2985,4.262,4.2306,4.2021,4.1632,4.104,4.0442,4.0142,3.9709,3.902,3.8153,3.718,3.6237,3.5669,3.5026,3.4354,3.5222,3.5579,3.5235,3.5789,3.5938,3.5504,3.5265,3.513,3.513,3.4247,3.3769,3.3769,3.314,3.2796,3.2961,3.4581,3.6082,3.7255,3.8564,3.9453,3.9673,3.9681,3.9808,4.0062,4.0113,4.0113,4.0113,4.0113,4.0113,4.0113,4.0113,3.9943,3.9605,3.8497,3.7584,3.7043,3.6163,3.4996,3.3947,3.3288,3.2713,3.2087,3.1921,3.2056,3.2513,3.3744,3.5301,3.6609,3.7851,3.9042,3.9955,4.0549,4.0913,4.1218,4.1508,4.1672,4.1676,4.1524,4.1377,4.1303,4.1448,4.1937,4.2082,4.2345,4.2542,4.2099,4.1791,4.1607,4.1899,4.2395,4.3143,4.3411,4.3791,4.3695,4.3405,4.2487,4.0974,4.9867,4.9,4.891,4.8416,4.7668,4.7623,4.7489,4.7339,4.7309,4.7309,4.7309,4.7309,4.7309,4.7234,4.683,4.6052,4.4934,4.4541,4.4062,4.3604,4.3394,4.3305,4.323,4.2895,4.2671,4.2566,4.2051,4.1459,4.1025,4.0606,4.0172,3.9709,3.8871,3.7973,3.7195,3.6911,3.6282,3.5744,3.6327,3.6552,3.6222,3.6552,3.6596,3.6193,3.6118,3.5908,3.5534,3.504,3.4801,3.4788,3.4367,3.4236,3.4637,3.6142,3.7395,3.8095,3.93,4.0113,4.0113,4.0113,4.0096,4.0113,4.0113,4.0113,4.0113,4.0113,4.0113,4.0113,4.0113,4.0113,4.0011,3.9622,3.9039,3.8294,3.7381,3.6299,3.4996,3.396,3.3,3.2141,3.209,3.2242,3.2547,3.432,3.5723,3.6711,3.8082,3.9225,3.9935,4.0271,4.0387,4.0491,4.0891,4.1093,4.1155,4.1126,4.15,4.1523,4.1682,4.232,4.2832,4.3231,4.3315,4.2928,4.2635,4.2415,4.2543,4.3002,4.3293,4.351,4.3559,4.3527,4.2902,4.2112,4.055,5.0764,5.0121,5.0181,4.9374,4.8282,4.8192,4.7878,4.7369,4.7309,4.7309,4.7309,4.7309,4.7309,4.7294,4.7219,4.6832,4.6127,4.5065,4.4407,4.4182,4.3633,4.3349,4.329,4.323,4.3185,4.317,4.2656,4.2366,4.2171,4.1145,4.0531,4.0157,3.9155,3.8542,3.8362,3.7793,3.7464,3.7389,3.7494,3.7449,3.7419,3.7404,3.736,3.7285,3.7255,3.6746,3.5654,3.5594,3.5594,3.5564,3.5534,3.5812,3.6337,3.7217,3.8019,3.8663,3.9575,4.0045,4.0087,4.0113,4.0113,4.0231,4.0163,4.0265,4.04,4.035,4.035,4.0383,4.0333,4.0265,4.0299,4.0265,3.9859,3.8988,3.7787,3.6721,3.5549,3.423,3.2831,3.1715,3.1921,3.231,3.2801,3.4387,3.6028,3.6981,3.8115,3.9174,3.9791,4.0026,3.9978,3.975,3.9857,4.0089,4.036,4.0667,4.1157,4.1611,4.1861,4.2268,4.268,4.305,4.3172,4.2893,4.2782,4.2578,4.2707,4.3111,4.3167,4.333,4.3364,4.3289,4.2584,4.1709,4.0225,5.0779,5.0211,5.0196,4.9494,4.8356,4.8297,4.7908,4.7339,4.7309,4.7309,4.7309,4.7309,4.7309,4.7309,4.7309,4.7189,4.692,4.6025,4.5214,4.4421,4.4052,4.3723,4.3379,4.3305,4.3305,4.3275,4.315,4.2776,4.2396,4.1976,4.1377,4.0457,4.0008,3.9544,3.9095,3.8886,3.876,3.8781,3.8796,3.8571,3.8138,3.8093,3.7883,3.7464,3.7404,3.718,3.6817,3.6821,3.6821,3.6791,3.6806,3.6878,3.7025,3.7338,3.7825,3.8451,3.9329,3.9884,3.9961,4.0079,4.0333,4.0713,4.0849,4.1119,4.1551,4.1559,4.1542,4.1559,4.1593,4.1593,4.1636,4.1619,4.0849,3.9191,3.8548,3.7516,3.5825,3.3964,3.2357,3.1579,3.229,3.3169,3.3931,3.5419,3.6569,3.733,3.8328,3.9089,3.9283,3.9376,3.9129,3.8639,3.8823,3.8969,3.9065,3.9645,4.0502,4.1111,4.156,4.1969,4.242,4.2846,4.2922,4.3023,4.291,4.2909,4.3019,4.3129,4.3222,4.3314,4.344,4.3019,4.2396,4.135,4.0084,5.0975,5.0569,5.0569,4.9956,4.9045,4.9015,4.8641,4.8087,4.8027,4.7893,4.7713,4.7683,4.7519,4.7354,4.7309,4.7309,4.7249,4.686,4.6055,4.5065,4.4451,4.4077,4.3633,4.3379,4.3305,4.3305,4.3305,4.3135,4.2746,4.25,4.1976,4.122,4.0666,4.0202,3.9768,3.9493,3.9388,3.9388,3.9358,3.9179,3.8871,3.8781,3.8586,3.8212,3.8153,3.8153,3.8153,3.8118,3.7928,3.7479,3.721,3.7086,3.7107,3.7142,3.7383,3.8067,3.8865,3.947,3.9713,3.9944,4.0434,4.1035,4.1204,4.1525,4.21,4.2303,4.2303,4.2303,4.2252,4.2303,4.2269,4.2286,4.1593,4.0426,3.9698,3.8447,3.6366,3.4866,3.3816,3.344,3.3723,3.4349,3.5047,3.5932,3.6931,3.7483,3.8125,3.8599,3.8599,3.8599,3.8058,3.7719,3.7868,3.7882,3.7716,3.8546,3.9706,4.0458,4.1138,4.1565,4.2038,4.2577,4.2868,4.3211,4.3222,4.3221,4.3296,4.3332,4.3424,4.3479,4.3442,4.302,4.2451,4.1662,4.0469,5.1214,5.1229,5.1214,5.078,5.0121,5.0091,4.9718,4.9299,4.9224,4.879,4.8327,4.8192,4.7878,4.7414,4.7309,4.7309,4.7294,4.7249,4.692,4.6097,4.5214,4.4526,4.4332,4.3738,4.3484,4.3439,4.3349,4.3275,4.3155,4.2761,4.2425,4.2156,4.1175,4.0516,4.0367,3.9828,3.9514,3.9403,3.9388,3.9379,3.9224,3.9328,3.9313,3.9269,3.9239,3.9224,3.9179,3.9149,3.8701,3.7674,3.715,3.7019,3.7066,3.6844,3.7154,3.7878,3.8548,3.9242,3.9575,4.022,4.073,4.1457,4.1593,4.1644,4.2489,4.2743,4.2726,4.2675,4.2642,4.2574,4.2591,4.2608,4.2455,4.2185,4.0967,3.9283,3.7422,3.6914,3.6282,3.5752,3.5701,3.5701,3.5718,3.6366,3.6728,3.6981,3.7466,3.7753,3.7855,3.7652,3.7043,3.6891,3.6907,3.7483,3.7533,3.8819,4.002,4.1019,4.1488,4.1771,4.2029,4.2501,4.288,4.3214,4.3409,4.3426,4.3479,4.3462,4.3479,4.3479,4.3314,4.3056,4.2598,4.1937,4.1113,5.1229,5.1229,5.1229,5.0794,5.024,5.0196,4.9883,4.9359,4.9329,4.903,4.8416,4.8297,4.7982,4.7339,4.7324,4.7309,4.7309,4.7309,4.7264,4.695,4.6217,4.5514,4.499,4.4362,4.4032,4.3973,4.3544,4.3305,4.329,4.3135,4.2836,4.241,4.2036,4.1549,4.1115,4.0472,3.9888,3.9448,3.9403,3.9185,3.8886,3.9215,3.9388,3.9388,3.9388,3.9388,3.9388,3.9388,3.932,3.8916,3.8257,3.8002,3.8122,3.787,3.7945,3.8637,3.9548,4.0324,4.0807,4.1335,4.2006,4.2699,4.2675,4.3166,4.3893,4.3988,4.3988,4.3988,4.3988,4.3938,4.3972,4.3938,4.3718,4.3064,4.1897,4.0544,3.9453,3.8742,3.8125,3.7466,3.7307,3.7026,3.6688,3.6552,3.6778,3.6829,3.6981,3.7144,3.7229,3.7144,3.6738,3.5977,3.596,3.6941,3.7872,3.9191,4.0426,4.1662,4.2185,4.2378,4.254,4.2739,4.2982,4.3178,4.3105,4.3105,4.332,4.3445,4.3463,4.3479,4.3406,4.3222,4.3075,4.2598,4.1867,5.1229,5.1229,5.1229,5.1005,5.0614,5.0599,5.0436,5.0152,5.0077,4.9718,4.9209,4.9105,4.8581,4.7758,4.7728,4.7549,4.7339,4.7309,4.7309,4.7249,4.689,4.6187,4.5409,4.484,4.4586,4.4287,4.3888,4.3574,4.3349,4.3305,4.312,4.2791,4.253,4.2201,4.1826,4.1145,4.0487,3.9963,3.9828,3.9604,3.9305,3.932,3.9574,3.9679,3.9568,3.9388,3.9388,3.9388,3.9388,3.9224,3.8781,3.8477,3.8537,3.8122,3.818,3.8867,3.978,4.0547,4.1177,4.1864,4.2632,4.3206,4.3375,4.3826,4.4361,4.4598,4.4598,4.4547,4.4598,4.4598,4.4598,4.4598,4.4367,4.391,4.3132,4.2194,4.1153,4.0629,4.007,3.9428,3.8734,3.8091,3.7313,3.6755,3.6575,3.6694,3.6829,3.688,3.6863,3.6745,3.6428,3.5678,3.5921,3.7127,3.843,3.9724,4.1187,4.2381,4.2932,4.3116,4.3025,4.3044,4.2979,4.303,4.2898,4.2941,4.3324,4.3522,4.3462,4.3479,4.3479,4.3516,4.3387,4.3387,4.2619,5.1124,5.1109,5.1199,5.1229,5.1199,5.1214,5.1124,5.1184,5.1094,5.0689,5.0181,5.0151,4.9329,4.8312,4.8147,4.7908,4.7309,4.7309,4.7309,4.7294,4.7145,4.6666,4.5813,4.5514,4.517,4.4706,4.4466,4.3988,4.3589,4.3409,4.3305,4.311,4.2731,4.2545,4.2366,4.1803,4.116,4.0621,4.0502,4.0367,4.0172,3.9963,4.0038,4.0113,3.9679,3.9418,3.9388,3.9388,3.9388,3.9388,3.8826,3.8637,3.8502,3.7997,3.8247,3.9029,3.9992,4.0744,4.1255,4.2306,4.2878,4.3504,4.3595,4.3809,4.4445,4.4598,4.4598,4.4598,4.4682,4.4886,4.5021,4.4886,4.4784,4.4587,4.4502,4.3735,4.2844,4.2472,4.2252,4.1474,4.0138,3.9022,3.7838,3.684,3.6028,3.6728,3.6846,3.6948,3.7043,3.7161,3.6466,3.5447,3.6234,3.7635,3.8963,4.0333,4.1847,4.3176,4.3654,4.3836,4.3526,4.3383,4.3089,4.3013,4.3368,4.3563,4.3703,4.3743,4.3813,4.4011,4.4378,4.414,4.3864,4.3956,4.3535,5.039,5.045,5.0958,5.1229,5.1229,5.1229,5.1229,5.1229,5.1229,5.087,5.0315,5.0211,4.9523,4.8341,4.8386,4.7908,4.7399,4.7339,4.7309,4.7309,4.7309,4.7204,4.6726,4.6352,4.6007,4.5562,4.4751,4.4272,4.3992,4.3589,4.3305,4.3245,4.318,4.312,4.2985,4.2462,4.1871,4.128,4.1175,4.092,4.0681,4.0771,4.0711,4.0472,3.9843,3.9499,3.9403,3.9388,3.9388,3.9358,3.9334,3.9352,3.9309,3.9365,3.9715,4.0497,4.1374,4.2203,4.2947,4.3535,4.4141,4.4181,4.4231,4.4401,4.453,4.4598,4.4598,4.4716,4.5094,4.5568,4.6024,4.5737,4.5399,4.5128,4.435,4.3555,4.3318,4.3623,4.342,4.2675,4.1441,4.0003,3.8193,3.7313,3.6829,3.6863,3.7049,3.7151,3.7432,3.7804,3.6926,3.6001,3.7,3.8464,3.9901,4.1153,4.231,4.3369,4.3837,4.4303,4.4026,4.381,4.3537,4.3714,4.4132,4.4217,4.4162,4.482,4.5076,4.5204,4.5223,4.5039,4.4856,4.4782,4.4544,5.0196,5.0255,5.0945,5.1229,5.1229,5.1229,5.1229,5.1229,5.1229,5.0988,5.0704,5.0644,5.0076,4.9239,4.9164,4.8716,4.7848,4.7429,4.7309,4.7309,4.7309,4.7309,4.7264,4.695,4.6651,4.6277,4.5663,4.502,4.4377,4.3932,4.3618,4.3319,4.3319,4.326,4.329,4.2985,4.2491,4.2006,4.1871,4.1677,4.1482,4.1309,4.128,4.092,4.0516,4.0374,4.0514,4.0609,4.0646,4.0631,4.0601,4.032,3.9965,4.0161,4.0734,4.1475,4.238,4.3078,4.368,4.4224,4.4564,4.4632,4.4598,4.4598,4.4598,4.4598,4.479,4.5077,4.55,4.5991,4.6633,4.6126,4.5686,4.5043,4.4147,4.3172,4.2665,4.3047,4.3234,4.2422,4.1238,4.002,3.8785,3.8091,3.8319,3.8623,3.9259,3.9377,3.9225,3.9318,3.8082,3.7545,3.8239,3.9377,4.0891,4.2025,4.2828,4.3436,4.3616,4.4139,4.4283,4.4143,4.3993,4.4258,4.447,4.4561,4.4649,4.5434,4.5975,4.5773,4.57,4.5847,4.5828,4.5553,4.5333,4.9897,4.9971,5.0704,5.1065,5.1094,5.1169,5.1229,5.1229,5.1229,5.1199,5.1214,5.1229,5.0674,5.024,5.0091,4.9418,4.8386,4.7623,4.7309,4.7309,4.7309,4.7309,4.7279,4.7189,4.6995,4.6501,4.6232,4.5603,4.4945,4.4496,4.4257,4.3708,4.3484,4.3559,4.3484,4.329,4.3015,4.2551,4.253,4.2491,4.244,4.2028,4.1773,4.1557,4.1302,4.134,4.1519,4.1793,4.2032,4.2117,4.2138,4.1565,4.099,4.089,4.1476,4.2267,4.3338,4.4048,4.449,4.4832,4.5089,4.4936,4.4987,4.5004,4.5055,4.5156,4.5382,4.5737,4.616,4.6549,4.6972,4.6464,4.5686,4.484,4.3961,4.2632,4.1694,4.1711,4.1593,4.1255,4.0984,4.0307,3.9851,3.9394,3.991,4.0451,4.1119,4.1576,4.1424,4.0772,3.9607,3.8461,3.8905,3.9292,4.0654,4.2008,4.2912,4.3301,4.3453,4.3893,4.4333,4.4374,4.4263,4.4457,4.4617,4.4837,4.5301,4.6087,4.6369,4.6139,4.6342,4.6707,4.658,4.6287,4.6195,4.8611,4.8716,4.9898,5.036,5.045,5.0943,5.1229,5.1229,5.1229,5.1229,5.1229,5.1214,5.0808,5.036,5.0211,4.9508,4.8536,4.7803,4.7399,4.7369,4.7339,4.7309,4.7309,4.7309,4.7219,4.7025,4.6681,4.6145,4.5813,4.5439,4.5005,4.4825,4.4407,4.4167,4.3928,4.3604,4.329,4.3075,4.3045,4.306,4.2925,4.2845,4.2644,4.2293,4.1971,4.1919,4.2156,4.2468,4.271,4.2757,4.271,4.2745,4.2817,4.2883,4.3321,4.3993,4.4856,4.542,4.5757,4.6132,4.638,4.643,4.6278,4.6312,4.6312,4.6329,4.6312,4.665,4.7192,4.78,4.8511,4.7378,4.6346,4.5314,4.3876,4.2286,4.1407,4.1018,4.0747,4.0485,4.0637,4.1085,4.0967,4.1102,4.1694,4.2303,4.298,4.3504,4.3656,4.2658,4.1313,4.0189,3.9285,3.9614,4.0163,4.1484,4.2557,4.2946,4.3234,4.3673,4.4062,4.435,4.4524,4.4714,4.5171,4.5633,4.6176,4.6683,4.69,4.6789,4.7185,4.756,4.7382,4.7128,4.748,4.8297,4.8431,4.9703,5.0196,5.0315,5.093,5.1229,5.1229,5.1229,5.1229,5.1229,5.1214,5.1018,5.0749,5.0689,5.0167,4.9269,4.8222,4.7863,4.7773,4.7489,4.7309,4.7309,4.7309,4.7309,4.7219,4.6965,4.6563,4.6294,4.6007,4.5678,4.5259,4.4945,4.4676,4.4347,4.3977,4.3618,4.3454,4.3319,4.3165,4.2905,4.3046,4.3096,4.328,4.3221,4.3341,4.3762,4.4184,4.4523,4.4626,4.4575,4.4701,4.4916,4.503,4.5032,4.5212,4.5906,4.6471,4.6621,4.6756,4.6735,4.6752,4.6819,4.6786,4.6786,4.6752,4.7005,4.7445,4.802,4.8595,4.8883,4.7919,4.6938,4.5737,4.4248,4.2642,4.1356,4.1102,4.0815,4.0468,4.0882,4.161,4.2523,4.2844,4.3521,4.4181,4.4829,4.5297,4.5715,4.4462,4.2946,4.1373,4.0257,4.0087,4.0519,4.1542,4.2523,4.2844,4.342,4.3859,4.4248,4.4756,4.4901,4.4957,4.5537,4.6255,4.6174,4.6392,4.6901,4.7353,4.7419,4.7554,4.7882,4.8093,4.8229,4.8087,4.8207,4.9508,4.9986,5.0167,5.0885,5.1229,5.1229,5.1229,5.1229,5.1229,5.1229,5.1214,5.1169,5.0958,5.0614,5.0061,4.8835,4.8282,4.8087,4.7593,4.7309,4.7309,4.7309,4.7309,4.7294,4.7249,4.7025,4.6696,4.6531,4.6202,4.5918,4.5663,4.5289,4.4829,4.4646,4.4142,4.3843,4.3499,4.3165,4.2784,4.2948,4.3524,4.4326,4.469,4.5122,4.5523,4.5955,4.6234,4.637,4.6368,4.6416,4.6759,4.6896,4.6581,4.6107,4.6739,4.7136,4.7276,4.7327,4.7462,4.7479,4.731,4.7276,4.731,4.753,4.7597,4.8122,4.8562,4.8781,4.8629,4.8041,4.6938,4.5686,4.4604,4.3555,4.1948,4.1373,4.1694,4.1559,4.1593,4.2422,4.3656,4.457,4.5229,4.616,4.6836,4.6904,4.7073,4.5935,4.4384,4.2506,4.1305,4.0832,4.1136,4.1948,4.2726,4.3166,4.3995,4.4756,4.5077,4.5432,4.549,4.561,4.6113,4.6647,4.6397,4.6238,4.6747,4.7129,4.7288,4.7545,4.7893,4.8131,4.8286,4.7414,4.7534,4.885,4.9419,4.9583,5.0705,5.1229,5.1229,5.1229,5.1229,5.1229,5.1229,5.1229,5.1124,5.0614,5.033,4.9867,4.9134,4.8536,4.8446,4.7788,4.7414,4.7339,4.7309,4.7309,4.7309,4.7309,4.7279,4.71,4.7085,4.7115,4.6845,4.6396,4.604,4.5756,4.5421,4.5155,4.4945,4.4436,4.3752,4.3183,4.3488,4.3961,4.4611,4.5389,4.6186,4.6588,4.7035,4.7372,4.7488,4.7439,4.7472,4.7538,4.7539,4.7704,4.7929,4.8373,4.8731,4.8595,4.8494,4.8477,4.8443,4.8545,4.8714,4.8511,4.8477,4.8562,4.8815,4.8934,4.8595,4.8054,4.7361,4.6227,4.5196,4.4198,4.3352,4.2219,4.2337,4.2591,4.2997,4.3149,4.4147,4.5314,4.6143,4.6989,4.7936,4.8646,4.8595,4.8173,4.6887,4.5444,4.3464,4.2252,4.1762,4.1745,4.2557,4.3064,4.3521,4.4587,4.5483,4.5432,4.5647,4.6379,4.6567,4.6965,4.6916,4.6557,4.6519,4.6779,4.6989,4.7244,4.7563,4.7931,4.8111,4.8305,4.7309,4.7429,4.8716,4.9299,4.9479,5.0661,5.1229,5.1229,5.1229,5.1229,5.1229,5.1229,5.1229,5.1124,5.0838,5.0764,5.0586,4.9763,4.9404,4.906,4.8386,4.7863,4.7773,4.7504,4.7309,4.7309,4.7309,4.7309,4.7309,4.7309,4.7309,4.7264,4.701,4.6621,4.6441,4.6134,4.5883,4.552,4.4944,4.4481,4.435,4.4476,4.4883,4.5687,4.6512,4.7035,4.7439,4.7737,4.8016,4.8081,4.8032,4.8016,4.8065,4.8065,4.8113,4.8515,4.8781,4.8968,4.8968,4.9018,4.9018,4.9018,4.9018,4.8951,4.9001,4.9018,4.9018,4.9001,4.8595,4.8105,4.7411,4.6616,4.5432,4.4451,4.4079,4.3403,4.2997,4.3555,4.3826,4.4282,4.4773,4.5652,4.6464,4.7073,4.7699,4.8342,4.8832,4.8815,4.8342,4.7394,4.5867,4.4158,4.325,4.2642,4.2726,4.3105,4.3555,4.4164,4.5415,4.5974,4.55,4.5755,4.6634,4.7181,4.7351,4.7169,4.6749,4.6871,4.7222,4.7257,4.724,4.7563,4.7893,4.8151,4.8287,4.7309,4.7429,4.8536,4.9075,4.9179,5.0257,5.0705,5.0735,5.0885,5.096,5.1035,5.1124,5.1229,5.1214,5.1199,5.1139,5.1092,5.0495,5.0255,4.9762,4.9045,4.8341,4.8027,4.7653,4.7309,4.7324,4.7309,4.7309,4.7309,4.7309,4.7309,4.7309,4.7249,4.7025,4.6753,4.6798,4.6891,4.677,4.6121,4.5912,4.6011,4.6061,4.65,4.7104,4.772,4.8117,4.8178,4.829,4.8498,4.853,4.8482,4.8498,4.853,4.8498,4.853,4.8784,4.897,4.9001,4.9018,4.9018,4.9018,4.9018,4.9018,4.9018,4.9018,4.9018,4.9018,4.9001,4.8663,4.797,4.7175,4.6498,4.5618,4.4925,4.4384,4.3724,4.3386,4.4147,4.4739,4.5094,4.5703,4.665,4.7378,4.7885,4.8392,4.8832,4.9001,4.9018,4.8528,4.7851,4.6955,4.5483,4.4857,4.4113,4.3623,4.3826,4.4181,4.4587,4.5838,4.6413,4.5935,4.637,4.7305,4.7672,4.7585,4.7672,4.7413,4.7533,4.7648,4.7632,4.7643,4.7615,4.7834,4.8111,4.8525,4.7309,4.7369,4.8057,4.8371,4.8446,4.9134,4.9479,4.9628,5.0122,5.0345,5.0539,5.0915,5.1229,5.1229,5.1229,5.1229,5.1184,5.048,5.0345,4.9852,4.903,4.8596,4.8327,4.7982,4.7474,4.7474,4.7608,4.7563,4.7369,4.7519,4.7414,4.7309,4.7339,4.7294,4.7375,4.7592,4.7973,4.8044,4.7923,4.7834,4.7945,4.8055,4.8381,4.8445,4.9182,4.9618,4.8959,4.8877,4.8861,4.8892,4.8861,4.8829,4.8846,4.8846,4.8877,4.894,4.897,4.9018,4.9018,4.9018,4.9018,4.9018,4.9018,4.9069,4.9204,4.9069,4.9035,4.9204,4.9103,4.8595,4.7902,4.7107,4.6109,4.5449,4.4891,4.4451,4.4384,4.506,4.5602,4.5906,4.665,4.7699,4.8463,4.9021,4.8714,4.9052,4.9018,4.9018,4.9018,4.8494,4.8206,4.7361,4.6718,4.5838,4.4637,4.4502,4.4231,4.4536,4.5512,4.6138,4.6324,4.706,4.7547,4.7231,4.7037,4.7575,4.8091,4.8084,4.8084,4.8074,4.8097,4.8308,4.827,4.8424,4.8926,4.7309,4.7339,4.7578,4.7923,4.8327,4.903,4.9299,4.9419,4.9957,5.0435,5.0794,5.1063,5.1229,5.1229,5.1229,5.1229,5.1199,5.0958,5.0794,5.0539,4.9987,4.9553,4.9254,4.885,4.8536,4.8461,4.8476,4.8506,4.858,4.8057,4.7938,4.7833,4.7504,4.7339,4.7553,4.8309,4.8927,4.9254,4.9542,4.9668,4.9464,4.9573,4.9843,5.0055,4.9742,5.0016,4.9644,4.9221,4.9086,4.9052,4.9086,4.9137,4.9154,4.9154,4.9137,4.9154,4.9171,4.9154,4.9086,4.9069,4.9018,4.9018,4.9018,4.9171,4.9543,4.9661,4.9965,5.0067,4.9898,4.9373,4.8663,4.753,4.6447,4.5872,4.5483,4.5179,4.528,4.5889,4.6464,4.6752,4.7784,4.8869,4.9579,5.0238,4.9695,4.9221,4.9103,4.9035,4.9103,4.9069,4.8731,4.8176,4.7479,4.6583,4.5382,4.4722,4.413,4.4536,4.5089,4.5444,4.5838,4.6663,4.6963,4.6668,4.6601,4.7169,4.7738,4.8301,4.8563,4.862,4.89,4.9275,4.9128,4.8861,4.9398,4.7309,4.7309,4.7309,4.7563,4.8042,4.8476,4.873,4.8835,4.9568,5.0451,5.1199,5.1229,5.1229,5.1229,5.1229,5.1229,5.1229,5.1184,5.1199,5.0915,5.048,5.0255,5.0017,4.9613,4.912,4.9299,4.9299,4.9224,4.9134,4.861,4.8297,4.8042,4.7683,4.7384,4.7694,4.8866,4.9826,5.0284,5.0982,5.1433,5.1244,5.1329,5.1179,5.136,5.1017,5.071,5.0456,5.0084,4.9881,4.983,4.9779,4.9729,4.9695,4.9661,4.9661,4.9661,4.9661,4.9644,4.961,4.9204,4.9052,4.9018,4.9323,4.961,4.9965,5.0287,5.0642,5.093,5.0625,5.0202,4.9593,4.8731,4.7834,4.7394,4.6769,4.643,4.6177,4.6498,4.7107,4.7618,4.8731,4.9661,5.0033,5.0591,5.0627,5.0168,5.0135,4.9881,4.9526,4.9424,4.912,4.8511,4.7767,4.6819,4.5855,4.4773,4.3809,4.3842,4.4299,4.4502,4.501,4.5838,4.6172,4.5716,4.5903,4.6686,4.7432,4.8156,4.8711,4.9197,4.9448,4.9627,4.9818,4.9625,5.0078,4.7309,4.7309,4.7309,4.7324,4.7399,4.7354,4.7429,4.7743,4.885,5.0062,5.1139,5.1229,5.1229,5.1229,5.1229,5.1229,5.1229,5.1229,5.1229,5.1065,5.0674,5.0315,5.0137,4.9838,4.9673,4.9389,4.9539,4.9659,4.9479,4.894,4.8596,4.8341,4.8042,4.756,4.754,4.9311,5.0719,5.1627,5.2612,5.2908,5.296,5.2927,5.2656,5.2335,5.1979,5.1589,5.1234,5.0896,5.0727,5.0727,5.076,5.0777,5.0811,5.0845,5.083,5.0913,5.0963,5.1014,5.1031,4.9779,4.9357,4.9407,4.9881,5.0202,5.0338,5.0727,5.1319,5.1691,5.1437,5.1286,5.0913,5.0439,4.961,4.9018,4.8426,4.7682,4.7428,4.7259,4.7902,4.8308,4.9238,5.0118,5.0405,5.076,5.1234,5.1251,5.12,5.0845,5.0253,4.9779,4.9509,4.8968,4.8206,4.7175,4.6092,4.4451,4.3511,4.3494,4.3572,4.3842,4.4248,4.4987,4.5038,4.4733,4.5671,4.6881,4.7513,4.8056,4.886,4.9635,4.9568,4.9728,5.0033,5.0446,5.0856,4.7309,4.7309,4.7309,4.7309,4.7309,4.7309,4.7309,4.7549,4.8701,5.0002,5.1035,5.1229,5.1229,5.1229,5.1229,5.1229,5.1229,5.1229,5.1229,5.1184,5.0883,5.093,5.075,5.0586,5.0481,5.0556,5.0541,5.0451,5.0601,4.9763,4.9583,4.9434,4.8775,4.838,4.8389,4.9399,5.0406,5.1348,5.2362,5.3144,5.3314,5.3433,5.3382,5.3044,5.2604,5.2232,5.1928,5.1657,5.1437,5.142,5.1437,5.1403,5.1386,5.1354,5.1286,5.1252,5.1268,5.1234,5.1183,5.0642,5.0492,5.0574,5.0642,5.1031,5.1505,5.1725,5.2164,5.252,5.252,5.2553,5.2604,5.1944,5.1268,5.0997,5.0338,4.9204,4.868,4.8545,4.8731,4.8951,4.9593,5.076,5.1352,5.1708,5.2114,5.2046,5.1961,5.1488,5.0913,5.0304,4.9881,4.9424,4.8714,4.7631,4.6413,4.5128,4.4265,4.4231,4.3741,4.3284,4.3741,4.4598,4.5021,4.5326,4.624,4.717,4.7954,4.8736,4.951,5.0041,5.0047,5.0175,5.0555,5.1054,5.1556,4.7309,4.7309,4.7309,4.7309,4.7309,4.7309,4.7414,4.7773,4.8596,4.9658,5.0661,5.0823,5.0973,5.1154,5.1229,5.1229,5.1229,5.1229,5.1229,5.1229,5.1214,5.1169,5.1184,5.1229,5.105,5.1229,5.1229,5.1169,5.105,5.048,5.0093,4.9809,4.9719,4.9454,4.9431,4.9983,5.0683,5.1691,5.2741,5.3394,5.3526,5.3617,5.3771,5.3416,5.3061,5.2739,5.2604,5.2317,5.1995,5.1961,5.1961,5.1961,5.1978,5.1962,5.1962,5.2012,5.2012,5.2063,5.208,5.208,5.2012,5.2029,5.1792,5.1826,5.23,5.2503,5.2892,5.3264,5.3484,5.3484,5.3331,5.2739,5.252,5.2198,5.1572,5.0405,4.9627,4.9458,4.9221,4.9458,5.0067,5.1234,5.2266,5.2773,5.3162,5.2926,5.2672,5.2131,5.1623,5.1082,5.0557,5.0135,4.9695,4.8866,4.7631,4.6177,4.5449,4.5026,4.4181,4.3234,4.4231,4.5213,4.5551,4.5957,4.6866,4.7747,4.8653,4.9476,5.0081,5.049,5.0638,5.0849,5.1157,5.1449,5.1786,4.7309,4.7309,4.7309,4.7309,4.7309,4.7309,4.7653,4.8252,4.8297,4.9075,5.0196,5.0285,5.0614,5.1154,5.1229,5.1229,5.1229,5.1229,5.1229,5.1229,5.1229,5.1229,5.1229,5.1229,5.1229,5.1229,5.1229,5.1214,5.1154,5.0704,5.0229,5.0095,5.0379,5.0546,5.0842,5.1245,5.1688,5.2388,5.3177,5.3649,5.3732,5.4156,5.4008,5.367,5.3348,5.3298,5.3247,5.3179,5.3213,5.3264,5.3331,5.3382,5.3433,5.3484,5.3484,5.345,5.3348,5.3264,5.3213,5.3145,5.3179,5.2993,5.2655,5.2469,5.2553,5.2993,5.3298,5.3433,5.3518,5.3518,5.3399,5.3247,5.3095,5.2723,5.2334,5.142,5.0524,5.0118,4.9813,5.005,5.0727,5.1674,5.2638,5.3281,5.3501,5.3365,5.3078,5.2892,5.2401,5.2046,5.1555,5.1183,5.0727,5.0236,4.89,4.7107,4.6058,4.5432,4.4282,4.3555,4.4705,4.5534,4.5737,4.6227,4.734,4.8307,4.9205,4.9944,5.0554,5.0849,5.1122,5.1061,5.1226,5.1272,5.1571,4.7309,4.7309,4.7309,4.7309,4.7309,4.7309,4.7668,4.8281,4.8312,4.9015,5.0196,5.0196,5.045,5.1184,5.1229,5.1199,5.1229,5.1229,5.1229,5.1229,5.1229,5.1229,5.1229,5.1229,5.1229,5.1229,5.1229,5.1229,5.1199,5.0868,5.1102,5.1304,5.1541,5.2087,5.2609,5.3212,5.3118,5.3214,5.394,5.4064,5.4181,5.4543,5.4244,5.3907,5.3737,5.3721,5.3721,5.3687,5.367,5.3568,5.3534,5.3518,5.3518,5.3518,5.3501,5.3501,5.3484,5.3484,5.3518,5.3518,5.3585,5.367,5.3348,5.323,5.3247,5.3382,5.3568,5.3518,5.3518,5.3518,5.3518,5.3416,5.3348,5.3129,5.2723,5.2114,5.1319,5.0947,5.0676,5.0777,5.1454,5.1944,5.2909,5.3331,5.3501,5.3501,5.345,5.3298,5.3095,5.2706,5.2452,5.208,5.1623,5.1099,4.9492,4.7699,4.6684,4.572,4.4587,4.3893,4.4604,4.5297,4.5732,4.676,4.826,4.9141,4.9775,5.0516,5.1306,5.1368,5.1564,5.1408,5.1312,5.1469,5.1578,4.7309,4.7309,4.7309,4.7309,4.7309,4.7309,4.7563,4.7863,4.7893,4.8521,4.9389,4.9419,4.9912,5.0659,5.0764,5.093,5.1229,5.1229,5.1229,5.1229,5.1229,5.1229,5.1229,5.1229,5.1229,5.1229,5.1229,5.1229,5.1229,5.1276,5.1403,5.188,5.2606,5.3227,5.3715,5.4252,5.4656,5.4677,5.481,5.4821,5.4951,5.5132,5.492,5.4465,5.4329,5.4313,5.4313,5.4313,5.4211,5.3991,5.394,5.3771,5.3653,5.3518,5.3518,5.3518,5.3518,5.3721,5.3923,5.3974,5.4093,5.4262,5.4329,5.4414,5.4093,5.3974,5.3737,5.3518,5.3518,5.3518,5.3518,5.3501,5.3501,5.3484,5.3078,5.2672,5.2249,5.1877,5.1758,5.1708,5.1995,5.2384,5.2858,5.3264,5.3501,5.3501,5.3518,5.345,5.3348,5.3162,5.301,5.2824,5.2384,5.186,5.0118,4.8578,4.7564,4.6413,4.4976,4.4536,4.4886,4.5602,4.6515,4.792,4.9498,5.0146,5.0667,5.1448,5.2128,5.2208,5.2469,5.2684,5.2498,5.2054,5.215,4.7309,4.7309,4.7309,4.7309,4.7309,4.7309,4.7324,4.7309,4.7369,4.7698,4.8297,4.8341,4.9134,5.0166,5.0345,5.0689,5.1065,5.1229,5.1229,5.1214,5.1229,5.1229,5.1229,5.1229,5.1229,5.1229,5.1229,5.1229,5.1229,5.1261,5.1448,5.1972,5.2652,5.3287,5.4082,5.5017,5.5545,5.5961,5.6035,5.6129,5.604,5.6272,5.6478,5.575,5.5564,5.5581,5.5598,5.553,5.5361,5.4837,5.4465,5.4177,5.3737,5.3518,5.3518,5.3518,5.3518,5.3873,5.4228,5.438,5.4871,5.5243,5.5647,5.5428,5.4954,5.4566,5.4296,5.4211,5.4279,5.4279,5.4296,5.4296,5.4296,5.4279,5.4059,5.3788,5.3534,5.3247,5.3129,5.3027,5.2926,5.3213,5.3095,5.3501,5.3501,5.3518,5.3518,5.3518,5.3484,5.3399,5.3365,5.3331,5.301,5.2384,5.1133,4.9678,4.8562,4.7276,4.5613,4.4869,4.4936,4.6058,4.7483,4.8907,5.0317,5.0994,5.1605,5.2172,5.2743,5.3378,5.368,5.4144,5.3821,5.2953,5.2893,4.7309,4.7309,4.7309,4.7309,4.7309,4.7309,4.7309,4.7309,4.7309,4.7668,4.8207,4.8356,4.897,4.9986,5.0031,5.039,5.0973,5.0975,5.1184,5.1169,5.1154,5.1154,5.1229,5.1229,5.1229,5.1229,5.1229,5.1229,5.1229,5.1261,5.1433,5.1941,5.2576,5.3271,5.4195,5.5231,5.6129,5.6702,5.7093,5.6921,5.6583,5.648,5.6461,5.6021,5.5783,5.5886,5.5886,5.5749,5.531,5.4735,5.4617,5.4177,5.3568,5.3551,5.3534,5.3518,5.3704,5.4143,5.4583,5.4905,5.526,5.5598,5.5835,5.5715,5.5529,5.5293,5.514,5.5123,5.5056,5.5039,5.5022,5.5057,5.5057,5.5057,5.5022,5.4888,5.4735,5.4617,5.4482,5.4211,5.3991,5.3805,5.3619,5.3518,5.3518,5.3518,5.3518,5.3518,5.3518,5.3467,5.345,5.3433,5.345,5.2807,5.1623,5.0371,4.9052,4.7564,4.5855,4.5314,4.4993,4.6295,4.7733,4.954,5.0951,5.1472,5.1919,5.2307,5.2954,5.3858,5.4154,5.4287,5.4145,5.3451,5.3641,4.7309,4.7309,4.7309,4.7309,4.7309,4.7309,4.7309,4.7309,4.7309,4.7504,4.7803,4.7938,4.8581,4.9583,4.9523,4.9986,5.0554,5.0421,5.0511,5.0661,5.0838,5.099,5.1065,5.1229,5.1229,5.1229,5.1229,5.1229,5.1229,5.1214,5.1433,5.1803,5.2381,5.3124,5.4062,5.5239,5.6231,5.6872,5.7514,5.7535,5.7058,5.7099,5.7137,5.6731,5.6664,5.663,5.6681,5.663,5.6241,5.5649,5.5361,5.5074,5.4685,5.4634,5.4549,5.4566,5.4668,5.4803,5.5277,5.5581,5.5818,5.6292,5.6647,5.6816,5.6867,5.6613,5.6038,5.5953,5.5513,5.5411,5.5411,5.5446,5.5446,5.5411,5.5411,5.5361,5.531,5.526,5.4905,5.4448,5.4228,5.4025,5.3805,5.3518,5.3518,5.3518,5.3518,5.3636,5.3619,5.3771,5.3704,5.3602,5.3653,5.2875,5.1522,5.0355,4.9187,4.7665,4.6058,4.5415,4.5122,4.6481,4.7986,5.0031,5.1366,5.1683,5.2101,5.2681,5.3311,5.4192,5.4244,5.4174,5.4022,5.3939,5.4102,4.7309,4.7309,4.7309,4.7309,4.7309,4.7309,4.7309,4.7309,4.7309,4.7309,4.7399,4.7474,4.8207,4.8745,4.8715,4.9359,4.9732,4.9778,4.9868,5.0136,5.027,5.0689,5.1065,5.1229,5.1229,5.1229,5.1229,5.1229,5.1229,5.1214,5.1354,5.1618,5.2063,5.2637,5.3648,5.4762,5.578,5.6592,5.7273,5.7808,5.7848,5.7881,5.7763,5.7797,5.7881,5.7881,5.7865,5.7746,5.7425,5.6748,5.597,5.5615,5.548,5.5378,5.5429,5.5395,5.5361,5.5801,5.6393,5.6511,5.7019,5.7543,5.7814,5.7848,5.785,5.7526,5.6951,5.6613,5.619,5.6038,5.6055,5.6055,5.6055,5.6055,5.6055,5.6055,5.6055,5.6021,5.5547,5.5023,5.4769,5.4566,5.4177,5.3856,5.3788,5.3754,5.3754,5.3788,5.3907,5.4211,5.4329,5.411,5.3957,5.2926,5.1505,5.0625,4.9644,4.7682,4.621,4.5478,4.5275,4.6532,4.8325,5.0811,5.1859,5.1941,5.2616,5.3319,5.3979,5.4354,5.4264,5.4135,5.4231,5.4192,5.4343,4.7309,4.7309,4.7309,4.7309,4.7309,4.7309,4.7309,4.7309,4.7309,4.7309,4.7429,4.7923,4.8566,4.9269,4.8581,4.9,4.9912,4.9583,4.9733,5.0121,5.0181,5.0614,5.1035,5.1229,5.1229,5.1229,5.1229,5.1229,5.1229,5.1229,5.1214,5.1354,5.1354,5.2018,5.3022,5.4174,5.5402,5.6342,5.7273,5.7881,5.7881,5.7881,5.7881,5.7881,5.7881,5.7881,5.7881,5.7881,5.7425,5.6816,5.6275,5.6004,5.5953,5.6004,5.6004,5.6089,5.6055,5.6359,5.6782,5.6951,5.7408,5.7763,5.7881,5.7881,5.7848,5.7831,5.7492,5.7492,5.7222,5.7222,5.7239,5.7239,5.7239,5.7239,5.7239,5.7239,5.7239,5.7137,5.6884,5.6444,5.6089,5.57,5.5192,5.5023,5.5006,5.4989,5.4955,5.4972,5.4888,5.4955,5.4972,5.4617,5.4296,5.301,5.1657,5.1234,5.0168,4.8105,4.6549,4.6143,4.6104,4.6544,4.8409,5.0913,5.1792,5.1893,5.2753,5.3651,5.3848,5.407,5.4089,5.4072,5.4188,5.4203,5.4188]}]]